GFSSGP_con_3kmhel_000.txt.gz
Helicity
21 65 59 54 30 -34 -29 61 75 74 49 49 116 94 71 116 102 146 126 75 81 50 33 45 27 32 41 55 66 73 77 67 63 62 71 68 71 76 79 85 86 82 88 83 76 71 67 68 71
44 114 -5 19 7 -61 31 60 108 197 139 66 68 8 75 60 23 49 80 32 70 46 45 50 36 36 57 68 70 70 69 73 57 58 40 54 65 73 76 81 71 77 80 71 62 45 55 67 82
53 85 -15 -32 -34 -21 124 75 178 57 28 16 26 67 91 52 114 153 63 67 44 87 57 67 67 53 54 60 60 60 74 80 75 68 72 79 71 77 77 77 80 84 72 63 59 55 53 62 68
-24 -16 -9 -59 -89 72 102 108 81 69 68 -27 58 81 126 67 128 112 50 33 68 31 62 79 71 73 73 75 73 74 82 81 84 88 86 76 74 74 79 78 80 81 69 58 49 42 43 45 46
-22 -59 -53 -38 58 68 71 59 29 26 7 23 -23 104 160 124 100 66 45 64 80 34 45 55 72 81 87 94 98 89 81 72 68 70 71 71 60 57 67 67 64 61 52 40 31 30 27 22 30
-53 -36 -24 -47 88 60 46 19 2 59 24 75 18 88 166 101 62 53 43 56 111 68 44 53 59 69 83 83 72 66 61 50 52 66 66 56 50 51 57 63 69 69 63 51 38 31 28 26 26
-52 -52 -45 118 50 48 70 28 -13 11 32 11 21 123 105 76 49 26 49 71 69 53 65 38 43 62 57 51 50 51 46 49 60 62 50 38 42 48 56 70 73 70 65 52 36 29 24 19 20
59 -6 13 9 -1 55 89 -12 29 -10 101 75 -18 65 111 156 14 72 68 52 69 59 69 62 53 24 31 -1 33 38 42 41 37 34 26 29 22 16 44 59 59 59 52 41 32 22 12 4 -4
50 129 6 39 14 101 97 -4 14 56 53 71 71 66 154 137 56 22 39 41 72 73 53 50 58 39 53 20 12 13 23 24 26 31 28 39 13 42 35 62 61 36 20 18 20 -1 -1 2 -1
-33 3 91 69 54 51 45 -6 58 -4 36 31 31 44 142 114 45 41 40 38 67 96 29 83 41 36 -11 43 9 12 16 -8 1 29 31 51 64 50 39 96 86 50 26 4 22 22 2 15 38
-11 31 68 114 76 29 28 10 44 19 -17 -31 -7 -10 149 85 32 49 38 53 66 49 17 77 73 21 -20 22 -11 6 13 25 39 32 40 17 24 40 57 99 89 80 69 47 59 76 69 87 72
1 31 27 108 63 21 25 19 5 62 31 73 59 67 113 84 57 41 34 66 51 52 93 163 51 19 -3 -8 -4 10 18 37 14 54 48 43 28 46 47 39 46 38 53 58 74 75 72 76 98
49 26 68 32 5 34 43 13 39 6 59 90 21 55 88 74 56 32 9 34 48 57 121 146 108 37 21 19 36 40 34 58 52 54 88 72 38 57 41 29 37 37 36 45 67 71 61 78 79
29 3 -9 -16 -5 -7 1 -15 -6 -5 51 32 12 19 58 72 65 74 45 22 29 42 111 175 134 43 56 50 77 68 72 66 51 85 88 70 52 56 40 49 44 41 45 69 85 93 107 110 119
6 -4 -14 -24 -23 -13 6 -0 -18 85 44 34 48 20 5 61 32 84 86 26 4 49 56 256 308 131 107 104 83 89 124 73 71 96 80 68 58 63 68 55 52 61 78 107 98 102 126 137 158
11 33 -11 -22 -44 -3 25 4 60 90 80 36 41 56 11 35 55 78 84 43 6 35 64 205 90 152 127 153 97 76 132 101 18 54 83 98 113 91 103 91 88 83 90 109 122 116 109 119 118
-7 18 -3 -11 46 44 36 9 61 49 43 24 -15 55 38 -7 83 89 111 89 34 25 57 30 175 132 147 176 65 99 121 67 99 95 97 202 219 172 217 120 101 98 106 118 117 119 138 136 120
65 23 34 -6 93 6 18 -19 91 67 51 27 23 -19 69 73 28 106 78 37 42 30 77 76 183 143 137 145 188 106 83 60 127 178 141 215 127 172 129 104 102 99 133 140 128 123 120 108 111
113 104 46 70 102 29 4 24 122 60 16 29 35 55 67 146 223 306 278 180 153 105 81 161 217 250 143 185 215 237 261 282 271 207 217 163 137 192 97 80 111 143 190 193 179 155 126 121 114
79 76 22 77 71 17 -4 -8 138 106 92 81 70 122 151 197 188 195 209 273 293 258 245 228 183 242 316 334 309 212 287 222 160 182 218 212 241 189 96 128 166 208 159 175 157 132 103 109 109
31 74 90 83 48 -10 -1 26 184 149 89 156 285 194 171 211 211 187 227 250 261 302 268 281 340 374 396 394 390 401 267 229 194 153 149 228 218 147 101 153 170 160 132 106 107 104 109 128 130
72 75 42 22 17 -11 79 19 118 115 154 184 230 235 191 149 127 142 200 151 154 185 220 243 230 194 259 287 197 159 127 76 102 206 176 112 124 149 225 179 153 141 151 123 110 143 149 151 151
99 35 30 21 15 26 -5 29 186 87 117 183 238 143 184 212 206 254 194 134 120 111 148 172 176 188 150 132 122 49 95 131 129 127 137 166 280 238 164 177 168 177 170 161 138 138 166 231 256
30 14 17 -0 7 60 -19 41 161 57 150 161 163 129 139 119 136 144 89 79 81 73 115 116 97 86 76 6 39 127 85 55 85 110 243 304 198 167 159 171 158 161 172 143 173 261 288 284 302
36 44 39 43 58 33 91 53 157 175 299 225 159 190 185 127 137 95 135 185 156 103 57 49 95 97 94 155 175 100 78 195 278 281 264 202 157 147 128 111 110 117 144 187 248 264 241 222 157
5 13 42 64 76 71 38 55 205 210 149 146 131 122 56 84 65 102 100 75 102 90 62 104 122 77 110 185 224 250 327 325 313 279 183 148 127 110 69 159 176 223 289 249 282 252 215 185 151
9 40 14 47 52 64 12 146 213 140 75 88 41 11 51 91 103 84 10 72 88 99 93 147 139 130 84 194 307 415 411 332 235 181 123 82 119 163 177 168 177 222 224 239 236 185 172 151 131
13 14 28 66 76 77 73 45 95 78 53 51 149 123 106 63 55 71 36 91 111 168 185 179 209 274 326 342 421 353 178 177 149 124 85 209 208 171 149 183 178 193 206 209 157 137 98 105 110
54 97 65 51 94 109 117 97 76 128 152 165 104 71 109 146 101 56 114 206 206 204 191 171 290 401 387 402 358 175 162 135 126 132 244 255 227 173 164 145 126 118 130 130 110 87 92 115 109
70 102 84 100 129 170 143 74 128 166 236 94 91 78 136 234 250 240 189 167 152 162 192 279 335 268 313 226 193 161 144 165 185 208 215 183 111 80 121 99 97 116 108 106 89 89 72 82 85

GFSSGP_con_3kmhel_003.txt.gz
Helicity
19 58 69 45 32 -9 36 56 127 122 261 80 18 49 81 70 79 121 73 46 28 64 56 79 79 87 88 95 93 81 68 60 53 59 71 82 92 98 90 79 72 65 67 72 76 75 79 74 71
35 64 58 28 11 59 102 190 150 98 16 94 76 21 136 112 118 139 101 51 21 50 71 68 75 70 74 91 98 89 74 69 72 80 90 94 91 84 72 55 42 45 59 65 57 56 59 64 63
38 52 56 -11 15 43 48 91 77 105 60 41 115 222 99 29 69 62 93 146 86 75 66 39 58 73 92 96 99 95 98 86 79 78 86 76 71 59 51 46 46 52 54 43 33 27 28 32 32
77 63 78 -11 94 82 167 158 108 105 155 125 88 81 206 85 89 86 132 68 88 69 62 68 71 75 76 81 87 92 89 86 86 77 46 56 59 52 49 49 50 56 48 30 21 22 24 23 17
61 5 -45 4 114 45 55 18 56 53 87 68 110 119 68 77 35 80 111 47 37 51 66 63 66 77 91 104 108 103 83 71 50 38 53 60 59 53 58 57 59 52 46 35 30 21 15 18 20
-42 -7 19 99 23 -1 43 4 26 45 41 64 174 133 37 84 146 128 85 26 29 55 57 51 67 93 113 101 77 59 50 43 45 53 54 63 57 57 62 58 49 46 39 35 30 22 14 12 11
-27 19 85 162 77 63 134 79 37 -24 8 67 88 80 112 156 63 82 81 16 65 56 44 28 47 66 64 57 46 45 39 35 39 36 47 42 49 36 44 38 47 55 55 43 39 27 14 14 12
-2 17 71 29 91 74 72 116 48 85 130 9 24 71 169 75 45 85 81 46 60 46 28 12 33 23 -2 6 25 21 21 25 20 27 38 25 36 21 23 42 41 36 27 28 9 10 9 12 18
73 77 66 -25 -24 88 94 142 49 50 104 99 114 100 140 94 125 99 65 15 64 42 33 13 32 0 -3 -21 -9 6 10 9 1 11 15 5 12 4 22 39 30 19 29 24 8 14 6 4 8
58 58 24 15 56 56 20 59 30 62 77 119 165 221 183 137 101 56 11 50 82 67 101 68 50 26 -5 -3 0 -12 -9 -13 -24 -19 3 -20 -8 8 36 50 53 32 46 43 24 20 25 39 59
-5 32 26 137 74 7 43 59 13 41 35 65 131 141 128 79 60 66 40 66 95 59 127 105 65 42 37 45 9 5 -13 -22 -22 -1 12 15 24 5 28 49 38 45 36 59 49 49 69 71 84
48 50 41 66 109 108 96 38 31 18 22 89 168 170 136 76 66 33 20 63 98 123 199 118 86 63 29 33 29 29 31 24 47 32 44 55 53 45 50 33 21 33 44 63 68 60 56 71 80
73 69 92 53 98 153 94 31 38 12 60 43 130 161 149 106 56 16 41 87 92 167 230 182 87 54 39 65 66 88 97 78 65 82 85 92 79 49 34 20 24 25 41 54 66 73 80 107 107
66 80 23 2 35 21 12 17 -1 8 61 92 70 120 116 136 106 68 28 126 87 177 209 248 118 41 51 70 99 85 124 83 85 90 78 84 71 47 48 45 49 51 59 61 72 74 79 114 132
6 31 57 17 -29 -33 -7 -1 22 37 95 85 67 78 98 112 113 149 94 107 53 139 392 441 279 20 89 45 86 141 103 114 77 65 77 81 102 91 89 104 73 76 82 84 72 67 79 101 128
17 2 71 -24 44 -17 68 -13 -3 87 67 76 96 73 32 79 118 136 130 114 81 192 278 286 357 158 47 41 88 182 196 102 109 119 170 226 295 220 185 184 142 132 132 103 98 87 89 86 100
-21 26 -3 -8 55 54 50 -35 79 37 56 54 45 69 13 50 141 151 138 116 42 113 218 278 162 85 83 86 140 138 155 128 139 186 241 199 178 155 177 150 175 147 108 115 135 125 104 94 69
22 32 36 120 45 23 -30 11 65 24 50 36 -15 7 169 310 362 351 294 184 158 71 104 92 24 -62 -15 103 272 295 302 292 239 260 309 304 188 172 141 135 172 144 142 147 111 114 105 71 92
48 68 80 104 81 37 9 63 140 189 155 160 154 244 343 395 336 426 480 388 317 220 288 214 242 195 213 409 289 291 296 267 342 344 152 111 115 135 142 133 152 176 182 105 91 66 81 96 59
41 89 72 22 46 60 44 94 158 266 287 250 126 165 201 231 244 319 417 454 413 352 341 366 407 456 394 362 291 281 215 189 161 85 122 202 192 192 169 208 208 210 182 148 89 85 63 43 59
106 59 98 72 56 -10 14 133 300 282 324 420 375 205 117 114 192 260 243 268 281 270 184 185 182 224 254 236 205 217 214 203 191 164 150 108 174 254 305 265 258 244 203 168 134 96 91 73 61
67 73 58 44 45 25 21 134 266 350 405 452 425 414 309 214 162 124 129 159 183 157 113 85 84 109 134 153 191 195 166 148 84 73 116 217 309 309 258 223 208 175 140 171 165 149 112 116 105
27 22 16 29 21 45 53 62 224 254 284 296 264 163 128 196 179 146 92 78 87 103 86 60 85 115 126 84 73 83 46 52 103 186 256 245 246 207 161 134 112 128 119 127 122 117 130 131 148
39 62 55 36 60 56 22 62 315 327 268 315 222 203 188 159 128 127 119 81 37 19 36 46 35 -4 35 64 93 108 123 171 245 227 213 183 143 132 138 160 140 122 124 122 147 141 142 122 149
44 73 66 77 69 57 31 85 93 214 131 174 293 241 188 158 132 149 132 87 56 41 4 22 59 68 95 85 165 254 371 387 374 320 235 168 155 141 118 108 104 83 135 171 202 214 222 214 190
49 12 29 40 61 41 51 124 217 268 295 206 93 41 79 60 110 115 71 67 64 76 94 158 150 130 108 107 348 459 482 415 368 392 164 117 136 90 106 99 136 177 195 202 189 168 158 166 140
-7 26 14 50 17 45 60 101 136 67 82 15 4 -27 44 89 134 146 174 176 135 151 188 217 163 235 320 342 394 454 434 371 317 232 102 202 225 206 187 144 143 157 149 141 135 101 126 120 97
21 22 37 39 54 37 65 57 38 135 140 138 134 155 184 139 168 227 343 240 238 241 236 241 267 266 255 332 329 289 267 146 104 216 333 288 224 202 147 141 134 122 114 118 127 110 89 84 90
29 62 65 73 110 107 65 72 10 165 206 214 222 223 278 275 208 232 182 190 179 147 92 93 103 138 204 224 154 114 86 135 234 232 279 255 177 153 135 75 92 95 97 81 79 69 74 71 73
59 69 104 108 105 128 119 36 123 159 216 253 217 197 207 179 159 222 224 155 70 29 30 48 108 151 130 105 103 111 138 244 197 240 340 378 199 122 69 104 114 103 88 63 53 42 54 89 89

GFSSGP_con_3kmhel_006.txt.gz
Helicity
6 19 28 59 45 46 115 79 52 286 208 123 129 166 142 158 129 94 47 38 88 101 105 81 88 84 85 81 84 89 85 69 61 69 73 78 77 82 73 61 53 36 40 51 54 55 57 58 53
37 30 48 52 24 84 82 71 170 145 62 -6 70 94 234 149 115 80 88 19 115 116 73 65 80 86 90 104 111 98 79 67 74 82 86 85 77 61 47 30 14 26 33 25 20 14 21 26 30
17 46 20 2 9 87 55 53 -7 -34 60 3 -7 89 59 24 15 5 27 24 61 66 53 58 76 78 95 108 107 88 77 81 87 75 76 56 56 50 31 31 32 32 25 17 12 11 10 10 9
17 45 58 30 70 54 45 40 123 184 85 83 45 120 35 -14 -0 19 29 42 82 47 34 48 58 66 92 95 92 82 81 74 72 59 36 45 46 41 42 37 29 21 16 15 13 12 9 8 5
51 33 32 128 123 40 25 46 135 142 140 135 71 30 -2 53 109 62 50 72 81 44 39 48 55 69 82 84 77 78 75 69 45 29 35 37 40 42 36 25 16 17 17 18 22 16 15 17 22
29 56 23 117 91 225 28 29 101 227 182 119 72 76 32 -2 127 47 52 45 41 57 47 47 62 65 73 80 70 57 50 38 26 26 18 28 29 30 19 11 12 16 10 13 8 7 14 16 17
13 33 60 24 133 13 30 -2 57 72 53 71 29 37 11 81 81 51 26 30 46 47 42 20 34 53 59 49 43 47 38 20 20 11 12 10 5 5 -4 6 9 9 1 2 -17 -12 -3 -1 3
-17 44 130 87 -37 82 54 65 89 140 93 61 91 -0 13 96 49 43 15 43 42 16 13 10 7 6 12 17 26 15 2 6 6 -2 7 -0 -5 -9 -15 -5 -8 -0 -1 -5 -17 -22 -14 -10 -15
-8 48 60 22 146 130 36 151 109 45 63 28 -10 9 62 105 90 96 72 62 48 19 13 -12 8 -8 -6 -7 -13 -2 -7 -4 1 -5 4 -3 -27 -21 -14 -1 -7 -1 3 -5 -8 -8 -10 -2 -3
5 45 65 -5 30 44 40 87 73 119 146 123 169 146 88 123 137 122 94 72 39 43 4 6 7 -14 -8 -17 -16 -20 -24 -19 -9 -11 -5 -0 4 3 -5 4 -0 8 23 11 2 -5 -16 -6 29
2 -16 28 -10 -17 62 51 92 61 124 40 58 117 106 90 142 142 121 79 88 18 55 39 -2 11 -4 -3 7 -9 -3 -11 -19 -9 5 -1 15 27 25 27 21 11 11 12 38 23 17 34 38 58
-14 -53 23 79 14 74 65 96 70 6 13 88 140 128 122 121 132 97 66 58 125 115 95 21 23 18 6 45 31 26 27 5 -13 -10 13 53 51 49 47 44 33 34 47 41 40 42 48 54 68
17 38 66 90 114 103 78 67 59 39 53 141 177 153 103 95 91 44 39 65 173 159 126 64 79 59 67 56 48 53 53 42 17 20 35 59 69 61 77 60 37 64 71 68 54 62 64 54 47
36 76 51 115 102 87 53 44 58 14 134 222 229 158 122 109 69 31 55 103 213 203 223 156 151 71 180 94 106 101 134 98 77 49 63 63 100 103 150 129 100 126 131 101 104 105 88 73 71
29 31 20 11 -11 9 19 12 -6 33 111 197 169 172 165 133 134 79 56 102 234 291 293 237 207 112 95 110 153 118 109 117 109 114 149 138 159 184 226 256 232 155 125 126 126 125 103 106 90
21 57 25 -0 -36 -9 11 3 -1 17 127 137 103 149 129 112 91 35 72 97 214 383 298 219 262 208 140 98 115 109 129 183 187 221 231 256 312 328 264 211 144 128 132 189 175 145 108 122 119
27 64 46 25 5 -20 -15 -0 29 31 63 52 68 154 115 114 137 147 101 129 191 323 294 332 208 168 91 117 158 238 246 215 232 269 272 255 206 128 144 127 116 128 167 184 126 88 102 105 111
41 55 36 65 3 -10 47 6 36 5 120 149 201 236 287 327 333 318 321 212 185 237 305 217 135 97 108 225 272 297 249 249 279 205 149 185 208 149 121 139 190 178 196 188 160 138 104 59 37
8 9 29 94 16 17 108 163 225 225 270 303 343 345 413 484 491 403 400 363 369 327 308 197 44 91 216 278 294 243 221 174 263 278 223 153 120 127 156 172 229 223 254 229 186 133 126 111 79
22 56 115 108 69 37 181 319 267 303 306 288 337 373 299 362 412 373 382 347 279 269 272 233 200 217 226 206 168 174 182 223 180 154 166 252 230 222 205 242 260 285 236 212 177 144 95 64 28
121 107 70 51 28 99 178 310 321 369 385 412 371 293 222 181 178 175 178 174 203 205 107 81 95 137 170 185 158 165 145 131 173 178 171 172 186 159 198 225 217 186 156 165 153 141 132 90 26
49 98 72 68 65 72 28 233 279 309 396 344 305 221 174 138 63 47 52 94 99 26 -3 36 46 62 76 69 84 99 110 135 123 121 105 150 170 197 178 162 120 109 117 127 62 54 57 71 114
32 55 57 63 60 58 120 225 259 208 302 239 180 149 34 -79 -9 -11 -16 10 38 54 46 27 23 38 30 21 57 60 70 94 115 163 219 264 213 210 231 122 84 122 133 155 172 141 112 65 63
75 66 84 85 91 93 111 153 194 272 333 266 174 130 31 43 64 60 41 69 49 14 14 35 24 17 -3 27 42 56 76 148 236 239 267 283 280 262 298 159 160 124 97 77 75 95 126 138 146
87 74 91 101 106 96 59 116 115 231 236 230 225 121 57 53 90 91 92 62 44 50 50 54 47 46 84 102 150 207 286 357 379 406 340 215 289 172 236 236 191 133 92 82 95 104 105 89 126
28 22 27 35 45 50 106 112 83 179 236 115 129 67 65 146 95 97 146 112 170 224 223 199 170 178 233 290 360 385 379 338 276 278 286 151 105 210 185 177 165 135 102 112 129 150 163 172 163
21 26 15 39 25 58 70 135 74 108 146 195 48 67 139 212 275 259 248 249 300 257 202 173 155 130 147 173 184 200 208 195 157 47 67 61 184 198 171 197 116 89 93 106 132 185 226 162 91
32 6 3 9 45 89 96 111 117 113 189 276 238 214 312 353 335 329 320 252 249 180 125 94 116 134 104 146 192 184 122 90 71 118 141 221 248 240 227 154 108 63 11 47 90 125 147 98 70
1 -11 20 44 59 85 150 149 70 185 258 300 314 314 319 315 335 320 261 220 201 132 90 73 139 124 86 130 156 110 97 103 129 185 250 257 283 155 210 238 134 35 61 93 84 94 105 104 89
20 36 39 59 57 82 119 138 87 189 190 135 155 229 276 373 333 237 190 161 97 122 176 191 196 179 159 110 93 94 99 108 164 241 272 228 198 232 282 271 94 75 58 77 100 139 156 137 130

GFSSGP_con_3kmhel_009.txt.gz
Helicity
51 -3 52 69 34 48 143 68 47 111 179 78 84 58 99 103 71 55 -4 28 100 70 55 76 86 81 67 85 86 81 87 78 62 52 44 51 67 67 53 39 31 34 36 31 21 17 18 22 25
41 11 50 60 48 35 101 90 123 79 44 114 59 59 83 76 19 107 92 31 71 78 74 86 95 86 92 80 81 90 86 63 50 45 52 59 53 45 26 18 20 25 23 21 19 18 19 17 18
-16 55 48 79 41 70 84 46 80 0 -40 16 44 61 31 31 72 12 16 45 46 65 56 74 96 81 78 84 89 74 61 49 40 46 54 37 28 14 15 17 21 21 15 19 22 24 24 25 30
30 86 50 58 51 34 21 15 -5 42 96 190 22 -23 16 20 -37 -23 32 28 58 45 61 62 66 72 76 81 77 64 48 47 48 37 23 16 13 10 12 11 9 7 10 11 14 20 23 25 29
50 30 46 87 102 28 40 72 59 92 11 -61 4 30 36 -31 70 71 9 11 69 58 47 50 59 61 63 61 61 61 56 51 33 16 15 9 7 0 -1 -1 0 0 0 2 5 9 13 18 27
84 91 106 156 140 158 98 45 97 108 84 83 127 147 35 5 82 10 31 37 39 42 27 25 32 47 57 70 63 47 35 24 16 11 7 0 -9 -15 -10 -7 -10 -11 -7 -6 -7 -6 -3 2 17
92 46 80 128 203 214 192 53 110 129 42 36 61 27 5 -40 14 36 36 15 11 11 5 12 15 33 49 41 30 26 20 21 16 1 -17 -23 -26 -27 -22 -16 -17 -16 -16 -22 -14 -11 -16 -13 -13
8 94 88 2 102 214 248 2 -7 57 43 79 39 12 -58 -81 15 30 24 19 11 3 1 0 7 17 13 9 19 18 15 9 -3 -23 -34 -28 -22 -22 -21 -18 -20 -18 -20 -18 -16 -16 -27 -24 -13
-4 61 78 60 122 71 -8 -48 48 80 98 44 22 23 -27 44 60 67 49 47 30 1 -4 -20 -6 -21 -12 -10 -15 0 -3 -7 -16 -26 -23 -11 -14 -21 -22 -27 -30 -27 -29 -29 -26 -28 -34 -34 -23
-8 63 5 26 38 -57 -131 64 151 132 44 58 169 156 80 83 118 103 70 63 29 -10 -35 -41 -25 -27 -19 -12 -20 -25 -24 -21 -19 -7 1 -1 2 -1 1 1 -7 -14 -21 -31 -30 -35 -37 -17 3
6 58 28 28 78 21 6 36 111 164 64 14 106 85 40 73 93 107 63 61 6 -8 -22 -43 -31 -15 -13 -18 -16 -12 -9 -16 -11 19 24 17 17 11 13 25 25 34 22 31 29 20 20 20 41
40 56 21 29 33 48 83 73 92 60 0 -44 112 120 64 34 109 132 92 67 9 12 -11 -15 -22 6 -9 -1 1 5 17 9 15 27 36 44 48 41 45 62 78 85 69 54 50 42 34 37 42
13 -12 14 31 95 70 91 85 45 2 32 62 130 116 51 78 133 95 83 54 39 37 16 27 44 21 36 42 57 56 31 34 23 25 56 91 85 76 84 105 135 120 96 77 68 68 87 77 66
2 -2 43 89 123 82 82 59 37 16 90 140 175 125 96 114 119 74 49 54 72 82 88 96 77 51 42 62 75 101 59 45 49 52 96 114 92 118 135 163 157 111 97 99 120 121 143 153 117
42 66 76 60 97 68 29 39 2 26 115 169 136 121 113 67 72 96 98 107 142 121 151 132 104 59 54 74 110 77 67 77 94 115 126 139 153 169 189 162 157 154 129 133 164 173 139 129 116
54 38 -4 -17 10 33 22 -23 11 48 167 120 79 22 53 53 23 43 23 82 170 215 214 242 224 186 87 115 117 162 136 140 143 173 188 210 182 191 217 218 197 158 120 109 132 142 124 117 133
66 -50 -15 -10 20 6 -13 11 25 80 99 154 96 95 104 118 145 127 68 81 149 245 374 361 280 235 99 86 128 227 203 220 194 225 240 252 240 237 230 154 133 122 92 197 188 163 148 144 168
1 7 27 -16 11 21 -6 -5 118 172 183 194 235 235 254 267 246 218 209 199 273 303 431 400 292 188 113 126 289 272 251 217 196 245 282 281 238 236 174 140 124 129 203 254 226 184 192 168 153
40 30 49 16 27 105 60 148 182 218 215 312 354 399 417 401 323 312 336 239 300 308 281 230 197 165 177 205 230 175 128 181 204 245 234 235 165 123 138 136 185 184 205 193 189 167 155 129 111
29 22 50 124 115 165 200 266 205 253 233 262 362 395 386 406 411 340 267 246 274 242 226 179 175 192 163 149 133 118 104 137 185 177 136 104 110 119 149 151 121 141 172 242 220 155 109 69 83
63 59 65 100 154 201 300 282 298 274 279 306 292 219 223 192 136 131 131 137 164 179 149 97 50 46 70 70 64 84 95 101 109 130 131 143 148 171 163 155 151 154 167 187 148 132 111 66 55
96 117 128 129 128 96 132 191 231 244 251 232 214 161 98 2 2 -38 8 72 90 62 19 42 63 67 69 55 55 59 60 72 80 87 90 133 167 184 183 240 184 250 148 79 75 116 114 122 163
53 100 100 92 136 169 197 215 219 247 242 179 133 61 23 -43 -24 -38 8 -4 17 23 48 58 72 76 33 40 44 34 40 101 169 203 249 259 259 301 318 237 187 171 107 110 73 64 86 74 73
75 78 111 114 125 154 169 211 186 240 232 203 117 65 -30 27 -85 -57 -8 7 30 54 70 77 83 78 76 84 110 144 183 218 264 276 288 268 227 216 180 178 180 74 170 91 67 110 128 112 115
76 79 79 81 97 92 156 173 136 60 212 102 20 -11 -9 -10 -5 11 135 160 157 138 121 136 139 139 144 186 231 268 261 216 189 200 260 231 212 253 173 219 176 189 159 144 138 125 104 98 102
80 58 55 24 22 56 114 105 103 153 163 24 28 66 132 162 180 289 255 238 214 191 190 177 161 167 175 180 185 213 206 221 241 228 227 187 169 158 212 170 235 345 71 126 139 124 93 106 137
29 52 31 64 61 64 79 138 134 195 260 218 246 263 238 213 326 404 364 293 254 213 188 181 183 202 210 181 199 195 172 185 199 160 143 121 156 167 206 328 351 177 52 79 72 75 22 80 126
32 16 20 37 46 56 79 126 149 183 185 167 192 278 332 374 427 398 352 294 251 220 200 205 235 269 204 170 147 145 165 145 129 138 159 187 181 205 284 226 125 68 226 79 37 29 55 93 118
39 11 26 25 33 54 72 79 112 197 224 218 251 305 390 397 373 398 377 297 227 173 201 210 253 224 177 162 144 147 136 123 119 142 162 177 229 273 231 269 254 151 81 68 36 33 67 111 111
22 11 21 40 30 64 92 74 83 206 243 296 298 288 332 421 435 392 308 220 158 167 127 150 189 170 121 96 84 78 62 66 82 94 148 250 278 314 279 228 97 54 78 53 58 60 113 125 147

GFSSGP_con_3kmhel_012.txt.gz
Helicity
23 20 42 84 158 122 151 90 46 83 100 61 71 98 72 47 128 108 40 29 16 9 14 44 57 66 82 73 82 86 74 68 55 44 37 35 38 33 26 25 25 32 41 41 33 29 29 23 27
39 55 97 109 56 72 187 46 75 52 12 52 83 142 217 96 -1 21 124 60 59 38 32 36 56 80 72 72 79 78 66 54 38 27 19 25 16 17 21 21 17 26 32 35 36 37 37 34 34
47 56 71 48 45 60 150 55 119 35 56 -36 123 92 -2 5 25 46 69 67 73 50 17 37 62 66 69 72 82 62 56 40 21 11 15 14 11 10 11 15 12 23 26 29 34 37 38 37 36
49 92 82 74 -7 65 112 42 139 80 6 10 16 21 16 -15 12 14 60 61 70 6 9 37 50 60 75 71 61 62 49 33 18 16 14 10 5 2 3 2 9 17 20 21 23 26 27 29 28
107 103 95 46 75 40 70 80 42 -1 -13 -46 14 -37 -72 32 38 78 76 42 29 1 18 20 40 56 61 57 56 54 46 29 18 6 2 -2 -7 -14 -14 -4 3 5 12 12 8 8 9 5 2
101 90 71 78 69 75 170 83 63 6 38 29 -3 4 20 29 66 46 39 8 -8 16 2 1 24 46 48 51 55 41 26 11 12 2 -5 -14 -27 -27 -15 -10 -4 5 2 1 2 -2 -3 -4 -7
89 118 71 113 124 219 222 61 40 68 -5 -26 24 28 39 47 34 20 13 -1 -12 -6 -6 1 18 30 40 38 26 16 17 6 -3 -16 -21 -31 -39 -31 -22 -10 -5 -7 -15 -20 -15 -14 -16 -12 -12
108 106 93 137 186 75 135 80 -5 -43 -37 29 61 12 13 14 28 15 -6 -19 -29 -23 -10 12 8 7 8 0 6 12 5 -9 -18 -20 -21 -21 -17 -17 -20 -19 -22 -23 -29 -29 -28 -23 -20 -19 -20
60 131 77 83 118 151 290 -44 -7 21 91 78 18 21 26 75 32 12 -8 -21 -21 -26 -16 -19 -2 -13 -21 -18 -14 -2 -3 -9 -10 -10 -3 -7 -15 -11 -10 -17 -27 -30 -24 -31 -41 -40 -35 -37 -38
24 70 26 3 58 62 61 -54 -2 52 111 50 65 126 109 72 52 30 18 8 -1 -14 -28 -19 -23 -25 -24 -22 -21 -23 -19 -20 -16 -5 -3 -8 5 6 4 2 -13 -17 -15 -28 -37 -30 -28 -18 -13
-7 67 29 28 12 -54 -8 7 19 110 26 -9 74 99 57 33 23 58 26 14 -8 -24 -24 -50 -32 -31 -22 -23 -29 -31 -24 -10 -5 -4 -3 12 24 26 28 35 17 19 33 24 17 14 14 6 5
46 23 -11 -94 19 -50 66 91 60 50 -15 17 75 101 25 24 11 44 54 2 9 -9 -23 -26 -25 -20 -25 -22 -14 -14 1 2 4 1 28 55 65 64 62 63 52 40 56 59 48 42 37 46 59
-6 -37 -4 -4 56 34 83 44 9 -13 32 100 76 54 21 38 20 22 67 3 8 12 -14 -23 -9 -6 12 18 17 8 8 18 18 30 67 90 87 84 78 71 84 96 92 95 86 84 82 101 110
3 -6 42 37 98 96 93 61 45 -10 42 123 99 56 36 76 64 -19 5 -14 -3 -2 3 8 2 1 15 0 20 -4 -2 21 38 61 90 87 83 93 81 117 170 154 138 108 108 93 105 137 120
27 56 77 126 114 110 91 52 5 16 55 103 65 25 -13 2 -25 -15 -3 -4 25 27 75 74 102 86 64 20 31 39 -13 32 56 78 86 73 111 155 195 213 188 161 138 119 122 138 146 176 192
53 42 29 21 52 79 40 -2 78 31 106 66 66 58 48 67 24 -33 -10 -13 19 113 182 225 193 225 181 82 70 89 126 56 119 147 157 166 217 224 207 187 165 115 123 117 171 171 187 232 246
56 35 28 -9 20 12 22 20 87 55 86 108 127 115 89 101 95 82 37 26 127 220 298 333 303 389 346 86 68 147 259 185 184 183 170 197 203 151 147 121 163 52 95 193 152 162 184 206 219
16 -24 0 -15 27 71 38 50 84 142 105 135 156 166 149 146 138 134 123 166 257 355 420 371 348 351 232 93 204 237 228 176 159 137 133 139 153 170 138 90 160 186 158 172 162 164 152 139 166
12 21 28 33 34 100 51 46 103 153 189 154 187 212 219 222 204 194 198 193 273 314 364 285 240 131 105 155 141 116 79 67 79 97 131 161 135 143 165 178 175 161 169 155 169 139 186 157 151
47 49 45 89 174 131 105 129 134 193 152 141 162 205 218 227 235 227 202 169 159 135 144 87 68 50 64 44 36 26 39 45 94 125 166 180 174 153 154 155 164 163 139 180 204 153 120 93 89
67 65 37 71 172 142 128 137 145 176 173 181 181 135 117 97 91 76 80 63 34 40 -6 21 50 54 65 88 81 77 78 105 125 144 158 182 205 207 197 197 183 111 115 141 109 90 123 131 63
49 60 63 115 121 96 102 96 121 159 193 176 130 108 104 76 71 41 62 56 57 78 85 87 98 107 95 66 73 85 91 112 137 158 179 220 212 187 164 165 185 157 174 212 154 132 117 83 173
54 89 100 99 123 128 151 146 161 213 196 163 90 81 77 38 -9 66 32 26 39 107 108 74 90 93 88 102 111 119 148 171 189 209 203 158 172 177 192 220 184 191 203 219 211 174 164 83 75
55 97 129 124 118 112 138 183 162 224 171 208 164 89 30 6 10 192 104 42 72 110 115 104 135 124 113 137 156 179 207 203 228 232 236 252 253 203 179 178 199 235 262 219 165 176 209 100 125
81 102 91 82 113 103 143 188 133 61 138 165 80 9 54 60 145 117 95 112 156 158 159 163 169 186 188 210 216 201 190 199 208 224 251 256 236 207 174 234 302 343 353 261 316 287 62 136 160
89 84 97 -3 11 24 84 62 110 31 94 99 18 53 97 96 132 179 184 219 271 279 246 212 202 190 168 182 203 189 175 178 185 206 207 185 180 157 196 242 313 326 214 110 64 -7 44 84 73
65 86 60 56 4 14 57 82 77 103 115 185 154 188 164 154 200 267 245 292 295 303 256 208 158 139 142 148 171 172 151 160 156 149 138 156 160 206 254 351 320 133 162 153 115 95 66 87 85
42 37 42 64 25 29 21 51 84 107 147 181 199 186 185 231 287 285 318 355 344 325 243 223 115 109 104 138 168 142 135 139 131 108 108 119 147 212 262 288 221 209 111 45 65 98 69 74 101
66 42 52 39 39 32 19 20 46 134 179 240 201 199 255 298 317 392 427 419 338 285 220 103 196 141 143 165 127 125 108 97 85 90 86 95 119 162 239 242 215 162 134 117 111 89 85 98 112
43 26 30 38 28 61 65 52 29 58 144 258 220 249 284 328 415 441 395 335 284 187 119 159 82 72 145 118 90 82 81 70 59 59 68 80 108 157 201 232 200 165 124 138 127 103 102 126 132

GFSSGP_con_3kmhel_015.txt.gz
Helicity
31 30 25 51 67 137 151 131 103 118 107 106 123 172 173 162 178 176 -8 -36 58 45 2 -1 39 59 57 66 80 87 88 65 43 40 41 52 37 24 23 23 28 35 39 39 37 38 35 38 42
31 43 60 64 55 103 144 97 146 196 42 42 98 112 132 188 97 56 -44 13 85 50 16 10 28 52 55 69 76 77 68 39 33 33 35 24 17 16 17 20 20 25 28 30 31 27 27 31 30
46 56 64 62 75 69 85 78 198 237 152 51 7 44 59 118 98 15 -8 65 89 47 16 8 29 47 59 57 54 64 42 29 36 27 17 14 15 15 10 6 7 18 23 26 25 25 25 20 18
61 70 70 66 25 26 75 92 112 94 88 39 -16 -67 -7 25 -23 -16 37 -4 59 12 -2 5 32 46 46 47 53 54 30 35 32 15 8 10 7 2 -3 2 5 15 16 13 11 9 7 6 -1
86 70 65 39 28 78 58 46 50 83 95 45 28 -11 -52 -60 27 81 65 28 27 -17 -18 8 29 33 41 43 46 43 43 38 14 -0 -3 -5 -7 -8 -8 -3 3 6 6 1 1 -1 -1 -3 -6
94 76 63 93 77 73 99 61 117 52 2 -97 -59 -8 -13 45 37 47 40 13 -20 -3 -15 -5 12 31 38 41 53 50 28 12 1 -7 -15 -14 -10 -11 -4 -7 -4 -5 1 2 5 2 -6 -14 -12
85 75 44 107 91 146 166 89 117 35 -11 -18 2 14 24 38 32 25 -3 -32 -29 -19 -9 -3 6 21 48 52 33 16 6 -1 -11 -18 -14 -6 -11 -9 -11 -9 -10 -14 -11 -5 -6 -12 -11 -13 -17
76 81 66 118 159 264 239 136 66 -8 18 32 4 -22 39 44 7 -6 -21 -32 -30 -25 -16 -4 10 25 19 8 7 -0 -10 -15 -22 -16 -5 1 -7 -6 -0 -8 -18 -21 -25 -28 -23 -15 -17 -16 -16
64 91 74 107 191 171 212 162 -54 -64 11 28 -23 16 51 79 28 -2 -14 -24 -21 -21 -7 2 3 -4 -12 -13 -14 -16 -19 -20 -23 -15 -1 -2 -6 5 8 -5 -29 -33 -27 -18 -15 -11 -15 -17 -22
61 70 48 41 117 80 127 -19 -18 -26 15 -18 40 84 107 59 22 -9 -32 -33 -20 -10 -8 -13 -18 -19 -30 -36 -27 -32 -25 -23 -22 -9 -1 6 11 10 10 -2 -12 -12 -1 10 15 24 10 1 3
-18 36 35 18 -20 21 -46 -46 -14 -3 -37 -37 37 94 45 21 7 -1 -19 -13 -5 -3 -21 -21 -20 -25 -29 -38 -36 -29 -19 -22 -5 2 13 27 33 25 22 19 28 42 55 64 58 59 46 38 28
-20 -3 -31 -49 -53 10 -1 11 -30 -28 -12 -12 87 116 56 17 11 19 23 14 8 -6 -8 -16 -30 -25 -27 -27 -20 -13 -15 -10 2 16 35 48 46 47 49 55 71 84 88 94 107 90 72 64 75
50 21 -49 -36 -77 47 55 14 -7 -12 13 61 63 30 30 -1 -24 -22 -27 -46 -13 -1 -24 -24 -13 -18 -10 1 -5 -0 4 28 36 36 32 48 55 69 77 93 103 109 119 117 135 112 90 119 140
28 4 -9 9 30 39 29 28 -10 -0 7 58 40 15 10 4 -0 1 -13 -46 -7 -27 -14 7 22 19 23 24 23 21 13 28 49 59 53 32 58 85 108 123 127 136 130 143 120 114 106 161 173
11 34 29 61 75 52 63 61 24 43 26 37 24 -17 -9 -35 -20 26 1 -62 -44 -18 39 81 86 70 94 98 78 34 33 76 78 120 98 119 101 109 119 133 149 151 150 152 162 135 144 196 187
22 39 46 72 75 86 10 9 38 92 -21 37 53 23 5 -16 -20 -8 1 -50 -10 34 101 149 154 183 199 186 97 -19 30 18 93 81 90 103 94 119 128 150 170 211 198 126 111 150 178 189 193
66 27 23 53 92 50 34 9 86 84 17 46 60 64 43 35 47 62 37 11 28 76 158 209 213 245 264 314 180 59 36 66 54 46 53 81 94 129 146 184 191 157 138 159 150 167 173 191 176
20 45 11 21 54 86 54 33 100 82 37 52 71 97 100 86 82 75 90 94 119 161 200 244 234 280 199 192 124 80 40 50 70 79 96 114 140 164 181 160 150 149 151 158 146 160 154 144 141
30 51 32 57 47 68 58 40 62 69 78 60 64 90 109 121 129 110 129 113 148 148 159 176 212 118 130 116 73 43 51 69 108 121 148 165 171 174 163 139 144 138 136 125 109 119 143 149 166
44 35 34 62 78 58 44 62 60 78 80 60 58 93 122 164 190 168 153 159 160 97 95 100 101 79 63 26 22 31 57 91 135 145 167 179 182 183 168 149 138 133 145 166 180 182 174 156 173
71 36 3 25 127 118 59 40 55 79 99 93 95 104 129 125 145 103 66 32 -1 -24 25 62 56 19 18 34 56 80 120 128 115 139 164 170 153 148 151 146 162 176 163 186 226 233 221 204 178
38 35 53 62 72 69 64 -3 60 86 116 116 117 132 136 121 84 59 36 56 124 22 25 53 56 54 77 62 76 95 99 113 150 183 176 180 204 185 164 157 135 139 172 211 221 225 218 191 228
21 56 72 73 86 60 86 67 87 148 127 140 133 157 134 146 172 98 41 38 14 1 64 122 128 144 107 112 114 121 141 150 182 204 205 199 195 149 151 149 168 177 206 252 260 236 198 170 244
9 109 124 104 97 57 92 101 91 190 155 166 160 179 135 148 94 59 93 78 62 143 148 176 217 235 213 205 185 161 153 161 184 194 191 183 168 151 152 154 167 215 255 274 274 207 122 115 133
65 102 73 48 72 70 107 113 104 129 107 162 163 122 129 104 80 84 121 105 169 186 212 277 282 254 194 153 145 141 137 154 177 177 154 134 134 133 145 161 240 292 296 223 158 121 109 96 100
81 76 88 42 42 23 66 30 51 45 90 108 84 87 91 71 67 92 156 165 176 242 323 293 278 238 187 140 121 121 155 167 142 118 114 116 122 127 132 183 277 310 228 181 65 48 88 113 114
65 86 98 99 47 -0 7 22 8 79 135 164 227 224 172 137 120 143 202 228 252 289 283 241 252 244 211 166 102 133 153 121 98 85 78 95 93 111 124 184 240 232 174 121 104 120 124 107 78
59 69 56 61 2 15 27 47 48 28 72 117 176 201 189 181 180 198 258 267 288 264 255 230 204 152 163 58 92 125 92 71 61 75 80 75 83 103 127 163 180 194 164 114 107 116 99 94 96
64 58 78 61 49 14 4 4 20 9 77 100 123 173 203 190 200 255 296 326 305 270 206 179 147 102 113 87 140 125 94 72 67 66 72 83 87 106 109 132 165 172 182 130 96 109 114 100 96
59 52 49 29 16 57 51 20 20 -13 12 49 114 184 204 211 262 315 308 318 302 243 212 144 52 130 79 129 120 106 98 84 65 62 71 81 88 97 122 152 181 177 134 93 93 135 135 100 102

GFSSGP_con_3kmhel_018.txt.gz
Helicity
22 23 22 28 32 50 71 72 136 105 149 125 176 217 301 362 269 184 44 71 52 39 32 24 18 15 23 52 69 66 62 65 56 40 38 28 32 42 35 26 18 18 18 20 24 27 28 31 32
39 33 32 40 35 47 50 98 100 143 88 105 190 198 207 239 158 73 58 14 25 47 39 37 17 18 33 58 58 54 61 60 44 37 35 33 40 31 23 11 5 8 12 13 15 19 20 18 22
39 32 32 30 5 19 51 81 136 123 121 162 123 90 109 117 105 28 0 32 84 30 53 36 21 30 45 45 41 56 54 54 56 41 27 27 25 19 9 2 0 6 7 3 6 15 16 13 13
41 47 40 10 4 59 33 83 86 81 16 48 13 -16 -50 -74 7 11 10 32 65 38 34 32 25 34 35 36 46 50 53 60 49 30 22 20 10 6 1 -4 -2 2 5 6 11 13 11 3 2
51 47 21 15 38 55 66 65 103 68 15 22 -14 -7 -94 -186 -76 -36 37 103 -25 -27 -10 18 13 22 25 31 50 50 56 47 29 22 18 7 4 2 0 -1 3 3 -1 -2 0 7 10 7 4
47 58 25 5 36 53 37 59 43 72 31 19 56 15 15 -26 -60 29 28 -22 -3 21 -14 -2 0 18 25 41 45 52 52 24 15 14 -1 0 0 -1 -3 -3 -6 -5 -12 -6 3 12 13 13 12
48 22 25 44 64 89 96 51 102 72 20 -7 -13 7 26 20 -11 24 28 6 -29 -8 -1 2 0 17 43 43 44 38 20 13 9 -11 -14 -4 -4 -8 -6 -6 -7 -11 -10 -10 -5 5 11 12 13
77 57 47 22 65 109 145 123 113 52 57 -22 7 -12 23 42 24 8 -11 -36 -22 -4 -2 2 11 21 29 20 22 19 10 -2 -15 -18 -7 -4 -1 -5 -1 -6 -1 -4 7 -2 -8 5 10 11 5
78 41 21 50 42 98 107 161 65 16 18 -6 -10 14 45 85 16 -17 -33 -32 -11 -10 2 14 19 21 8 3 8 1 -7 -12 -15 -4 2 -5 -1 0 5 19 4 14 8 11 10 19 23 10 -7
54 42 25 29 67 56 68 58 -8 -39 -15 -7 32 51 83 44 13 -7 -5 -11 -11 -4 -2 8 11 8 -8 -9 -8 -9 -6 -16 -8 -3 2 6 12 10 -5 9 31 46 38 38 41 49 27 13 36
17 19 50 18 4 15 13 -83 -22 -63 -34 7 47 78 47 10 -12 -14 -17 -21 -11 -15 -1 -6 3 -8 -15 -9 -16 -15 -9 -2 2 13 22 29 22 18 17 28 40 53 66 67 69 75 89 75 41
-57 18 48 5 -11 -30 -40 -13 -38 -34 46 -5 70 83 50 4 -19 -12 -2 -3 -3 7 4 -9 -8 -8 -9 -15 -8 2 6 14 23 33 39 31 40 49 46 47 54 60 74 73 75 92 111 78 63
25 48 31 -15 -44 -8 -6 -24 -10 7 26 29 57 26 15 -8 -17 -13 -13 -10 -2 -7 -12 -2 1 0 3 14 20 20 24 26 33 45 50 56 48 73 49 61 66 77 82 93 96 120 104 81 95
47 43 5 -47 -19 -15 -17 -5 -29 11 26 30 34 -3 -20 -18 -13 -1 -34 -24 -23 -20 -4 11 13 19 41 60 59 52 29 29 46 83 93 112 120 79 44 77 91 100 102 117 127 135 120 119 103
15 -12 13 15 13 -8 -14 1 -2 42 24 7 18 -20 -39 -45 -38 -45 -51 -43 -23 -10 21 31 51 80 113 137 132 143 -13 15 78 64 121 154 103 88 100 114 88 115 139 123 126 107 97 107 118
-9 -7 11 35 26 20 -38 35 -5 46 -14 -3 19 -1 -11 -20 -29 -28 -32 -28 -11 11 37 69 97 129 171 174 182 86 55 -6 25 16 62 65 64 82 77 86 133 159 140 119 110 114 113 130 118
-9 -5 23 58 77 28 -34 31 32 45 -6 9 10 9 11 0 -9 -8 -2 19 29 38 77 100 158 178 252 220 216 96 85 48 37 23 36 67 90 105 127 160 170 149 138 135 124 133 121 101 100
0 28 1 36 55 -12 6 11 58 39 4 20 33 36 44 36 24 15 32 45 57 73 81 135 163 204 216 134 147 90 56 43 41 55 81 101 126 133 134 153 159 139 144 142 148 118 130 84 85
39 13 30 23 45 13 -1 14 68 33 20 22 41 49 52 50 62 68 75 98 108 108 107 113 122 103 105 78 86 63 53 54 59 85 105 98 104 121 146 161 149 143 148 152 137 125 121 130 180
20 35 38 36 20 40 4 15 34 41 48 44 35 36 47 79 96 125 118 110 116 131 126 92 70 74 63 70 84 72 54 71 102 108 111 127 149 183 183 183 180 167 142 131 128 123 123 97 149
36 34 13 12 58 49 6 4 28 57 66 71 62 64 68 83 120 124 110 85 89 100 55 35 75 101 95 81 73 70 87 84 83 110 135 174 189 196 177 161 148 140 121 111 115 115 114 123 133
22 41 8 9 11 -5 16 6 60 63 65 73 81 84 100 121 163 159 90 74 78 97 73 114 153 136 110 91 105 119 117 122 126 147 174 181 170 170 155 144 124 113 111 125 136 160 159 184 217
38 7 19 9 16 36 46 13 103 69 74 114 147 157 174 199 173 126 126 98 95 95 130 126 138 180 167 149 154 147 153 129 112 142 152 156 144 126 129 132 121 118 131 156 149 167 191 190 187
32 32 54 36 33 6 58 27 43 45 50 137 166 175 205 207 193 172 127 114 86 117 138 132 182 202 207 214 209 202 189 166 163 172 170 151 128 127 111 128 114 127 148 162 168 180 171 140 108
9 -51 -21 -8 -1 3 79 34 6 68 84 123 158 179 193 199 178 154 102 96 89 150 154 196 210 228 212 225 214 200 200 151 124 156 139 114 112 111 108 114 120 140 161 202 235 195 118 111 140
-37 -14 -2 13 20 26 48 18 51 68 77 85 100 128 163 162 141 116 105 117 136 177 195 201 215 238 239 200 175 162 119 91 127 118 110 100 103 103 98 96 102 126 139 224 177 123 133 134 118
42 19 95 59 46 4 -5 10 -18 59 51 74 155 216 201 143 138 131 146 158 182 206 234 234 265 283 304 257 223 60 95 110 126 82 72 91 82 86 93 97 108 128 122 146 120 118 135 118 112
72 84 34 30 -2 0 11 27 3 27 63 94 172 195 165 148 171 174 177 202 212 263 311 306 308 319 291 182 23 117 122 108 80 74 86 76 76 81 92 92 110 100 103 75 98 123 86 113 109
68 47 59 54 45 31 43 28 42 26 36 64 99 132 144 155 178 181 210 230 276 290 321 317 314 249 122 1 89 105 142 94 92 93 80 70 69 77 84 95 101 129 147 122 87 67 64 73 84
65 34 38 14 17 47 40 3 37 20 25 37 56 93 106 142 177 204 237 273 315 314 279 305 239 96 67 98 138 172 109 111 102 88 76 81 77 81 85 91 97 112 103 58 52 62 93 101 73

GFSSGP_con_3kmhel_021.txt.gz
Helicity
11 3 7 2 28 32 18 -17 75 93 196 202 176 167 302 223 223 159 158 166 139 73 60 36 39 40 41 36 52 71 70 67 67 62 41 33 30 31 28 16 6 9 14 17 18 21 21 21 18
8 23 9 -15 38 -1 7 47 104 215 93 130 156 196 340 275 144 80 128 73 67 83 55 30 46 49 40 38 57 71 68 65 62 53 31 31 31 22 12 6 1 5 6 6 11 14 17 18 11
41 10 -8 16 0 -3 43 90 157 163 24 67 93 141 143 213 132 88 63 104 96 52 25 50 44 51 30 40 62 78 74 60 55 39 33 34 20 16 13 7 2 5 7 10 12 17 16 20 19
21 25 15 31 -15 13 52 98 122 49 58 26 43 48 58 62 71 39 30 31 45 68 93 61 54 36 29 41 72 77 69 68 62 45 34 23 10 13 9 1 0 12 15 12 12 11 14 13 12
19 -3 -3 -4 -27 60 55 87 63 13 76 64 -6 40 29 60 93 96 105 109 142 105 53 16 32 30 36 51 69 83 76 74 63 41 27 12 6 8 2 3 8 9 9 9 7 6 16 16 16
10 -19 -14 -18 7 46 16 151 9 101 52 28 69 24 -2 11 17 84 92 219 177 33 11 22 -3 26 42 69 90 81 77 63 45 26 15 13 7 4 3 4 4 1 2 4 3 15 19 23 19
-16 2 -12 12 98 25 13 221 103 48 21 49 13 -3 31 22 4 40 39 105 1 -17 -32 25 32 38 61 79 76 79 58 38 27 15 13 9 12 7 3 0 8 13 11 4 1 1 11 15 7
2 25 1 20 83 -3 68 60 95 165 169 28 -12 9 1 37 61 100 46 17 66 32 -21 13 15 15 39 66 84 52 32 25 18 10 12 7 8 8 1 15 26 20 11 3 -3 -2 -5 -15 -3
28 10 -17 21 88 60 36 43 78 79 61 -9 13 11 55 106 48 47 16 26 25 37 55 6 9 18 18 35 33 25 18 9 -1 7 6 0 -3 11 29 48 31 25 23 23 19 13 1 -14 25
5 -22 -15 81 109 129 62 69 94 74 80 -5 -2 52 80 39 25 28 25 15 23 39 54 73 102 74 39 16 3 2 3 -12 -7 4 7 2 23 24 21 30 36 36 34 36 32 26 8 12 51
12 19 65 26 78 45 21 9 23 22 0 -3 11 42 63 23 10 7 19 25 40 53 46 39 33 15 10 7 -11 -12 -8 -1 11 23 21 43 32 30 16 27 29 37 49 28 38 56 53 92 61
32 28 29 16 1 51 35 18 -5 246 65 32 54 47 33 9 0 4 16 6 28 19 36 34 18 -2 23 4 -6 11 16 19 17 31 37 51 30 53 55 39 48 39 52 57 61 63 91 68 47
30 16 26 35 12 -6 -1 11 118 12 -10 52 53 17 17 26 15 18 3 15 33 32 39 12 9 27 20 17 37 48 49 67 60 60 67 84 96 124 97 184 39 48 75 66 74 87 122 94 63
4 25 31 8 1 10 -16 20 32 40 33 59 61 28 17 11 18 13 4 19 15 21 25 24 30 36 31 69 84 81 50 40 51 56 94 166 89 101 92 66 37 84 101 122 127 162 89 106 108
44 55 -15 -28 -7 -2 16 -2 46 30 28 41 32 27 21 31 23 33 16 11 4 6 39 38 63 71 100 143 148 178 152 43 -28 17 42 67 107 51 64 94 58 110 124 115 131 144 141 138 127
50 38 -12 21 27 10 27 53 38 16 11 19 27 25 14 23 13 17 7 6 9 26 62 70 76 108 128 169 200 211 52 -85 -92 58 88 64 90 71 79 71 124 135 109 147 173 144 151 107 124
19 -37 12 56 3 25 32 27 73 11 -1 21 28 44 33 29 19 18 3 18 27 46 83 108 98 184 168 231 205 146 34 14 22 48 64 64 62 73 81 129 148 110 138 150 119 138 102 121 111
8 60 43 33 18 -5 -12 70 65 24 13 19 29 32 52 44 42 36 21 26 18 61 120 116 135 162 219 179 128 94 46 29 44 35 61 48 75 85 87 120 120 112 126 133 171 120 122 117 102
28 -9 5 59 29 -27 -4 36 24 25 9 24 21 34 47 48 74 53 65 76 81 115 129 165 146 146 144 94 87 95 82 68 67 77 77 73 88 80 89 116 116 126 133 157 113 105 108 114 114
20 5 51 18 4 42 5 16 56 10 12 27 25 35 34 56 86 80 90 86 97 118 159 122 91 90 62 69 90 56 79 81 95 89 76 85 102 139 135 157 162 192 150 128 124 142 134 121 110
11 13 28 15 28 29 15 34 41 22 30 14 12 30 44 73 80 105 107 111 131 132 120 89 74 52 65 160 127 126 122 83 77 87 90 128 156 173 162 160 154 138 125 130 139 141 172 135 161
-1 35 -12 5 55 34 21 19 51 87 73 76 63 49 76 98 119 120 108 147 104 74 61 74 83 134 103 81 111 93 101 128 200 166 183 127 137 123 124 130 128 134 126 127 129 141 257 139 181
72 11 12 0 22 -4 -5 -4 198 -20 75 84 100 93 108 136 144 148 190 179 139 110 114 139 147 129 136 178 169 179 206 175 189 184 154 119 135 158 153 140 153 141 119 129 169 185 179 182 165
28 24 3 8 11 -1 19 -10 77 71 36 101 101 133 145 174 181 211 272 231 143 150 138 155 152 175 205 258 294 302 255 245 217 162 127 191 201 162 135 143 137 123 126 123 157 195 203 187 184
1 -7 5 -13 9 -5 39 38 8 22 81 62 172 115 146 169 201 279 266 174 138 153 140 176 187 218 242 276 297 305 338 358 352 105 183 168 153 127 128 132 122 118 123 151 216 292 150 91 166
-21 28 3 28 13 14 82 22 43 145 112 38 158 115 117 119 171 201 180 163 160 138 165 191 203 244 279 312 441 410 260 202 65 197 158 140 115 114 123 111 99 92 107 157 205 154 69 114 129
7 -3 57 48 46 22 8 8 112 67 64 42 119 118 133 131 172 181 163 172 173 158 167 199 228 301 353 411 291 220 110 96 109 158 125 117 105 108 109 91 81 93 137 128 118 112 82 111 185
28 77 28 37 36 6 19 -4 45 35 22 36 96 130 125 114 144 166 185 194 195 169 196 238 286 372 309 260 228 76 67 73 133 116 122 117 107 87 80 87 99 104 129 118 88 95 84 100 149
34 9 38 74 69 17 31 38 102 42 28 35 40 110 124 102 133 144 192 199 206 226 252 278 342 332 239 258 97 104 90 146 112 117 124 103 85 68 78 91 109 114 104 113 90 37 53 79 83
82 32 21 8 10 44 59 27 38 58 14 34 45 84 114 102 113 173 181 199 219 269 272 306 379 343 246 197 156 109 132 138 128 110 95 96 82 86 84 92 89 90 111 136 94 66 75 73 88

GFSSGP_con_3kmhel_024.txt.gz
Helicity
21 11 13 35 50 45 26 15 -5 139 160 218 142 175 205 150 169 202 51 208 244 166 119 101 74 46 54 62 61 72 75 64 54 55 44 30 35 38 35 29 23 13 13 11 11 12 9 9 5
20 23 29 40 53 57 18 30 136 210 174 157 221 153 190 200 103 154 245 201 184 180 109 100 78 59 69 60 62 66 60 55 54 52 42 37 38 37 36 25 11 7 11 14 16 16 18 18 14
23 58 60 33 5 31 20 63 142 40 37 99 121 137 99 134 144 126 112 79 167 141 109 96 57 51 51 54 57 70 69 58 60 51 41 38 39 37 31 16 13 16 22 21 14 13 13 12 11
40 41 33 53 29 -10 -23 -54 71 135 107 125 48 87 95 171 107 101 168 251 309 183 119 79 32 45 62 63 73 81 76 71 70 56 42 41 41 35 24 21 25 25 27 22 15 14 11 4 7
57 52 24 25 -28 47 21 124 163 222 207 44 54 100 75 78 204 63 122 103 211 231 200 85 53 40 52 64 80 86 80 74 71 51 46 48 33 25 20 27 28 27 22 18 9 2 -8 -16 -12
21 -3 55 -14 15 39 68 193 247 172 28 -11 42 95 86 14 129 120 152 206 200 215 178 35 35 39 51 81 91 82 79 75 63 51 48 34 20 15 18 33 31 24 14 10 -0 -8 -26 -33 -24
30 6 3 19 13 87 124 218 210 32 -58 95 119 87 79 27 111 100 121 172 216 137 139 79 -10 36 111 105 87 70 73 62 50 37 33 26 11 14 23 25 26 18 10 3 -4 -6 -18 -31 -34
51 45 46 24 38 58 147 99 78 164 191 80 101 8 93 269 231 239 139 148 261 64 -12 -78 17 60 92 70 52 63 48 43 31 19 13 3 4 5 13 24 37 21 12 13 8 -7 -21 -11 -12
14 35 53 51 22 245 339 124 -55 59 102 113 72 17 112 205 147 129 176 140 68 53 -82 -30 15 4 2 36 51 48 27 20 11 6 -8 -11 -15 -0 9 33 39 30 26 18 11 -1 -17 13 27
6 18 50 34 46 45 -47 114 56 44 32 21 -8 92 89 63 49 65 40 -39 -57 -82 -14 -14 -35 -31 -29 16 -25 -16 -7 -26 -24 -9 7 -7 25 31 34 30 26 24 25 33 17 1 15 37 71
-0 51 14 57 86 63 32 -31 56 160 126 109 75 50 45 47 10 8 7 -35 -119 -16 5 9 4 -5 43 -31 -60 -26 -37 -7 20 9 32 44 28 19 48 59 30 26 17 48 74 68 70 84 79
20 5 -4 28 20 -45 -9 54 190 93 5 39 24 91 36 37 12 32 25 60 47 50 86 65 47 15 21 -25 -11 -0 -6 -3 -32 27 54 37 60 125 88 139 95 131 92 39 61 80 135 167 104
7 46 15 40 -26 36 10 102 83 6 -102 -20 76 74 30 6 25 29 -6 22 8 68 60 46 30 60 55 115 123 179 145 104 66 63 77 71 109 122 196 147 58 111 207 111 146 144 123 122 95
7 42 32 26 73 4 65 50 39 10 -26 -90 -20 41 20 18 71 5 25 68 33 80 29 13 29 53 46 126 169 108 67 39 56 42 85 120 128 108 104 83 46 82 112 99 113 143 121 126 130
30 49 24 22 23 -15 82 8 -63 5 18 18 46 36 22 23 64 14 83 104 113 78 31 23 64 37 137 168 119 150 82 -0 31 5 32 56 113 81 116 83 48 87 92 120 133 151 150 144 116
30 32 34 8 40 42 49 72 33 40 39 11 38 47 27 42 61 75 81 61 71 121 92 80 67 145 197 178 143 125 105 155 -17 -82 -28 46 81 86 61 67 112 88 98 110 114 114 154 145 128
18 45 49 3 50 12 82 7 43 -13 57 31 51 45 48 35 52 42 33 35 41 167 150 149 130 198 210 192 169 78 14 14 9 1 -0 58 56 63 84 126 107 80 103 138 172 193 151 127 128
14 44 7 -3 14 12 55 11 68 20 24 46 66 41 56 27 55 68 32 57 13 153 253 219 203 183 191 197 133 91 69 37 33 48 60 45 74 79 87 93 91 81 131 178 194 161 134 123 132
44 28 34 30 31 -12 -3 63 80 18 -12 38 68 73 102 59 88 69 48 84 47 216 322 266 282 256 176 171 94 111 87 93 113 142 108 102 68 65 91 188 191 196 213 197 174 162 174 184 146
59 51 43 41 28 -48 14 10 78 44 36 25 22 77 117 85 154 140 102 125 141 253 304 283 231 169 73 43 61 76 52 95 186 117 109 120 127 121 167 159 175 221 208 173 174 182 168 183 180
69 27 12 19 11 -31 74 -8 67 48 6 9 24 17 58 89 234 189 151 139 143 297 283 204 151 67 -3 -9 91 192 292 208 174 121 107 153 147 178 163 182 193 187 161 147 150 155 166 240 228
45 126 32 23 23 8 17 13 180 232 -5 35 14 19 55 64 179 187 157 161 311 357 219 117 76 39 139 188 189 156 164 255 294 330 323 191 112 110 140 162 194 177 155 145 147 169 225 237 224
-3 59 8 -13 1 -3 44 18 26 100 34 -17 10 52 110 108 191 254 171 260 220 178 75 41 112 228 188 228 258 243 353 342 376 408 343 237 189 253 221 238 219 178 168 176 170 163 213 243 263
6 -11 25 27 26 92 104 155 107 85 69 114 32 25 41 172 274 262 202 249 333 239 252 279 279 227 244 287 368 443 479 508 528 452 312 316 168 196 199 196 159 141 140 145 174 199 268 308 323
-1 -19 -7 66 14 9 32 38 80 28 89 204 -30 146 132 208 211 271 316 392 315 304 257 249 256 292 321 359 374 426 511 480 392 301 193 243 182 180 171 155 135 130 128 132 178 211 260 235 175
65 3 30 8 6 52 107 -12 28 39 40 73 30 174 224 197 215 225 296 278 280 217 173 195 281 308 310 310 410 448 351 322 209 173 235 205 209 170 150 134 129 123 119 119 173 191 184 167 125
1 39 17 -37 -59 1 10 38 54 137 115 54 183 244 195 172 171 224 253 295 263 197 193 232 251 314 311 423 398 290 247 191 229 268 229 222 175 127 161 129 123 115 106 130 182 171 151 124 131
29 47 30 29 12 13 34 20 81 77 65 31 132 204 194 165 177 174 228 286 256 214 230 233 277 346 416 422 303 257 186 229 245 227 195 192 151 154 114 112 108 109 106 101 132 142 126 141 95
18 2 31 37 38 50 36 44 59 70 51 61 15 185 235 241 202 219 236 277 272 254 283 272 315 467 443 350 318 304 176 234 264 168 204 178 155 116 118 106 107 95 86 99 179 183 168 150 118
83 64 18 74 48 83 60 13 33 43 57 40 26 31 229 280 229 261 287 381 362 309 313 318 359 449 397 366 327 250 174 185 196 166 181 168 158 122 127 111 102 106 88 180 156 143 149 139 119

GFSSGP_con_3kmhel_027.txt.gz
Helicity
33 29 47 57 95 93 41 42 51 98 149 174 174 71 106 197 118 177 158 159 210 277 123 120 122 98 74 73 64 61 66 56 52 55 56 56 51 42 31 22 23 21 27 20 13 4 2 5 3
25 52 80 83 80 56 50 68 78 125 109 114 195 95 151 145 96 147 257 152 168 195 183 183 107 77 73 62 56 57 59 54 54 61 63 54 46 40 35 32 31 27 23 18 11 8 8 6 2
29 42 108 81 56 60 -13 10 6 98 183 141 80 170 147 123 64 102 201 199 249 280 237 187 77 61 55 59 53 57 41 48 48 65 62 54 50 43 49 44 31 20 16 9 7 9 8 11 23
45 85 101 65 2 24 93 72 87 198 240 156 122 189 108 118 89 156 183 174 210 185 147 118 65 51 56 48 57 59 47 49 59 74 66 47 48 50 56 50 30 15 7 6 4 -0 -1 8 16
62 94 74 45 8 93 22 228 301 222 131 117 208 102 101 142 166 312 354 211 306 239 194 175 144 65 50 41 46 64 55 54 61 57 54 49 57 64 60 39 14 16 15 5 -1 -13 -23 -25 -14
90 67 70 7 11 -10 109 255 259 189 94 114 145 134 104 101 201 175 264 339 354 355 237 173 163 60 28 42 76 66 49 48 48 56 54 49 54 49 42 31 21 17 12 10 -1 -13 -19 -29 -30
71 88 58 79 93 20 109 141 107 4 39 3 84 186 127 225 198 223 293 337 313 261 184 157 53 43 -6 30 57 58 47 41 36 42 34 29 35 43 35 26 25 16 19 18 7 -9 -7 -8 -33
51 30 64 93 106 33 103 117 175 117 26 105 63 174 233 94 153 206 203 179 235 262 158 17 64 -18 47 52 61 52 46 25 26 14 9 20 26 26 28 33 29 25 22 23 8 -8 12 21 1
23 121 111 55 -10 18 98 162 30 78 18 91 116 169 224 112 185 211 190 188 121 14 -36 -64 15 21 40 39 -6 -6 4 5 17 26 17 22 10 17 25 16 33 31 22 17 5 -12 26 43 35
45 39 28 -19 -42 -48 -61 20 19 63 43 120 300 89 127 181 274 175 -5 -39 -30 103 -113 -20 -28 16 -4 -26 -20 -8 7 -16 -25 -21 -18 -19 -14 -8 31 34 26 13 30 36 42 16 36 57 60
35 81 67 15 -35 -63 129 125 16 80 79 99 48 93 6 70 150 41 -82 -94 -142 -164 -83 -110 -37 -36 -62 -24 -16 -33 -42 -37 -19 4 -9 -21 4 45 45 57 70 80 46 54 69 119 139 126 111
22 85 99 6 -43 63 123 67 60 54 92 -21 -89 25 -43 83 52 -19 -2 -81 -96 -156 -95 -31 -8 -44 -39 -26 -55 -51 -42 -50 -26 29 72 64 115 135 129 129 143 135 111 137 166 159 141 158 153
-1 59 15 -41 133 31 -7 -122 34 91 181 -19 4 -61 -65 40 1 -112 -161 -119 -69 -3 16 34 63 4 -2 57 78 59 86 93 114 132 104 125 128 114 109 129 127 170 167 204 164 133 143 143 160
-6 47 4 1 131 24 31 -14 18 -30 21 26 -12 -42 -0 -15 -0 -25 -46 -36 32 66 41 60 76 75 159 151 186 137 121 87 92 111 86 96 113 106 99 94 123 128 82 74 103 129 148 152 151
77 72 34 36 61 -25 68 3 -44 -32 -23 -55 -97 -32 42 10 121 55 109 36 42 48 49 51 58 139 166 172 143 116 76 109 90 112 85 73 77 106 90 102 122 83 90 107 111 158 180 186 183
33 73 50 42 40 -12 47 -12 -43 -124 -99 -143 -16 6 33 32 82 106 124 127 43 29 49 44 65 139 151 149 160 156 178 67 30 28 5 49 71 79 102 115 91 97 128 125 146 143 143 143 147
5 20 36 17 49 25 43 55 -62 -108 -36 27 61 -7 33 65 130 107 175 158 120 70 83 108 172 168 164 180 176 146 110 63 14 34 43 60 123 99 107 100 94 99 150 173 151 141 131 113 113
16 84 71 46 38 86 27 37 56 25 68 101 55 66 59 100 84 92 94 201 204 185 157 216 224 200 183 213 206 134 80 31 38 29 47 113 100 140 143 113 88 121 168 183 163 182 150 132 118
-0 52 64 54 12 75 69 74 84 118 42 124 148 125 137 104 110 89 73 211 291 345 262 288 254 237 219 298 260 143 116 79 138 126 151 117 130 157 146 128 136 169 188 170 154 147 132 110 129
127 50 145 35 5 24 15 55 87 34 71 209 184 61 139 187 205 187 178 264 376 409 405 338 289 244 196 231 150 128 95 162 167 173 182 164 140 132 107 127 172 183 157 153 150 135 118 117 142
1 20 -24 49 12 -3 25 82 136 -7 42 109 91 72 226 251 287 264 198 314 391 490 446 273 270 187 189 92 90 134 156 224 226 246 230 197 181 166 138 137 165 135 128 105 94 99 126 131 133
27 34 49 26 9 -30 42 30 115 125 51 17 80 157 228 267 337 386 338 279 386 388 387 189 162 118 98 67 201 258 322 318 240 277 253 240 232 220 285 213 202 202 176 154 124 129 134 167 168
-11 3 11 -11 11 -7 66 -9 31 96 -6 7 -4 -8 147 284 361 394 397 371 295 308 279 144 35 150 91 170 267 314 359 448 475 510 478 358 305 281 317 282 227 215 154 159 166 161 143 177 217
60 32 20 30 25 12 15 148 93 68 163 35 -56 -73 7 136 286 349 339 310 259 230 219 219 232 243 325 379 396 418 522 585 636 572 416 325 295 308 333 318 218 168 150 142 157 158 205 225 228
45 -2 63 70 73 -13 22 81 162 77 64 119 35 -3 6 162 262 349 399 414 396 375 313 354 316 375 391 487 541 550 583 557 459 364 319 294 261 293 254 222 200 155 130 145 158 153 155 168 170
11 13 56 47 -6 -2 8 24 2 85 52 59 79 30 57 211 272 431 508 521 523 466 403 381 404 409 402 423 481 544 497 396 342 328 297 288 282 293 239 210 190 141 134 151 152 151 133 143 163
-6 36 54 84 18 25 15 9 124 128 45 36 64 125 223 289 339 389 425 456 464 405 350 339 388 379 374 372 415 394 370 359 342 315 270 270 269 243 236 192 146 142 123 122 137 140 137 140 145
20 19 58 68 44 21 11 45 35 50 43 21 61 163 295 321 324 376 420 432 384 294 236 285 372 368 375 386 357 291 291 297 287 285 275 338 199 174 156 148 145 124 94 96 93 129 141 158 136
21 55 56 65 73 36 33 68 18 45 34 67 111 269 355 384 389 405 419 437 415 345 276 284 385 454 462 424 348 281 256 256 283 308 321 220 264 145 122 126 115 86 76 92 121 131 121 141 147
34 20 42 80 50 76 48 27 32 58 33 41 45 173 265 352 377 419 483 500 491 479 423 380 448 546 551 468 363 269 240 237 262 235 238 202 162 160 132 134 119 86 84 98 123 137 136 163 162

GFSSGP_con_3kmhel_030.txt.gz
Helicity
37 39 47 81 118 115 55 33 42 19 48 67 70 60 45 179 150 153 91 62 156 174 138 156 169 122 101 88 68 66 71 59 67 80 82 68 57 46 37 34 37 39 44 39 35 34 35 37 57
32 36 90 112 118 95 38 23 57 55 98 58 71 40 90 104 30 55 136 95 140 157 139 145 196 223 135 72 61 55 47 53 67 76 77 58 52 45 44 41 36 31 32 31 29 27 28 37 69
38 53 103 113 98 66 46 14 22 74 113 94 102 86 55 67 59 95 169 172 224 223 238 189 253 188 92 71 60 59 48 50 71 65 55 50 46 51 51 41 29 24 22 13 12 25 37 58 94
63 88 111 113 29 30 7 28 34 99 131 120 72 112 119 172 36 59 163 204 326 271 254 211 170 149 121 80 60 42 39 43 55 58 49 47 54 51 45 29 19 19 12 8 12 17 37 62 97
66 67 109 65 21 -4 2 39 129 69 83 96 110 166 202 145 171 247 275 240 267 274 209 176 167 180 101 53 42 32 24 52 68 52 43 43 45 42 32 21 15 10 15 25 21 27 30 31 44
75 71 65 -12 -13 4 -22 25 84 73 56 95 133 196 152 94 226 275 304 346 275 389 181 186 128 103 68 13 18 9 43 59 63 42 33 39 32 34 29 23 15 20 28 33 39 35 27 26 18
33 34 2 15 57 24 35 54 137 133 46 141 118 120 105 147 167 308 308 501 541 266 274 116 103 70 67 45 -5 45 47 66 25 11 26 38 27 25 28 24 22 28 39 28 33 34 29 21 12
35 7 43 43 87 48 24 58 48 63 84 59 59 41 95 79 183 236 285 484 156 237 238 286 231 163 39 -10 27 21 29 -9 -4 18 14 13 17 26 38 30 22 29 24 21 37 38 37 40 43
30 34 45 79 159 -41 -54 4 13 43 35 151 118 121 131 88 130 205 238 196 72 99 113 10 32 -170 -13 3 3 1 -20 -31 -29 -7 28 34 7 32 43 34 32 52 49 43 74 81 56 57 69
21 14 41 26 -21 -75 -83 -17 36 117 258 266 261 254 193 90 72 67 76 174 75 -4 61 -122 -174 -85 -25 11 -27 -31 -20 -23 -16 -6 5 5 23 63 52 69 93 78 77 83 66 60 83 116 73
20 39 62 42 23 -12 15 23 50 117 141 76 113 152 238 153 -51 14 11 45 -21 -138 -55 -57 -26 0 0 -35 -20 -27 -35 -30 -37 -17 -4 45 70 68 64 69 74 87 117 98 160 177 155 132 114
40 121 109 47 22 -4 -7 41 37 -49 51 42 48 12 76 -51 -105 -84 1 -58 -106 -165 -61 -135 -36 -12 -15 14 -10 -28 -13 18 37 -3 6 43 77 107 110 122 133 151 156 182 181 170 140 150 169
102 182 8 22 -10 -78 22 31 16 87 125 113 51 57 75 31 -43 -97 21 -25 -63 -89 -63 -65 -62 -2 -16 -14 -33 -19 28 81 68 76 87 80 106 127 122 137 136 153 154 157 158 145 157 183 170
95 15 68 38 -27 -59 20 48 -13 -43 9 -15 0 91 70 -21 -1 -105 -41 -8 -37 -32 -45 -39 -10 4 27 14 15 41 56 74 64 93 109 120 125 103 119 148 147 143 112 124 152 157 142 135 149
88 33 85 42 17 -6 0 -30 -30 2 22 28 97 62 44 -68 -6 -34 -17 35 28 -6 -3 3 39 50 62 56 66 77 86 105 108 117 117 134 126 129 120 135 161 158 137 146 134 134 143 153 139
92 62 53 -67 19 18 -5 -34 16 18 46 -4 32 25 88 10 -1 -11 -9 1 10 25 27 78 105 113 134 133 127 121 123 143 123 117 101 115 156 153 125 170 155 144 138 120 115 113 107 93 99
63 47 46 16 -2 45 -13 39 -15 32 43 -35 -43 6 110 83 41 55 64 12 15 52 80 137 151 179 179 163 166 140 117 123 90 64 70 140 177 176 172 163 138 141 134 120 91 98 76 68 93
66 35 71 41 36 59 78 122 48 50 21 -26 -24 26 146 156 156 122 91 14 39 61 123 159 152 184 183 180 180 173 155 104 42 40 119 155 154 150 173 142 139 126 104 99 92 98 105 96 88
66 126 56 72 65 -35 70 101 63 79 68 41 21 77 138 187 133 180 144 87 71 84 184 173 188 172 244 233 235 210 158 130 124 123 131 165 166 159 146 133 126 115 72 91 96 100 102 89 99
-12 61 104 97 52 7 33 69 40 77 130 109 98 95 151 174 219 169 186 205 219 206 188 177 167 194 233 235 253 205 170 129 127 146 163 179 176 144 146 135 93 78 114 124 136 151 135 113 109
35 86 109 45 52 83 54 73 73 29 70 72 91 152 171 210 286 300 285 326 295 306 269 209 202 197 214 218 278 283 265 264 235 218 203 154 177 190 190 155 132 194 194 168 159 122 121 120 117
74 83 72 36 46 87 49 25 90 7 28 114 127 84 185 234 304 392 397 468 447 398 362 253 241 191 185 237 283 334 319 286 208 242 211 225 222 202 197 236 227 265 229 215 174 163 145 155 133
49 18 10 23 72 9 56 16 23 129 135 124 84 134 59 146 318 442 474 500 437 449 399 320 246 182 199 219 206 277 279 241 263 299 331 330 291 285 283 236 313 273 218 202 209 184 186 177 187
23 -1 7 51 26 52 49 15 31 28 119 95 160 149 82 234 238 360 452 449 366 299 319 309 214 168 129 163 189 246 300 366 436 433 429 348 333 316 280 264 270 242 208 208 189 183 168 164 172
19 46 45 55 72 32 34 22 -16 9 34 63 87 160 92 177 328 395 469 426 376 343 313 183 256 269 169 212 259 340 447 517 561 494 413 375 372 338 327 265 221 188 201 199 159 134 143 161 171
59 18 34 32 26 23 46 19 32 3 32 35 16 36 79 105 238 357 402 361 337 321 260 298 338 364 252 335 384 443 529 513 476 426 390 413 375 311 216 217 169 192 147 122 132 141 167 168 161
49 14 30 80 62 63 14 50 28 30 28 -2 22 32 70 137 234 331 397 377 386 340 347 428 402 432 385 433 465 478 455 429 422 414 373 302 272 235 256 355 181 174 121 125 139 150 161 151 143
51 25 58 75 30 22 35 58 43 17 -7 -7 -10 -5 48 154 214 281 348 393 405 318 313 374 416 424 393 404 388 389 378 364 360 343 304 265 254 316 241 158 179 189 121 116 132 132 121 118 112
59 44 61 58 74 36 25 43 26 3 1 -6 11 54 152 207 224 291 330 349 366 381 391 378 431 452 446 430 442 433 371 321 297 290 289 314 273 289 286 140 235 148 112 110 106 90 100 112 119
3 21 74 84 62 81 54 30 34 6 52 32 22 41 133 220 276 333 351 371 358 390 450 434 426 452 455 464 460 417 402 342 314 292 282 298 278 200 220 161 167 138 125 96 135 112 128 132 140

GFSSGP_con_3kmhel_033.txt.gz
Helicity
45 50 72 109 123 158 120 66 22 50 52 9 49 55 70 90 97 102 64 174 172 186 192 182 159 156 144 121 93 95 79 70 95 108 92 76 57 46 37 48 55 53 49 54 67 83 89 75 56
36 51 89 108 136 119 74 20 54 39 44 89 93 90 128 110 101 99 157 129 188 190 158 167 181 178 142 158 130 94 62 72 84 86 72 57 38 40 47 57 56 50 56 60 72 109 124 120 110
39 68 94 133 113 65 27 20 14 28 39 44 41 95 83 81 57 55 72 74 142 176 150 155 158 181 142 165 182 94 56 56 63 67 48 43 36 41 44 48 48 50 53 58 70 105 132 117 77
54 88 99 138 87 29 6 41 25 60 88 130 124 85 58 103 -25 1 69 125 153 167 169 182 198 222 113 120 102 63 45 55 63 54 31 41 41 29 40 42 45 53 59 60 71 86 90 94 65
75 70 91 99 63 11 27 14 40 81 78 74 100 65 91 83 109 146 155 208 247 209 174 180 187 164 135 108 63 38 43 47 43 37 42 42 28 21 30 41 48 60 57 70 53 58 64 56 45
81 49 71 65 31 43 37 -1 12 52 49 51 48 36 70 70 119 178 264 349 297 296 201 139 127 107 90 68 28 29 30 46 48 33 43 41 37 30 36 49 49 44 45 30 50 61 61 61 55
52 45 -9 65 64 82 49 -15 19 44 54 54 40 48 62 103 167 207 316 373 381 456 298 102 200 144 102 46 27 27 -1 47 41 41 46 42 30 29 33 31 30 36 19 43 52 66 59 55 52
32 29 12 26 61 70 -27 -69 -29 -9 22 46 86 59 55 100 206 214 324 573 548 540 426 392 221 199 88 52 29 -30 42 55 -27 11 33 31 25 27 29 24 51 53 83 83 84 69 72 51 66
20 32 15 17 57 6 -58 -4 67 98 147 99 97 156 148 149 184 151 159 280 136 166 216 381 250 234 85 29 -29 32 35 -5 35 46 35 46 44 40 67 68 73 81 94 93 85 79 72 70 97
2 22 19 25 27 58 -0 54 36 83 109 149 220 164 111 105 149 99 146 301 261 197 13 -3 204 182 -43 -42 7 38 12 -9 -31 3 56 82 80 74 63 83 86 86 91 85 98 123 132 115 77
1 37 33 76 57 7 13 -24 -14 96 72 49 104 110 116 86 130 185 130 131 142 -24 -124 -146 -299 -126 -57 -30 14 -10 -27 -35 -5 26 63 67 62 88 100 84 63 90 112 126 151 159 139 118 115
24 76 78 44 46 9 -27 1 11 20 25 103 81 35 25 40 -19 -2 -17 -12 -18 -90 -113 -110 -0 12 -8 -18 -12 -15 -3 58 62 -12 15 38 62 74 94 80 86 116 117 154 168 180 171 178 174
83 102 25 -6 24 8 34 11 18 64 140 164 30 -112 -86 -43 -17 -103 -104 -106 -112 -50 -71 -104 -13 -18 -13 12 6 10 17 22 18 9 4 49 100 117 124 119 126 140 141 171 174 172 170 164 165
41 47 9 -5 -3 -1 40 11 12 7 98 55 -59 -98 -11 -56 -10 -102 -40 -69 -61 -53 -9 7 28 16 -5 18 17 29 41 37 42 34 50 81 103 112 119 141 150 152 187 186 166 152 153 155 158
21 27 30 20 -29 -21 43 2 37 117 67 79 -41 -67 -22 -2 -51 -30 -34 -1 22 19 1 2 -11 2 15 17 -4 12 22 44 50 55 64 101 119 154 181 189 179 196 205 183 157 134 130 145 150
32 28 51 -21 -24 -34 8 11 59 153 149 53 7 -36 -17 -14 -30 -26 -2 18 18 16 3 -13 -13 -13 -14 7 2 24 48 76 81 92 110 140 162 193 253 255 225 213 180 142 135 119 131 131 133
77 37 36 -1 -18 5 -7 38 56 87 86 75 59 22 -0 -16 -47 -38 19 37 26 19 10 -6 9 27 40 36 67 78 82 91 105 119 113 164 204 204 233 219 184 167 165 140 99 98 88 89 73
65 53 87 33 18 33 22 20 134 104 68 99 45 26 33 70 44 29 35 5 3 -1 25 41 36 68 102 120 136 128 131 133 128 125 142 138 167 205 209 170 167 173 135 101 92 77 35 34 26
65 41 53 89 21 -41 20 19 196 77 49 86 49 55 49 51 57 33 31 10 2 3 61 92 129 133 204 216 205 175 187 184 187 158 120 132 166 172 176 163 152 112 111 105 56 9 22 83 21
83 93 109 81 44 32 18 19 153 113 94 102 66 73 84 56 -14 43 45 39 35 65 92 133 170 220 230 247 225 217 215 192 185 142 157 172 188 169 157 138 122 121 122 50 45 57 32 32 50
66 97 106 97 69 72 93 77 95 31 24 -19 45 76 70 145 90 49 99 146 100 105 120 156 203 233 224 214 256 278 315 288 249 203 206 159 158 157 161 145 128 138 110 84 105 101 95 95 106
123 42 71 57 25 38 81 8 50 137 65 65 38 130 162 137 162 132 115 188 219 161 126 137 185 207 217 222 288 325 335 315 222 210 201 196 199 203 172 175 196 191 174 118 122 122 122 145 133
59 63 62 36 18 49 96 50 15 54 44 88 145 137 181 189 235 262 205 171 240 228 224 207 196 179 170 271 289 315 317 277 258 277 283 264 268 253 217 194 178 175 111 180 276 140 162 155 173
17 57 60 50 59 31 29 33 15 29 158 141 187 193 215 294 250 254 265 238 305 304 291 291 272 242 218 249 238 309 234 265 300 328 310 295 303 280 297 286 271 221 157 170 248 200 224 149 177
35 70 48 55 73 -18 46 32 -19 -1 19 93 185 224 168 222 384 424 387 371 381 326 288 290 304 284 255 234 222 178 205 254 288 328 371 401 417 381 350 357 291 153 181 247 216 199 210 171 193
37 51 85 22 39 31 63 14 20 20 11 16 43 105 94 153 273 363 417 430 452 342 256 291 215 204 255 277 204 193 242 309 364 459 468 495 466 411 418 301 99 125 359 236 228 216 190 154 142
45 53 35 83 86 60 43 28 49 30 47 37 37 31 32 40 159 259 352 407 388 375 304 242 235 218 191 219 281 296 329 366 425 460 489 489 510 423 243 230 334 241 282 181 163 161 169 183 198
45 52 83 97 74 64 40 34 21 60 79 51 14 5 12 33 79 146 245 291 308 280 330 293 277 244 227 296 336 343 392 455 532 570 599 571 487 387 233 345 322 255 213 192 168 146 174 185 181
130 147 117 92 91 55 43 26 -0 31 72 69 67 25 38 77 80 92 139 205 232 282 279 255 296 308 328 367 413 492 517 519 509 505 482 500 431 352 333 264 271 240 217 214 134 120 145 168 147
106 86 93 102 70 97 74 46 36 17 21 29 35 38 30 70 84 105 177 243 266 274 263 272 286 333 402 470 493 418 431 427 407 426 409 348 314 282 263 278 286 264 220 168 114 142 142 141 146

GFSSGP_con_3kmhel_036.txt.gz
Helicity
46 39 47 85 121 128 95 67 44 71 35 58 53 71 69 87 76 91 32 94 233 265 237 214 190 164 155 150 150 135 130 113 102 83 80 61 54 52 53 51 54 64 81 86 80 54 51 50 24
34 42 74 73 151 121 79 32 32 44 35 75 74 75 83 86 55 45 85 122 211 270 233 184 162 182 172 157 134 123 108 118 99 69 77 59 53 45 52 54 77 96 92 84 71 61 60 66 50
42 60 72 99 128 78 49 21 38 -11 38 60 82 53 51 61 55 42 59 169 226 225 221 188 165 170 174 169 156 116 74 105 74 64 66 69 56 54 65 73 81 81 76 65 64 47 32 30 33
43 67 80 110 97 53 5 48 22 17 73 48 18 69 35 55 23 30 58 136 171 187 206 166 151 147 132 111 121 79 110 85 67 76 58 67 51 54 51 64 66 64 35 39 48 58 36 23 39
62 60 76 77 82 41 47 45 2 -7 57 38 10 89 58 25 47 118 129 149 212 201 143 163 151 132 136 96 79 90 82 72 64 64 56 49 43 47 59 47 45 19 29 30 46 49 40 23 25
62 53 59 40 66 69 45 16 6 10 9 5 30 7 58 57 98 217 212 257 238 214 226 196 206 157 166 120 130 75 74 49 49 57 62 50 47 48 41 49 34 45 46 65 54 71 58 36 16
49 35 5 21 82 94 7 5 -7 7 11 22 24 40 39 87 149 219 263 304 336 298 322 318 301 278 195 61 57 30 9 27 46 48 68 53 49 43 48 50 45 51 65 62 83 54 53 32 8
55 33 16 35 81 90 -12 6 -9 22 39 65 62 22 85 131 174 183 246 272 391 447 381 372 208 286 170 53 30 -0 19 -15 57 104 69 41 36 56 68 50 54 46 42 69 90 95 87 51 56
46 31 21 9 30 42 20 18 34 55 72 74 61 64 127 198 205 246 244 279 219 207 288 390 264 276 46 63 18 -23 -16 57 105 74 29 59 75 66 58 60 51 60 60 77 86 110 105 96 100
33 17 24 7 32 49 48 38 35 63 60 67 86 122 159 139 154 203 205 205 166 244 182 123 344 184 77 49 -38 -48 52 44 75 61 57 65 67 64 75 76 79 65 78 92 115 125 129 96 74
14 62 74 96 67 31 20 35 20 60 8 7 24 99 117 142 180 235 196 91 123 171 111 347 185 233 83 -86 -23 42 77 81 82 22 42 85 84 75 77 67 67 72 109 114 124 127 118 126 120
25 11 89 42 9 38 -22 25 14 14 -15 62 47 73 154 179 114 121 145 91 37 60 3 -59 -79 -299 -205 -32 38 59 39 34 33 65 65 14 55 88 81 72 87 102 96 141 157 166 151 154 141
12 57 21 2 13 14 35 -7 -6 -6 10 29 37 1 -10 -21 18 52 75 -73 -80 -79 -190 -255 -200 -148 -13 -16 -11 -9 -2 31 42 -14 -15 30 52 71 95 111 120 129 132 160 185 172 154 147 135
42 17 -0 4 -2 -11 28 -21 -40 -40 -62 -10 -27 -73 -67 -7 -4 -55 -72 -88 -24 -7 -65 -40 -22 -24 -21 -19 -19 -24 -26 -23 -12 16 10 52 63 100 130 149 158 175 166 185 169 151 145 129 124
30 11 28 -6 -24 -22 37 -21 -33 8 6 -22 -52 -63 -38 43 -1 -49 -28 -25 10 -21 37 17 -4 4 21 25 17 -15 -11 -16 14 43 44 63 80 107 151 179 190 172 180 188 158 145 122 117 110
28 29 22 6 -3 -24 2 -2 -8 64 70 26 -22 -60 -46 -18 -9 -36 -10 8 -18 10 28 42 24 29 19 -15 -26 -22 8 10 35 63 70 81 109 142 194 210 194 167 170 144 126 120 129 120 116
66 44 43 41 -11 7 35 -7 43 81 97 41 17 -14 -18 17 8 3 -20 -8 20 49 41 38 23 19 -7 -36 -19 -19 19 26 71 71 77 115 146 186 222 209 183 162 145 133 127 126 99 95 89
48 44 39 27 14 13 33 16 53 119 101 74 50 20 -5 7 37 37 11 -9 -15 10 12 1 -0 -5 -8 3 18 24 57 69 79 85 99 128 183 214 224 208 179 154 155 140 131 111 103 48 23
34 28 13 20 5 -7 28 60 77 115 55 27 22 -0 3 13 5 23 18 16 14 -12 -19 -6 22 34 76 70 83 90 120 125 112 90 110 151 192 201 197 190 180 158 159 150 119 99 69 6 8
27 21 37 56 7 -34 33 21 103 177 124 51 51 -9 21 -11 -44 -27 -11 23 50 54 24 -2 24 79 104 143 163 146 166 129 135 155 169 168 172 172 184 188 183 183 180 175 151 75 -9 8 7
45 67 69 27 26 7 38 65 101 102 57 -19 6 24 -30 18 41 6 29 69 70 93 98 76 66 98 144 180 256 241 276 225 239 252 221 181 170 211 213 219 219 216 174 152 124 70 10 -11 50
97 53 41 52 31 15 45 37 18 102 151 74 49 39 36 16 13 53 68 34 66 39 51 118 129 120 161 213 262 312 306 315 276 279 225 230 222 255 236 232 226 215 182 146 93 18 -19 -68 165
78 14 34 39 38 43 38 49 9 89 104 115 104 109 82 52 54 69 110 149 159 122 121 139 190 145 182 226 261 328 308 336 330 308 309 288 283 278 252 245 239 220 161 107 111 112 86 162 202
35 41 67 71 66 53 47 53 -9 35 66 124 127 92 126 124 124 104 116 166 146 175 216 213 204 147 198 225 296 363 393 361 344 359 362 309 320 296 279 283 250 195 175 118 105 166 102 164 197
35 55 46 71 99 23 46 16 -23 -22 -2 -2 99 179 212 242 202 194 215 261 263 235 252 249 227 134 153 237 277 349 386 316 286 333 371 380 371 357 338 284 295 297 266 160 52 153 185 172 200
49 61 76 60 62 43 45 4 -21 15 30 6 -22 36 137 188 218 262 269 353 371 322 316 324 280 190 160 201 254 292 281 276 275 353 419 425 417 404 339 490 437 260 187 139 113 181 209 208 186
60 53 46 84 80 70 36 31 16 25 19 33 40 38 57 114 153 169 264 301 384 342 343 339 309 184 210 239 265 312 269 268 284 370 422 440 447 466 509 408 297 215 126 182 215 230 221 144 168
64 47 87 90 51 45 42 54 29 42 41 44 53 15 -13 27 -4 6 153 184 194 286 294 310 252 247 286 232 250 261 225 273 362 418 426 417 457 537 440 319 249 221 150 216 248 274 188 126 144
92 94 127 110 126 39 48 50 25 11 33 77 36 9 -3 -2 23 44 63 124 134 123 192 208 207 278 250 211 208 235 249 303 363 353 369 422 470 477 325 276 218 180 227 306 283 208 129 118 139
47 80 135 154 133 138 111 11 57 22 21 32 18 23 36 26 29 34 13 41 109 82 101 122 163 206 204 242 278 287 304 318 281 277 346 448 444 362 246 298 326 306 352 291 278 122 120 157 165

GFSSGP_con_3kmhel_039.txt.gz
Helicity
39 34 29 62 68 113 118 97 76 56 38 55 85 50 94 118 65 86 23 82 217 271 228 170 150 134 151 171 169 131 106 105 134 140 113 104 93 80 64 48 41 16 13 13 15 13 11 9 21
34 34 45 59 91 107 108 85 68 57 35 39 71 80 83 104 76 45 13 46 211 237 207 173 156 146 134 113 106 91 92 112 111 135 101 103 102 84 53 35 23 9 7 18 21 27 25 26 20
37 43 36 63 90 91 121 44 42 33 42 26 54 85 74 105 63 51 30 86 252 221 181 191 197 149 125 105 93 91 110 122 88 146 80 109 89 66 41 34 13 10 15 14 21 31 38 30 27
32 43 50 44 23 67 42 34 39 31 30 31 29 73 48 56 42 31 39 106 269 197 168 190 207 155 126 113 122 115 116 116 96 118 100 92 73 62 36 19 22 16 21 23 18 24 35 37 33
44 37 39 30 15 41 37 51 34 11 23 30 3 56 58 50 61 130 117 109 203 169 169 201 179 146 133 141 147 129 127 91 124 88 95 84 70 38 32 30 31 18 23 23 24 29 25 28 28
29 29 18 2 -10 42 32 14 18 -12 1 35 45 65 44 46 91 101 163 162 128 183 269 230 184 163 170 147 116 95 99 90 120 61 86 69 57 40 50 36 23 13 14 13 29 15 15 12 23
23 7 -5 4 36 46 29 7 5 -10 -2 26 41 65 57 90 88 191 181 228 207 262 363 420 309 131 126 130 113 105 71 128 60 66 83 69 41 61 72 50 36 26 22 37 40 42 41 40 47
31 2 -7 20 40 58 5 13 19 24 21 28 44 34 47 45 107 179 175 218 368 312 458 452 396 225 231 35 103 87 121 56 14 59 92 76 76 74 66 50 49 50 49 60 67 84 76 71 86
25 -2 6 21 15 24 6 18 26 24 29 34 58 56 95 148 164 206 207 262 428 531 552 635 483 350 335 43 96 59 61 -10 20 98 88 81 65 63 54 56 55 67 80 83 92 109 115 105 88
10 26 33 15 33 33 14 32 47 26 36 46 70 80 170 160 154 185 201 210 255 265 169 159 309 164 354 155 93 62 -10 -14 49 85 84 99 84 64 55 58 70 63 106 122 132 126 115 75 55
3 46 30 91 50 53 47 29 3 5 21 24 41 74 102 167 163 181 212 163 167 180 246 399 372 230 63 140 72 102 -12 -35 96 123 125 111 78 64 60 63 48 54 83 79 104 101 83 92 68
-18 40 69 19 12 -18 52 53 1 10 34 44 66 106 150 165 147 149 133 102 131 81 189 225 226 285 313 320 22 -22 -29 94 117 111 106 76 69 65 70 73 80 88 83 104 109 107 112 108 104
23 39 27 22 25 10 24 -3 22 -16 17 49 52 56 58 75 74 110 73 42 83 79 122 178 84 -64 -52 -107 -35 17 74 96 87 89 74 66 61 75 74 92 98 100 105 100 110 114 103 106 110
4 14 6 -11 10 21 5 -20 -25 0 -6 -1 -13 -32 -22 7 71 62 -30 0 -77 -32 -7 -112 -142 -70 -22 -4 13 24 32 59 62 67 21 9 38 63 92 125 133 126 109 110 121 109 102 105 104
9 11 11 5 -1 4 7 -12 -26 24 3 -11 -4 -62 -33 -28 13 -30 -36 -23 -71 -60 -69 -17 -13 -11 -1 13 -1 -4 36 49 51 20 35 39 50 81 116 143 139 124 118 128 122 116 111 113 108
13 18 17 -7 5 10 -5 37 -42 11 34 16 -13 -14 -22 39 70 28 35 26 24 21 14 16 9 13 7 11 -9 -2 -38 -14 22 27 50 63 75 107 130 122 130 131 112 113 120 123 119 108 98
50 20 14 5 -3 7 9 9 30 41 55 51 12 -32 -23 17 13 11 54 46 24 38 41 37 27 21 0 -13 -21 -45 -18 -1 26 47 70 79 77 104 121 137 145 132 139 135 130 132 116 105 89
17 35 36 23 -17 20 17 61 39 32 67 74 55 38 27 23 32 34 51 33 16 22 31 55 35 31 19 -31 -29 -12 -4 1 25 39 48 69 84 114 154 168 173 163 164 162 160 156 141 127 95
51 46 15 13 7 19 61 104 105 33 66 59 50 47 44 32 31 32 31 10 16 26 25 24 21 -7 -17 -15 -19 -13 5 26 33 55 64 74 97 149 177 196 199 186 187 195 174 158 155 122 62
36 33 27 25 14 -19 18 49 4 99 64 66 52 14 14 10 -14 -10 11 21 39 35 39 29 28 20 20 13 28 32 56 59 73 82 97 105 136 160 189 221 213 215 219 195 177 155 126 92 31
53 39 24 8 18 15 21 37 18 16 32 -2 10 11 -4 -10 -17 -27 -5 15 19 40 44 32 24 31 39 46 81 111 116 102 121 125 148 154 158 179 199 227 236 234 217 217 192 151 106 55 13
44 26 27 22 16 19 32 41 -9 13 67 30 8 -4 6 4 0 3 20 21 30 20 12 30 46 61 65 77 85 131 142 172 175 174 184 203 201 218 218 249 251 253 251 231 188 121 59 -3 -52
25 44 45 35 42 33 46 30 14 27 11 105 83 25 -3 5 12 11 8 14 31 57 71 63 58 56 82 103 105 147 175 205 250 252 266 264 278 256 255 263 263 272 251 219 173 130 58 -8 92
32 54 61 52 55 12 50 45 -5 14 23 13 69 91 49 8 25 41 22 14 44 68 81 97 87 71 92 113 136 165 183 284 319 300 309 305 296 298 277 270 272 281 272 254 236 188 27 36 106
54 57 44 51 59 31 54 52 12 12 -13 -30 0 81 114 96 58 30 59 81 98 125 149 162 176 160 154 178 140 174 246 316 353 337 334 390 379 353 298 305 358 320 318 263 161 74 30 98 126
15 42 36 38 57 58 54 20 10 17 4 13 20 13 -1 21 37 60 73 89 130 161 162 191 242 234 191 111 139 194 231 315 340 331 357 372 357 339 350 362 349 324 270 180 99 90 127 135 125
45 67 76 106 77 50 57 22 2 33 27 24 37 63 33 4 17 49 45 67 98 185 222 210 236 223 207 199 157 171 206 246 270 291 303 333 353 344 361 358 334 274 217 125 87 123 163 137 150
53 62 87 87 57 36 44 36 8 28 24 48 41 27 44 43 22 22 23 24 47 122 154 156 156 161 170 192 163 208 165 199 254 298 283 259 296 349 374 355 310 276 150 177 226 222 203 179 186
86 82 97 73 87 44 62 46 31 9 24 21 14 -22 -44 -39 -9 7 12 31 38 92 134 143 129 88 90 154 158 144 128 165 210 242 236 283 322 330 328 342 344 238 128 174 303 395 269 118 99
66 80 116 96 75 160 124 81 75 23 11 28 20 6 -1 -11 -20 -3 -2 8 5 12 34 45 60 66 72 83 109 118 141 175 215 250 269 267 256 288 315 325 326 332 134 310 409 458 149 74 104

GFSSGP_con_3kmhel_042.txt.gz
Helicity
36 15 5 7 48 59 24 47 69 61 67 81 75 86 78 133 106 98 31 85 75 194 157 139 160 162 159 171 179 177 177 170 147 133 103 93 68 43 27 14 -1 -3 -15 -17 -6 4 16 20 17
25 19 3 32 38 21 10 58 27 107 100 59 43 59 68 77 86 117 59 26 102 196 186 113 178 177 166 179 177 172 154 141 132 131 92 96 59 42 24 21 10 1 -10 -12 -3 9 19 23 17
18 4 -4 14 22 22 27 53 92 67 55 18 25 72 114 62 52 54 45 63 123 186 157 171 175 185 169 167 163 149 137 123 127 111 90 93 56 44 40 18 6 1 4 11 17 20 26 26 19
14 23 16 -14 3 2 54 44 49 54 30 8 32 58 81 66 66 25 20 83 104 165 194 214 175 147 149 147 145 133 120 132 126 92 96 79 54 52 40 13 14 9 6 15 27 31 32 20 19
11 -0 -18 -16 7 18 30 47 43 54 38 28 37 45 78 89 65 26 68 105 137 199 246 195 180 145 127 131 123 120 117 124 119 91 99 96 67 40 34 16 26 23 15 12 20 26 32 28 16
21 -8 -27 -9 6 11 30 30 17 15 16 44 37 73 74 75 70 65 29 120 178 255 214 294 206 160 116 116 106 123 110 134 113 111 85 97 57 49 25 26 31 34 28 18 26 38 39 32 24
-28 -14 11 17 21 -3 31 22 20 13 1 28 62 51 67 72 106 99 150 119 199 198 284 314 300 237 163 131 121 163 112 142 138 115 75 93 63 44 39 38 39 33 45 50 53 52 48 52 53
-2 -9 -9 4 22 26 37 29 28 30 33 41 50 50 61 54 79 173 243 268 349 323 424 488 460 368 328 137 123 133 106 116 138 119 89 88 80 51 56 32 34 43 48 58 65 67 75 73 45
18 14 5 15 31 46 8 8 10 18 21 38 58 77 72 100 84 157 235 303 420 407 492 573 573 400 182 152 40 113 94 113 138 75 61 78 31 32 8 74 44 49 62 78 97 94 85 68 47
23 25 14 40 32 24 5 -12 11 30 23 21 70 96 97 90 104 170 168 232 300 387 576 611 558 612 311 87 49 78 54 77 61 15 78 42 44 34 51 55 66 73 97 102 95 77 41 -3 21
-14 31 33 31 18 7 -50 3 8 9 -3 56 53 93 119 102 92 142 129 141 238 471 824 813 973 533 202 307 20 20 40 85 64 60 36 42 56 48 37 47 32 49 45 48 52 33 42 41 25
38 34 18 14 -5 -9 -21 10 1 22 44 50 79 76 111 105 89 92 148 163 169 166 183 314 304 332 433 407 261 61 86 10 30 30 34 68 65 46 39 33 48 43 35 62 51 66 66 55 51
52 46 31 13 -34 14 -0 -8 16 32 26 37 65 115 114 122 113 119 86 83 127 153 319 259 285 294 353 408 141 258 42 70 71 27 56 58 62 52 39 56 57 69 72 71 68 69 63 62 62
17 52 -1 -0 10 40 9 22 30 25 28 40 25 4 52 52 77 64 25 39 93 155 231 162 41 19 53 -88 -50 -3 49 57 24 29 66 65 62 53 58 61 75 90 80 79 61 64 67 74 66
43 27 -35 -29 -6 16 35 7 14 44 20 46 33 44 27 21 27 63 -9 -62 -26 -33 -50 -112 -109 -78 -101 6 -9 8 1 14 22 43 55 58 46 49 58 77 95 95 91 90 90 80 88 84 75
19 11 40 12 -10 -4 45 24 40 60 26 29 17 16 44 -30 -85 -30 15 -33 -8 -42 -14 28 19 9 16 -15 -13 -2 -6 -0 38 49 55 52 35 46 66 87 96 98 93 86 86 90 101 103 96
12 14 -5 -4 -10 3 31 4 78 68 34 32 17 23 27 -15 17 39 36 33 12 15 27 26 11 30 17 -8 -18 -4 -14 -51 -12 39 36 38 53 61 73 93 108 107 110 112 108 118 127 122 95
-14 8 12 17 20 5 19 6 25 83 53 27 26 29 23 19 29 40 65 67 42 26 26 38 19 16 13 -5 -14 -51 -69 -53 10 11 30 35 54 63 82 100 124 123 137 135 139 151 138 124 115
-32 -10 20 25 25 28 46 45 45 81 51 48 34 22 21 14 20 35 39 44 47 34 33 41 31 19 2 -21 -36 -41 -34 -23 -8 17 29 45 42 60 77 105 137 140 135 154 162 154 136 133 123
-21 20 10 19 38 32 21 31 26 41 59 45 51 32 18 -3 -6 10 18 24 33 44 37 31 43 31 7 -28 -33 -35 -20 -4 14 27 34 41 58 82 101 120 136 140 174 178 173 160 166 165 138
-21 40 15 30 18 14 24 4 26 14 23 30 9 2 9 -1 3 11 29 33 34 43 48 28 13 -3 -8 -18 -11 -16 2 31 42 47 75 83 101 96 113 125 148 166 172 193 192 182 177 176 150
-12 45 27 14 2 23 7 14 30 14 32 43 44 22 1 -14 -17 -9 5 17 26 14 9 8 4 2 1 6 21 30 38 38 57 69 83 100 121 120 142 160 179 183 205 202 181 187 201 194 146
-30 29 20 34 13 24 14 5 75 18 -17 42 51 55 36 19 12 9 24 17 21 14 25 32 30 25 22 28 24 35 28 35 70 101 130 146 159 178 187 187 198 191 202 209 205 237 189 182 148
18 23 31 29 25 3 34 3 25 20 -4 4 9 49 33 15 13 -12 -20 -14 -0 21 37 47 55 56 52 65 29 28 35 45 145 132 178 191 198 195 222 217 220 189 207 225 241 213 178 162 86
-9 14 -6 9 22 -0 60 21 -14 27 7 25 32 22 13 2 4 -4 -3 21 30 58 82 91 97 100 167 135 113 80 86 62 174 161 215 279 282 278 274 260 245 220 252 240 256 235 161 164 75
-9 -7 20 13 7 29 65 11 32 49 27 23 18 21 2 -1 -11 -22 -18 8 43 69 106 115 139 157 204 183 164 95 56 133 189 146 216 268 326 280 284 275 265 235 242 269 230 210 161 90 165
24 24 65 60 62 45 40 36 3 43 28 25 26 26 43 20 8 -4 -17 -5 12 27 75 99 123 161 193 166 206 97 121 136 139 133 186 229 276 286 281 265 251 262 279 255 241 246 156 90 177
72 70 67 72 55 46 66 38 31 36 31 39 41 56 42 36 45 42 32 35 34 34 32 64 62 78 96 70 226 148 81 79 77 135 161 207 206 245 215 205 227 285 282 277 335 241 142 174 273
39 27 81 83 81 54 37 29 49 12 41 42 49 22 33 36 27 28 35 51 50 47 15 28 55 85 74 80 121 135 105 97 100 120 123 147 185 223 269 230 293 321 334 370 300 265 438 247 182
3 3 37 77 65 76 61 20 69 48 32 25 28 37 29 18 23 39 44 51 51 62 70 64 70 79 83 112 92 60 84 109 127 144 158 172 198 250 170 214 304 324 319 298 315 359 347 264 88

GFSSGP_con_3kmhel_045.txt.gz
Helicity
28 27 20 -0 9 34 -19 -9 29 74 61 67 157 44 52 199 110 16 32 55 72 158 148 134 164 174 156 153 168 158 146 143 124 107 78 62 51 32 24 15 5 -1 7 13 15 14 16 11 6
-15 4 9 -31 9 -14 44 -2 50 55 105 42 64 47 35 54 45 107 155 36 126 152 126 154 161 170 163 162 159 145 141 126 119 105 69 47 43 33 24 11 -8 -8 -7 1 8 12 10 6 -5
-8 -2 -22 25 22 -6 29 85 50 87 53 74 22 34 94 111 97 56 45 39 166 86 99 189 181 171 164 156 151 153 128 114 108 97 71 29 47 50 27 9 -0 -3 -4 6 12 14 11 3 -13
6 36 30 -1 -23 -4 41 44 58 40 18 27 23 60 85 122 115 77 86 114 226 182 216 164 248 176 162 168 156 135 122 119 105 83 71 47 59 61 35 24 25 18 17 19 15 16 11 -2 -16
17 1 -1 34 7 26 44 50 54 39 45 40 22 57 119 105 112 151 70 72 116 126 229 198 162 162 178 154 131 119 137 122 97 99 84 70 61 66 53 46 26 26 28 24 19 13 8 1 -6
4 24 1 20 35 38 16 31 34 19 24 50 -6 13 70 88 144 215 60 57 96 256 294 246 176 172 171 152 133 148 127 112 113 107 90 66 67 74 56 46 33 32 34 29 25 23 20 13 7
14 -13 24 22 24 46 74 46 45 49 27 34 78 57 81 73 128 146 108 112 203 305 420 381 116 204 210 199 193 191 122 115 121 110 102 96 88 81 58 46 46 46 49 44 31 34 25 19 2
-5 8 43 27 25 10 -13 36 43 41 78 87 68 43 39 86 125 201 235 277 319 342 567 638 340 164 188 199 172 142 130 130 144 125 134 99 80 65 49 53 64 61 55 47 42 34 31 16 9
30 50 15 19 8 26 26 27 40 49 46 34 81 109 110 89 106 181 255 304 322 412 436 480 562 336 298 177 179 106 103 144 114 79 48 45 40 39 -3 69 59 67 60 57 51 35 34 35 18
29 42 19 30 37 28 28 22 47 43 24 43 72 89 79 90 92 117 203 295 348 392 433 527 609 607 757 777 204 48 45 79 77 71 6 9 82 -2 27 52 68 72 68 60 36 19 11 -16 18
7 19 32 26 42 17 -29 61 13 3 32 88 83 57 77 117 131 162 134 142 316 402 431 434 521 567 442 339 222 3 51 58 88 12 13 63 83 50 22 39 35 31 36 27 26 -0 -2 34 39
23 17 12 28 6 -28 -51 58 16 59 45 82 80 84 155 153 123 117 128 149 301 448 528 559 588 571 353 326 176 71 35 62 49 40 48 43 27 22 24 10 28 24 3 43 22 31 56 49 52
23 16 14 26 -1 -13 8 23 31 10 79 114 77 85 98 124 124 93 112 143 200 255 365 680 639 628 443 197 177 204 -7 85 27 41 64 51 49 23 8 29 36 28 62 47 53 64 58 54 47
27 21 -1 4 -26 23 23 58 20 61 66 52 9 6 31 65 66 63 80 100 158 169 245 298 317 247 204 313 297 123 103 -27 -46 34 47 45 41 36 39 42 51 62 57 65 71 72 62 49 55
-6 15 28 22 -0 25 29 -11 65 92 65 52 56 61 50 50 31 82 18 74 196 127 197 259 150 76 111 247 497 302 -28 -32 22 12 -34 63 38 20 44 46 62 63 81 88 89 82 65 61 72
19 34 36 33 21 11 169 33 47 67 90 53 28 58 44 27 46 -23 -2 -1 13 64 47 -31 -90 -92 -128 -129 -102 -2 24 -8 -47 -48 -46 -30 -21 37 52 50 58 91 106 98 80 52 68 92 83
44 -16 -9 57 18 67 16 126 33 58 64 81 61 42 60 5 -67 -44 -17 -40 -85 -24 -12 -56 -106 -117 -0 -9 5 -3 -21 -25 -28 -37 -40 25 7 34 33 25 76 93 88 89 85 89 87 123 97
-4 46 35 65 25 19 1 63 58 35 51 95 86 48 28 64 31 66 43 56 59 60 69 29 -1 14 6 -8 -8 -13 -22 -29 -28 -18 10 30 35 45 29 57 92 70 80 89 90 107 107 127 142
22 -33 1 29 40 14 14 -5 47 57 46 65 98 63 58 35 56 44 61 67 17 48 52 46 10 -3 -15 -12 -27 -37 -37 -37 -30 7 23 37 29 41 34 57 87 63 93 107 132 131 145 149 150
-23 -24 4 30 42 13 5 26 35 70 54 66 71 83 48 47 66 43 42 75 55 60 39 43 43 36 13 -13 -30 -26 -20 -10 1 27 38 40 44 37 53 74 109 81 118 146 145 135 149 155 134
-14 -13 44 32 -0 -6 7 20 51 32 57 51 73 57 81 42 56 57 44 35 70 63 56 39 33 19 1 -8 -17 -26 -35 -17 2 23 42 41 30 51 75 101 122 113 116 148 140 134 138 136 157
7 14 46 41 32 19 68 50 63 59 39 57 67 62 62 55 45 57 46 37 31 23 22 23 24 21 4 -20 -24 4 -2 3 29 59 47 55 57 73 84 128 136 166 134 131 137 127 140 151 215
-49 49 10 20 29 14 -9 -2 95 -1 51 71 72 63 35 69 45 60 60 47 45 38 34 32 18 17 26 37 -15 23 -5 -4 18 41 76 83 94 111 131 164 173 170 133 154 157 167 150 188 230
-26 19 -5 3 30 -17 -4 16 73 48 26 31 68 51 50 45 74 40 54 45 49 49 51 57 38 39 32 53 47 19 55 16 -13 89 104 80 96 112 162 179 167 154 192 201 165 201 233 225 227
3 -15 -0 10 -1 -7 27 31 33 71 46 5 14 20 59 39 27 57 45 48 44 63 81 70 72 75 78 108 126 20 20 140 168 100 118 114 122 162 195 216 214 222 246 213 206 261 265 267 230
16 -17 -20 29 8 23 29 7 44 89 71 22 -0 38 31 27 55 33 29 47 54 60 82 79 78 75 95 162 137 210 47 172 250 209 189 216 276 328 210 199 269 259 241 303 286 253 283 252 221
35 5 -2 25 65 44 13 25 29 70 43 32 16 21 16 21 14 49 16 21 26 74 109 133 89 82 102 265 338 288 36 106 173 167 226 259 255 226 227 280 281 268 298 274 268 272 256 235 242
-82 29 5 -13 41 30 10 13 59 17 20 32 17 22 32 34 38 33 17 17 35 44 92 169 125 104 164 282 264 147 124 132 145 125 132 174 208 256 236 273 278 271 265 280 255 286 241 245 339
-0 16 -3 25 5 45 37 29 37 35 33 29 37 30 25 25 41 38 47 74 81 83 121 157 130 88 128 136 101 126 155 130 154 143 128 166 253 197 182 197 235 323 334 282 280 285 270 346 432
4 26 26 6 -2 53 77 30 48 20 17 56 18 47 35 47 50 47 42 48 59 71 110 109 87 52 84 211 152 129 144 138 149 150 183 203 183 172 194 254 311 221 292 336 286 407 366 487 407

GFSSGP_con_3kmhel_048.txt.gz
Helicity
-29 17 26 10 11 33 13 17 48 44 36 53 101 1 122 272 189 68 13 98 76 74 45 100 136 154 148 146 125 109 90 87 98 102 79 67 61 54 51 42 31 33 27 20 16 11 6 -2 -16
-20 -30 39 -36 -6 -37 26 59 21 36 84 118 25 82 58 64 42 79 -60 -13 156 -5 45 97 150 162 143 139 122 97 80 87 97 92 78 69 56 50 38 24 18 26 12 15 9 10 7 -14 -40
-12 -16 -15 0 5 26 -7 26 111 62 -6 25 8 21 30 131 171 91 81 46 63 84 99 78 123 141 158 140 110 91 88 92 96 85 82 74 56 45 34 17 11 9 8 13 15 9 -10 -24 -40
12 44 53 -7 -5 -8 13 20 34 26 6 63 65 35 188 173 -26 51 143 148 276 173 110 225 105 115 138 117 106 102 97 101 99 87 96 78 62 45 26 11 3 9 13 12 8 0 -14 -28 -37
51 3 12 26 45 14 28 56 21 42 49 55 96 70 166 227 110 189 126 145 252 254 233 252 189 89 121 111 123 116 112 119 116 98 108 90 74 55 36 28 22 25 11 6 3 -3 -10 -15 -11
-35 20 -12 20 37 25 157 181 72 43 4 56 88 67 58 114 69 185 69 109 151 239 224 232 271 180 134 120 131 134 132 128 124 108 118 97 81 78 79 56 43 29 15 6 0 -2 -5 -5 6
18 -22 -15 10 62 86 62 9 35 166 51 78 105 27 27 80 67 195 178 206 240 284 261 254 239 214 211 186 159 149 161 146 120 127 116 114 80 76 64 52 41 26 18 13 11 6 -3 -4 -1
16 -17 -4 24 16 24 43 73 112 8 33 12 53 134 55 35 82 211 250 223 281 343 401 425 406 261 158 139 194 207 188 200 148 102 99 96 66 75 67 52 38 30 28 17 12 4 1 -9 -16
20 17 5 34 72 60 47 18 39 220 42 177 231 152 63 61 127 217 273 269 310 357 446 464 436 321 282 227 108 134 143 131 97 74 82 58 57 55 69 56 45 37 28 18 10 10 1 -21 -20
35 22 26 25 21 60 76 35 18 46 57 53 -23 32 29 29 98 170 179 246 313 344 381 367 419 331 360 462 173 106 102 70 64 21 56 63 64 44 84 67 59 43 34 16 5 3 -5 -9 -38
33 12 -11 13 76 -10 -39 -43 -27 88 53 7 68 59 18 89 115 129 178 283 290 334 465 491 438 391 425 524 330 110 90 94 1 -14 63 59 70 44 97 58 36 25 19 2 -21 -21 -18 -6 48
4 1 -22 -24 39 8 9 -13 -65 117 102 55 97 123 147 97 110 120 147 186 310 348 348 388 420 363 469 417 283 265 393 -32 -8 18 66 17 49 27 54 5 13 4 -4 28 -7 -7 43 50 58
21 13 -31 10 20 -6 15 63 255 110 106 110 87 64 86 111 107 102 114 174 250 351 411 474 570 740 869 846 506 103 -3 52 145 108 40 5 -38 22 23 -20 16 4 10 28 37 70 45 60 56
-26 -20 -1 9 16 22 115 71 109 96 83 60 92 63 47 60 93 86 94 123 208 338 463 571 691 870 781 322 197 160 218 309 154 -12 -41 -72 18 53 -16 27 28 45 90 62 74 53 63 30 62
-15 3 23 22 5 40 139 36 106 64 76 81 86 82 84 54 39 33 56 134 152 219 306 367 328 329 330 163 153 206 204 -8 -32 -86 -52 26 81 2 29 59 54 89 75 89 63 105 63 88 59
6 35 53 56 39 109 245 32 -13 11 71 77 123 64 93 56 42 10 62 60 67 175 265 287 325 193 231 58 55 -51 -129 -89 -125 13 7 -4 10 -9 -1 65 76 73 108 116 131 100 104 58 69
49 53 23 40 61 57 141 63 27 -36 54 101 145 68 74 -33 -32 6 58 3 -2 -1 26 -18 17 78 44 -26 164 -181 -91 -60 -58 -46 -37 -30 -38 -36 -15 60 35 133 130 97 103 74 84 88 120
21 18 -14 156 43 -4 66 169 -17 2 73 111 127 89 79 16 23 30 13 -51 -45 -55 -81 -80 -119 -101 -118 -72 -36 -26 26 27 -27 11 -19 -19 -28 -10 15 13 72 128 98 106 122 130 118 139 118
-18 -11 32 83 70 35 33 19 167 45 -52 154 135 137 90 66 77 24 59 32 6 28 2 -12 -55 -101 -132 -133 -64 -40 -31 -26 -47 -48 -33 33 37 50 55 32 132 124 94 116 143 152 189 142 201
-65 -37 5 30 51 33 3 -1 219 -6 -33 135 151 182 135 117 116 76 133 80 49 79 16 13 -5 -31 -51 -49 -49 -49 -16 -29 -46 -58 -11 74 46 94 77 43 147 128 96 153 197 213 196 138 184
2 -16 -21 64 13 13 -7 16 90 69 42 101 104 190 198 177 171 122 124 64 104 118 50 7 50 30 -7 -10 -43 -50 -10 -18 -37 -18 54 123 112 73 68 60 134 165 110 196 246 212 161 162 228
-4 -20 -13 25 22 -10 65 -6 25 10 176 61 122 150 158 142 193 109 105 112 100 118 107 54 83 55 35 22 -28 -19 14 5 28 13 84 96 75 69 49 103 129 200 197 223 279 212 160 164 238
-17 19 -36 -13 47 40 36 -26 20 52 39 70 119 140 148 167 160 203 106 78 176 118 189 106 104 90 58 8 -7 -23 49 13 13 99 108 232 165 108 77 120 174 217 267 244 239 214 183 198 285
-17 8 -8 -12 -1 -18 42 32 91 79 -21 -26 122 96 108 161 182 222 163 81 80 94 149 146 90 107 112 138 25 -14 -3 44 5 122 199 229 146 127 158 125 192 252 277 208 241 283 306 348 302
6 -6 -8 0 -9 32 16 13 54 61 15 39 81 123 119 89 132 191 186 160 118 117 136 100 100 66 61 162 114 26 73 62 43 15 234 303 210 129 115 140 192 280 271 261 290 380 409 321 268
29 1 -6 -12 -10 -47 153 10 59 35 -14 46 46 3 68 123 145 192 194 223 162 149 172 177 157 113 82 96 178 199 122 179 112 87 166 283 240 127 115 260 306 312 319 304 339 407 397 280 215
-3 13 -42 74 28 -4 37 -7 -12 71 42 31 12 24 32 -1 93 137 164 193 236 226 212 246 200 158 111 181 276 350 229 153 78 170 157 201 229 256 351 349 330 306 311 318 364 451 382 214 171
-64 -6 -26 -37 -34 3 -1 -1 79 69 57 80 1 13 44 61 36 23 123 156 202 264 289 316 304 190 167 155 334 376 324 172 140 131 181 199 215 245 312 290 292 300 318 409 410 397 315 224 322
16 -33 10 -57 30 -10 -25 -1 79 58 24 30 23 75 45 26 61 46 59 64 129 172 278 311 331 255 249 256 412 403 352 283 191 201 186 196 231 279 287 272 261 293 340 425 425 295 292 381 453
-20 24 -7 52 48 12 80 -56 31 31 2 34 65 39 82 58 26 46 28 59 109 181 142 225 234 250 276 320 329 218 167 219 215 199 194 214 264 268 254 226 245 302 424 468 392 321 334 370 509

GFSSGP_con_3kmhel_051.txt.gz
Helicity
1 -10 2 0 72 67 6 47 175 97 85 9 -5 -35 19 5 87 112 9 -114 -18 15 403 30 102 119 116 140 141 133 111 87 79 89 91 85 76 74 65 68 61 53 48 51 44 31 31 47 45
3 -15 38 30 48 14 27 147 195 25 -30 112 122 110 77 144 159 75 46 -55 35 197 323 199 29 121 122 119 120 105 96 86 79 89 91 89 75 78 71 62 51 45 43 38 22 15 10 21 25
-11 12 8 25 21 119 125 114 -38 68 -17 -8 0 39 60 105 142 69 87 -10 17 -13 24 34 187 116 128 127 128 112 100 87 87 91 96 93 72 75 65 51 42 35 28 20 12 10 8 24 45
-5 -5 -12 18 12 87 182 70 80 51 38 40 19 80 27 51 55 -7 101 69 125 35 24 46 161 132 130 140 128 106 97 90 97 102 102 86 67 61 46 36 28 22 17 16 15 6 6 16 37
1 -1 45 100 137 178 51 19 -19 85 49 9 -12 51 64 1 57 28 22 142 185 197 158 110 127 155 181 154 131 118 104 101 109 110 106 89 65 45 32 25 26 18 7 1 3 7 3 11 43
13 59 60 30 92 -37 5 22 0 60 -9 11 -13 7 20 80 96 167 135 195 184 207 203 232 160 188 149 136 130 118 115 120 131 133 124 107 66 46 33 34 24 10 2 -6 0 10 18 21 49
57 49 54 59 105 -20 -31 38 43 85 75 62 -54 -36 30 32 33 151 110 131 214 213 279 240 225 282 241 173 139 146 135 151 156 140 132 136 100 73 51 37 17 10 -3 -1 0 6 14 36 68
46 120 17 52 63 -36 45 6 6 30 -38 -55 -19 44 76 94 58 125 124 206 263 254 254 280 351 260 204 120 154 159 147 144 149 145 139 129 106 77 48 31 14 5 2 -5 -6 -10 3 35 78
-24 3 72 170 4 50 52 30 11 58 104 104 53 68 50 96 36 104 139 188 264 401 336 431 364 335 205 152 164 109 131 132 107 125 131 124 76 56 38 19 24 8 -3 -5 -15 -25 -20 4 34
39 116 154 127 60 49 51 55 20 85 45 53 94 100 121 102 71 86 106 202 261 277 381 359 309 277 322 157 283 226 105 137 149 163 125 106 69 46 33 38 43 15 -1 -10 -16 -16 -3 23 29
68 105 89 4 42 45 31 101 204 35 16 40 57 87 227 149 128 176 236 215 232 289 284 303 324 266 243 254 281 195 107 127 135 124 88 96 57 43 74 28 55 33 2 -13 -20 -8 -4 8 8
33 34 -17 -23 41 28 69 37 19 25 9 65 113 162 164 104 103 111 192 212 284 289 289 304 341 341 276 434 446 468 477 200 139 73 30 73 76 9 4 51 36 28 -10 -23 -12 -9 -22 7 24
-32 14 -17 -7 26 149 143 37 -30 92 23 53 96 127 158 167 107 90 162 233 251 348 367 351 394 407 399 376 358 467 325 134 141 82 66 39 28 8 -4 34 19 5 -7 -8 10 10 29 39 55
-34 -66 -64 -28 40 106 117 57 -9 28 76 76 49 74 122 151 91 92 129 204 255 352 377 391 438 385 566 438 664 649 621 242 167 126 155 13 -38 -63 11 33 -24 -28 0 20 41 47 51 38 47
-3 -35 -55 4 48 176 125 27 94 57 70 139 100 84 121 119 29 37 109 184 278 389 459 478 425 443 565 801 892 650 324 286 198 163 -8 -40 -23 17 42 1 3 -6 47 76 100 78 53 52 46
-34 -38 30 51 92 145 244 94 93 71 39 264 202 88 80 1 19 47 70 131 181 189 299 370 430 382 362 346 229 49 30 114 119 31 13 34 62 56 8 -4 34 51 94 140 126 114 87 69 84
-34 83 115 96 138 115 182 124 15 73 162 151 210 78 69 -10 66 49 12 114 145 134 144 169 228 269 194 107 3 47 137 163 165 -132 -32 37 -13 -4 -34 -29 -7 93 126 152 140 114 114 96 106
20 56 80 147 57 178 208 128 80 61 119 176 193 111 112 63 93 51 2 58 119 53 15 36 25 61 25 18 -9 -13 -10 19 -139 -109 -84 -63 -45 -42 -41 -29 -1 119 145 134 138 119 102 116 129
81 92 -5 -32 108 64 158 184 94 28 -38 182 263 198 118 82 99 70 19 -11 -49 -6 43 50 52 75 72 5 -77 -178 -173 -109 -117 -105 -80 -73 -50 -49 -24 -39 113 113 127 123 137 147 153 169 178
42 -45 -65 49 -1 89 130 106 67 17 -28 168 345 266 172 134 111 99 59 6 -44 -27 -8 -6 -36 -58 -61 -103 -160 -139 -111 -124 -73 -63 -73 -32 17 13 39 49 72 135 126 127 163 198 200 182 206
-23 -19 -36 -26 25 46 20 158 82 -31 81 8 293 349 228 200 128 89 115 49 21 35 27 19 -25 -138 -221 -230 -158 -121 -91 -103 -65 -57 -76 -44 57 117 101 66 105 150 152 122 194 255 241 214 191
-28 -4 -22 -57 -3 -23 45 10 34 77 294 16 192 350 306 256 181 152 107 97 72 19 30 44 28 -22 -83 -98 -90 -51 -47 -34 -18 -35 -55 21 126 117 115 62 95 183 186 132 217 264 286 260 249
-13 14 -12 -75 -67 15 30 51 6 222 264 94 -6 270 281 330 250 229 198 126 49 51 60 54 64 43 14 -7 0 -16 -25 -28 56 38 21 89 128 150 144 134 110 141 210 218 217 265 269 254 321
-67 59 53 -32 -46 -59 -14 7 19 44 138 160 226 206 293 270 288 244 185 154 97 72 66 88 85 95 57 86 36 -6 -7 13 54 62 77 135 100 123 131 123 99 200 221 244 239 233 273 312 319
-48 23 -16 -52 -10 -4 -53 -75 30 13 57 155 131 268 273 330 306 248 226 168 160 143 127 104 118 110 102 74 49 57 34 3 59 102 154 255 231 209 205 183 92 162 217 257 284 329 416 436 373
13 74 55 0 -22 -56 -93 -23 -11 18 -34 -14 41 191 232 278 305 287 306 262 225 214 184 200 176 169 151 151 86 67 58 159 183 138 132 215 243 263 145 132 85 177 263 262 323 411 451 417 417
66 61 65 65 37 -41 -22 -32 -1 -29 -2 33 21 34 110 233 270 311 273 320 304 295 265 348 279 226 198 194 223 144 40 98 161 206 193 223 229 222 199 175 169 216 273 314 379 407 417 405 379
78 58 13 88 -3 -20 -12 16 14 187 14 67 77 57 52 118 240 285 310 320 315 360 353 386 372 325 278 324 329 251 144 248 227 254 261 189 151 188 196 204 239 288 302 340 373 367 406 357 381
171 33 41 30 61 21 18 16 26 72 101 46 31 81 95 71 75 94 140 237 283 333 314 321 275 196 140 226 254 365 363 385 318 255 195 188 159 179 189 215 268 294 319 329 363 370 361 310 424
171 116 95 76 29 103 119 43 18 15 -13 -34 87 106 137 147 140 101 61 122 124 230 423 426 416 493 79 160 260 294 383 281 256 402 287 240 223 173 203 248 283 288 319 351 379 360 379 429 368

GFSSGP_con_3kmhel_054.txt.gz
Helicity
21 32 17 49 34 15 42 -18 106 119 86 145 57 29 91 91 31 120 85 19 148 191 78 108 94 119 134 148 144 138 127 120 122 133 150 142 141 141 144 122 99 80 66 71 85 82 64 45 14
23 27 17 38 24 99 23 45 50 13 -7 29 69 13 45 17 56 74 52 -21 95 86 46 239 208 147 82 135 123 115 115 105 119 124 140 131 129 122 112 101 77 68 61 57 60 64 65 40 24
15 -2 0 -18 42 118 61 85 -44 16 104 15 15 30 14 16 36 60 17 41 113 69 134 216 258 160 158 115 131 131 111 91 101 100 112 123 110 109 96 77 59 53 51 46 52 62 55 43 42
33 -16 -5 16 52 117 237 49 -15 9 72 100 33 82 73 68 66 36 46 85 94 8 71 60 159 319 209 194 215 137 101 96 97 98 107 106 97 86 73 64 58 47 41 43 50 66 83 90 54
-4 -16 -9 34 68 184 106 123 4 104 122 108 99 102 66 62 72 92 72 70 138 3 64 22 140 161 124 321 173 185 116 112 106 90 92 94 75 73 72 66 50 37 43 38 48 81 105 109 104
23 6 57 117 133 156 124 74 36 23 10 37 97 63 22 18 74 166 111 78 97 228 82 76 29 83 172 128 109 130 115 118 98 85 88 97 88 66 64 51 39 28 29 38 50 75 97 90 97
69 48 73 102 141 149 11 33 72 34 -9 0 24 37 54 26 57 113 135 165 123 183 174 189 134 161 169 172 301 55 113 126 112 99 87 101 83 65 55 48 35 27 34 49 57 66 96 119 88
44 12 51 71 75 39 35 57 48 23 14 23 41 64 14 78 112 204 198 190 107 199 243 239 264 217 277 326 384 269 110 153 150 139 129 131 105 74 59 43 30 21 28 36 39 61 106 172 159
-6 20 73 104 134 27 56 66 89 68 55 62 25 58 53 79 86 146 148 119 204 252 237 283 314 411 440 231 137 20 79 121 145 140 170 154 96 71 40 15 16 4 2 10 37 83 115 142 114
5 18 70 109 101 126 89 65 45 130 68 61 38 36 58 99 118 49 42 70 88 234 312 341 333 274 194 56 56 -27 192 119 133 150 160 151 102 71 43 15 11 -10 13 26 48 69 78 101 71
23 68 163 183 59 121 54 60 59 63 75 78 61 41 57 72 65 66 156 133 213 298 341 327 313 264 190 224 51 28 61 103 150 131 150 120 136 111 38 26 -17 -15 19 20 23 29 26 50 48
-4 106 175 85 67 78 36 78 46 27 101 109 77 83 75 100 46 83 163 166 207 244 255 244 221 152 102 46 76 86 81 124 162 135 112 121 65 66 6 9 -39 23 15 10 12 13 27 41 36
4 -49 19 21 48 84 122 166 173 144 127 103 80 66 94 118 77 75 147 138 210 276 252 204 186 191 182 106 119 168 281 239 173 124 68 48 80 38 36 -14 20 27 15 10 2 -1 16 33 42
-79 -78 -1 18 26 29 136 164 148 117 138 156 100 89 111 126 99 74 97 141 167 182 219 220 251 255 288 280 218 261 192 192 113 105 50 31 55 44 48 -2 24 19 20 22 10 26 25 41 43
-21 -58 -29 -60 3 58 151 187 159 152 112 133 99 128 176 65 16 6 70 119 192 228 245 261 240 315 376 341 316 441 363 314 301 233 65 34 88 109 25 -62 15 20 5 18 17 40 43 54 40
-41 -80 -54 -34 39 93 157 138 106 224 212 135 91 105 99 92 103 68 49 143 214 224 216 254 295 269 324 303 293 558 535 420 263 250 163 146 127 129 -13 -14 51 -1 -26 50 66 81 68 53 59
-41 -21 16 36 67 144 122 70 92 237 254 239 131 114 52 93 98 84 65 106 116 123 199 278 253 186 338 317 243 491 518 616 315 295 221 94 140 65 54 54 47 0 33 85 124 102 116 100 81
-8 -13 -33 42 27 174 71 147 124 160 235 235 172 114 60 104 86 87 95 147 41 57 114 193 216 203 197 197 237 321 406 331 259 171 132 107 68 44 35 0 41 60 85 121 147 162 131 115 118
-23 4 78 147 124 122 80 88 138 137 169 183 183 136 73 104 78 79 83 70 77 109 87 78 93 59 50 32 -12 89 77 116 202 143 2 -34 -23 -32 -34 -11 75 101 114 130 149 153 138 129 136
-31 -4 54 33 35 63 37 100 62 105 83 116 190 174 147 95 106 73 50 36 7 25 74 75 58 11 -23 -50 -63 20 22 -38 -49 -72 -109 -105 -70 -59 -38 -20 98 129 133 116 139 180 194 162 200
14 61 78 30 -12 66 129 57 102 22 -31 65 156 216 201 215 150 92 71 47 20 21 31 46 30 41 -48 -25 -29 -46 -51 -84 -161 -240 -193 -155 -86 -53 -33 -36 89 106 118 123 147 190 232 232 222
48 38 -20 -2 14 -41 33 25 34 94 19 24 159 226 261 216 138 122 103 86 38 13 -15 11 17 -7 -85 -68 -95 -179 -185 -154 -159 -191 -163 -113 -57 -41 -21 42 105 124 123 123 155 189 244 273 253
9 13 10 43 -7 -42 -63 -24 -11 131 65 55 153 204 228 266 251 189 109 100 37 42 23 -4 5 -10 -92 -148 -153 -174 -133 -126 -124 -123 -59 -44 -56 -33 20 70 121 150 188 142 170 201 254 270 269
11 42 74 82 40 -84 -24 -37 -112 63 198 178 123 171 228 280 240 178 155 100 59 40 42 6 10 -45 -102 -168 -131 -92 -77 -68 -86 -108 -90 -51 -48 -2 66 84 84 160 151 148 173 179 211 230 312
30 107 51 41 24 -18 -31 -29 -14 103 181 285 194 214 188 278 275 191 155 163 135 141 94 67 54 2 -31 -43 -29 -16 -21 -47 -63 -58 -49 5 11 95 142 175 187 261 36 112 162 205 235 310 386
70 87 79 41 5 -10 -25 -27 -21 -9 27 131 165 197 211 231 259 271 233 198 169 207 172 146 134 86 75 72 35 33 15 8 -29 -55 9 36 61 119 185 193 200 146 126 160 193 225 302 358 416
45 102 69 133 107 8 -65 -89 -56 -40 16 56 91 139 180 252 276 247 235 214 208 191 246 235 201 153 135 145 87 50 31 31 44 42 67 154 150 122 197 261 201 158 173 209 257 307 346 356 376
90 117 149 170 65 12 -64 -12 -11 -22 4 3 37 80 146 237 288 250 257 240 271 296 264 268 253 218 149 150 149 91 46 3 23 44 86 120 159 176 137 208 222 172 219 300 301 341 340 364 345
66 83 151 118 147 73 -1 -23 11 18 57 57 26 79 93 162 224 261 270 249 235 292 300 296 252 199 144 199 185 188 106 48 122 93 176 209 214 255 114 217 222 216 259 317 326 343 359 346 339
85 35 151 163 163 183 119 -78 31 39 5 23 55 49 76 100 116 162 228 291 251 267 320 363 376 347 207 144 290 386 214 236 282 303 79 192 284 250 245 190 188 218 270 290 325 334 323 355 393

GFSSGP_con_3kmhel_060.txt.gz
Helicity
31 42 26 25 129 216 272 136 68 83 27 7 14 24 6 28 36 20 51 47 164 238 312 363 383 321 266 222 290 262 287 219 212 247 230 226 209 191 190 185 169 152 118 96 81 79 71 67 61
30 35 20 18 199 282 184 79 115 61 14 3 25 33 68 39 38 18 34 19 146 232 252 257 315 318 236 304 324 267 201 162 258 189 215 201 180 179 180 171 179 142 98 70 56 62 76 70 59
29 16 52 101 182 204 81 85 90 73 17 33 55 49 59 52 46 48 50 45 149 198 230 283 256 168 226 311 334 235 210 198 256 233 206 166 149 140 161 185 165 120 83 55 43 55 65 68 61
39 25 22 136 222 72 87 79 84 19 48 60 49 62 71 77 68 60 68 34 122 130 179 287 269 194 157 186 241 304 283 197 209 217 175 123 112 123 171 162 130 105 83 76 71 72 50 52 41
42 40 103 202 167 73 81 77 23 18 19 57 87 89 98 145 119 92 100 51 51 65 117 141 166 126 103 213 315 372 306 186 167 196 150 120 103 120 153 154 142 102 73 76 62 58 43 30 16
98 72 149 241 166 62 39 34 49 57 60 88 127 105 116 141 146 85 82 61 76 92 108 150 114 108 73 157 215 328 174 95 103 172 156 118 97 132 142 173 152 87 70 55 49 38 34 11 -1
107 101 133 195 134 63 40 28 41 75 136 168 171 123 143 85 111 67 80 71 65 102 146 164 120 146 236 217 279 274 131 38 151 156 156 128 114 140 154 160 111 94 71 73 64 39 16 7 -4
115 96 148 152 166 75 10 40 80 125 135 200 179 161 167 127 77 93 115 120 86 70 127 155 246 310 267 402 414 418 314 128 111 160 168 144 131 115 132 150 116 104 91 63 41 21 15 12 -9
106 104 144 175 146 70 95 86 88 138 178 217 196 205 123 57 60 120 144 116 91 103 82 177 269 308 346 275 101 65 93 191 59 149 165 149 173 134 149 148 132 114 103 75 29 8 15 14 13
125 73 112 63 56 88 36 83 120 165 181 175 209 154 97 62 73 78 96 68 61 74 120 270 229 369 518 323 114 219 218 126 -7 99 179 182 162 123 135 144 134 117 108 87 68 26 33 27 17
130 32 79 36 41 60 63 51 147 175 150 143 157 135 84 42 73 68 71 50 28 95 130 317 231 365 177 102 103 89 72 37 6 39 214 186 155 135 150 150 139 102 102 69 74 44 7 19 20
147 23 49 21 16 39 81 91 142 205 148 170 149 141 85 89 87 59 53 58 70 81 183 160 20 4 131 246 245 126 147 -19 3 95 197 157 162 124 109 97 75 65 37 45 74 56 41 32 28
164 28 67 3 -11 35 75 77 96 192 146 185 177 118 100 119 135 64 35 77 103 138 199 114 135 109 72 -32 6 128 197 122 93 62 103 118 140 95 82 61 21 45 40 59 81 75 61 41 39
125 95 17 -4 36 85 40 92 152 174 210 178 169 97 74 100 129 63 27 57 116 185 191 192 215 181 92 145 178 108 131 155 201 139 139 130 90 60 51 27 41 55 28 41 53 54 48 42 41
92 62 32 37 4 -2 63 67 201 191 234 190 131 87 78 81 60 83 79 42 70 193 246 189 205 173 164 135 130 64 46 47 81 184 94 96 58 51 39 57 60 56 36 60 85 78 57 45 40
82 99 97 38 -1 8 29 13 29 109 240 151 117 94 89 78 61 54 100 152 78 98 151 201 205 207 127 159 184 117 111 94 52 65 99 78 12 34 80 42 71 41 11 76 77 60 60 43 36
118 60 87 37 12 37 0 -8 48 64 129 123 126 100 79 68 86 77 59 113 132 74 108 149 141 123 146 137 219 169 52 87 65 136 126 39 13 26 61 101 101 60 23 78 83 57 65 48 40
100 92 65 71 8 36 15 88 36 97 194 147 121 108 77 74 96 101 86 121 112 78 82 168 137 163 157 149 318 88 168 128 53 129 56 69 37 75 81 76 88 71 54 72 84 79 73 58 57
91 98 120 72 -6 -13 17 34 55 46 159 170 105 93 94 60 94 104 99 109 104 38 83 115 132 198 203 240 186 231 203 177 141 187 124 135 116 141 61 43 173 68 80 46 81 101 71 80 91
112 87 79 88 9 8 -38 -10 -9 47 109 188 103 95 96 108 116 126 110 105 107 81 35 119 146 146 305 189 192 276 271 290 297 180 223 224 262 183 150 89 102 78 88 63 86 122 120 101 127
116 108 85 81 97 61 46 -44 -31 8 62 103 89 58 80 135 154 142 134 119 133 116 102 81 57 58 163 274 301 231 290 302 230 219 302 366 274 83 96 137 70 75 77 90 95 112 133 131 155
96 89 75 56 133 15 78 11 -54 -27 -24 28 98 104 99 125 148 129 121 98 122 120 97 102 103 60 36 127 190 167 152 183 96 200 292 252 214 -12 67 28 29 47 83 98 74 118 160 191 166
44 81 84 114 163 120 105 65 -47 -48 -76 -10 111 145 112 122 165 178 144 106 104 124 102 66 79 99 66 78 47 -2 -41 -83 30 85 -7 72 38 -42 -3 -1 1 36 86 104 121 160 179 211 226
77 69 110 125 134 82 59 82 10 34 46 18 13 114 126 127 134 150 153 138 97 119 127 75 34 59 54 59 21 18 17 10 -17 12 19 -23 -94 -80 -40 -41 -8 20 -34 123 138 189 165 147 169
161 178 210 176 184 122 86 89 59 73 56 89 71 52 132 155 124 154 201 169 148 138 147 126 71 17 7 -9 -3 -36 -86 -67 -56 -52 -21 -61 -126 -145 -128 -125 -120 -98 -92 -53 135 134 168 204 143
226 210 217 131 142 108 137 62 -25 21 41 82 42 27 53 133 109 125 177 188 169 161 143 146 130 71 45 8 -33 -52 -55 -83 -105 -155 -170 -184 -180 -245 -215 -176 -94 -36 -62 13 135 157 193 213 198
167 240 137 145 122 106 102 88 42 17 16 47 27 32 25 104 149 139 139 183 192 191 186 178 141 107 97 66 16 -26 -34 -37 -76 -84 -100 -133 -166 -166 -132 3 25 2 71 102 113 126 178 181 193
153 114 201 235 125 112 110 88 55 39 62 43 14 0 2 54 82 126 151 164 185 199 215 190 188 152 126 104 74 21 -17 -35 -58 -100 -113 -96 -88 -46 -14 2 43 54 21 27 132 160 194 178 197
190 172 162 153 186 131 112 70 39 41 59 69 55 4 11 45 101 126 149 162 173 202 235 225 207 195 169 152 120 110 96 88 69 23 -8 19 27 34 66 90 45 25 79 126 126 156 192 195 216
166 116 126 170 173 173 138 121 108 -6 33 63 28 40 38 38 70 92 100 124 168 220 244 263 231 235 244 226 171 117 80 62 100 137 106 120 77 109 98 129 175 184 226 157 163 170 198 198 224

GFSSGP_con_3kmhel_063.txt.gz
Helicity
46 45 26 31 96 188 247 172 71 68 43 12 8 23 14 -5 -7 15 33 58 82 126 194 188 231 261 333 346 228 224 230 242 245 216 361 246 209 211 210 174 147 130 108 87 81 65 58 48 62
49 45 32 66 111 164 169 91 50 30 26 7 21 20 31 38 69 59 70 25 94 157 120 161 214 234 259 261 218 237 270 273 244 222 228 222 223 216 191 159 136 129 102 93 78 64 51 63 58
54 37 64 128 158 128 116 67 65 54 8 23 32 56 78 80 83 89 65 42 93 140 131 152 243 170 244 227 259 224 255 258 234 256 233 201 217 192 174 144 122 104 85 105 88 60 54 49 49
62 61 66 143 153 107 94 68 68 16 21 31 47 50 81 102 127 141 111 106 151 175 158 262 128 139 165 165 191 241 222 254 236 288 221 195 204 196 156 121 78 63 61 88 56 47 55 51 68
79 67 116 166 169 128 59 35 26 25 47 62 110 92 104 101 128 102 122 96 133 226 194 262 181 262 50 202 201 200 225 287 256 245 195 220 196 182 131 98 99 92 85 46 65 66 64 54 55
115 74 109 176 182 122 66 38 56 50 46 82 125 124 116 156 130 120 96 92 111 150 142 220 281 244 125 162 110 156 234 281 296 195 227 175 187 165 123 94 96 92 71 80 66 53 42 14 22
113 102 92 166 149 159 92 61 44 48 62 62 154 138 154 172 117 97 68 94 114 76 121 158 237 248 249 133 69 133 218 260 301 218 177 209 197 155 114 89 76 62 65 64 55 40 13 21 25
117 112 105 146 160 177 80 67 56 54 44 116 168 130 166 160 89 70 84 95 104 87 106 137 111 155 155 195 178 203 297 252 219 243 207 257 218 167 115 86 67 59 56 65 31 20 16 21 12
116 126 100 123 163 126 88 36 63 60 107 140 171 182 183 109 75 54 88 123 147 111 68 121 170 241 251 241 281 417 395 320 271 248 235 273 221 155 91 77 71 62 70 50 24 21 36 30 16
154 116 78 84 102 110 46 60 46 62 110 145 147 174 143 120 95 83 86 99 75 73 62 117 210 331 421 443 414 411 356 285 309 233 208 233 208 188 98 74 89 62 37 19 22 31 40 11 1
155 69 85 70 50 29 59 97 78 63 111 136 153 134 133 88 97 124 89 62 72 99 -32 239 288 680 506 519 502 414 208 134 64 133 243 207 212 192 144 92 70 43 38 8 25 31 3 2 -4
144 36 67 -0 25 68 63 91 79 91 138 191 197 143 122 85 96 118 91 77 50 97 123 343 304 202 259 198 135 194 228 170 219 203 186 181 205 171 160 104 71 58 19 16 -11 -4 -3 14 11
135 43 72 4 19 20 66 44 46 113 178 242 224 158 107 86 65 58 38 27 7 35 134 77 67 58 105 196 190 183 170 222 213 110 149 173 188 170 108 100 68 58 26 31 15 2 24 27 24
128 66 64 25 -9 53 32 12 44 87 198 252 202 121 99 76 58 22 50 45 66 91 92 -4 -13 52 48 30 117 170 204 216 199 154 118 133 184 126 90 94 64 57 32 17 10 37 34 19 36
146 42 44 22 43 62 43 -7 80 83 142 182 162 92 99 63 66 10 51 62 83 137 151 166 76 74 109 116 43 59 181 112 140 48 79 104 96 98 94 63 32 17 38 28 42 43 44 43 39
152 99 36 77 82 56 3 -28 -0 42 116 115 138 102 73 55 73 24 48 82 98 94 145 136 170 159 152 127 136 130 180 200 121 199 103 113 108 120 70 56 22 3 96 52 48 36 45 40 31
168 87 56 62 54 55 11 -68 16 9 63 106 130 140 95 44 53 48 30 99 114 118 89 124 171 161 198 189 129 169 153 155 71 162 234 104 78 55 66 63 53 47 97 65 35 37 60 46 31
174 143 81 83 105 78 24 5 46 24 73 97 138 149 129 72 52 55 53 85 127 33 109 145 109 130 144 199 74 138 124 102 143 21 -54 -23 8 55 63 50 66 72 82 71 48 50 49 41 39
146 127 95 57 82 74 29 -5 50 13 45 86 127 125 136 92 62 65 65 80 66 -15 62 67 141 127 142 189 177 145 123 -73 -7 49 -43 -4 57 51 74 92 84 61 57 57 64 63 45 69 68
139 116 24 22 84 58 48 -15 -26 3 10 56 91 87 136 105 94 84 70 56 63 10 46 43 84 137 138 157 101 171 108 -64 47 5 107 78 63 114 87 78 91 61 27 57 62 71 79 63 96
109 111 62 19 109 72 89 63 -16 -82 -17 21 47 48 105 157 119 89 70 58 74 105 76 59 82 87 182 149 260 285 220 206 130 74 142 214 53 67 96 78 106 64 59 85 56 44 23 74 103
90 90 77 61 75 58 107 4 3 -78 -97 -29 7 74 77 124 121 104 93 72 67 85 108 133 78 90 116 190 227 101 198 222 133 183 194 149 66 109 133 163 176 57 69 68 62 44 60 105 101
60 99 75 75 77 81 81 63 61 17 -63 -36 2 63 99 96 141 124 112 74 63 43 96 124 136 134 78 98 70 126 147 113 176 228 176 131 137 138 225 243 94 37 49 70 52 83 81 91 138
75 114 145 139 123 39 45 77 3 48 15 12 10 1 47 76 92 90 100 73 59 53 43 99 131 116 133 112 68 39 35 38 92 140 78 5 -7 48 236 205 82 53 59 45 53 53 73 101 134
146 162 215 158 141 113 96 69 47 23 78 52 93 94 16 56 78 91 131 121 88 83 84 79 114 85 72 60 70 29 31 7 23 52 14 -54 7 36 7 99 53 43 33 33 43 53 81 112 153
132 185 287 143 118 96 143 21 28 21 -2 48 106 86 23 80 87 94 111 109 117 108 104 91 88 73 73 62 41 18 3 -5 -54 -32 -59 -20 -6 39 80 38 3 -11 9 16 16 34 51 80 193
170 232 173 186 190 115 110 65 25 16 31 29 52 48 15 65 93 97 88 87 86 111 113 107 101 89 78 49 30 4 -33 -43 -51 -42 -65 -61 -87 -27 -72 -10 -23 -23 -21 -3 15 31 26 75 143
117 124 181 249 137 98 106 65 37 22 78 64 59 39 5 -10 40 43 69 73 88 101 104 114 99 119 125 92 50 27 17 -13 -29 -73 -51 -26 -50 -58 -39 -33 -27 -24 -0 9 28 28 60 91 145
167 164 202 178 205 114 64 46 53 11 67 37 92 75 20 9 32 48 56 46 66 99 123 123 128 117 114 119 110 82 63 42 25 6 2 7 -16 -35 -56 -48 -35 -4 55 75 73 49 54 73 96
113 136 174 193 173 210 160 101 90 8 24 41 89 70 52 37 26 60 57 73 89 105 138 148 132 131 155 157 147 138 114 94 60 29 27 75 72 77 72 33 19 68 117 129 142 110 134 177 183

GFSSGP_con_3kmhel_069.txt.gz
Helicity
26 13 3 7 14 52 -12 67 42 33 27 55 32 19 25 56 18 49 54 35 11 82 181 132 128 87 76 83 107 152 192 227 224 164 138 98 98 76 78 112 96 102 93 83 79 82 90 109 121
7 13 8 0 34 -6 32 95 69 26 44 60 32 25 20 14 66 30 48 55 24 53 138 132 126 105 117 123 124 145 205 228 238 196 162 141 103 90 94 124 122 103 85 72 82 96 98 116 111
-26 -3 4 51 48 -6 20 79 29 41 35 22 24 47 27 38 75 63 75 69 38 42 95 171 154 121 141 150 145 156 219 225 222 205 197 168 143 121 126 122 135 98 64 81 88 96 99 90 87
26 39 35 34 -2 25 59 48 44 14 56 25 12 9 65 105 45 67 107 72 60 43 99 196 146 150 102 112 142 165 213 217 219 222 206 194 175 158 139 120 113 101 85 95 90 84 83 93 78
7 4 33 43 14 24 47 23 35 15 18 31 27 9 20 132 100 75 85 87 55 61 114 169 137 147 145 139 57 71 189 212 207 250 247 202 195 162 138 114 104 117 116 114 79 81 73 83 71
44 22 24 15 15 87 46 19 18 18 16 7 51 12 31 118 104 119 77 78 80 63 75 95 98 87 103 137 114 19 69 220 226 255 224 219 194 150 128 102 124 138 128 106 90 84 74 79 49
20 10 25 -22 -5 45 53 68 35 -3 -11 13 46 60 40 116 142 103 84 76 82 46 72 83 98 134 239 181 104 -25 48 226 223 252 202 222 187 160 126 109 132 124 118 98 90 72 73 59 37
17 18 -9 -15 18 6 67 70 9 13 -4 61 46 37 37 147 155 103 101 73 128 66 63 76 72 77 129 121 121 -61 77 171 215 222 230 212 175 164 131 136 115 132 110 110 91 78 85 55 39
30 24 20 -12 14 18 68 92 1 43 5 16 63 32 87 136 103 81 91 66 111 106 83 77 60 75 83 107 127 124 88 16 168 214 232 192 136 112 94 88 111 136 128 104 89 98 80 55 20
45 43 2 -27 39 14 31 28 17 45 6 19 77 114 97 78 77 77 105 130 133 163 116 58 42 71 82 130 140 101 74 131 148 179 211 163 125 97 149 123 148 160 125 102 103 81 59 12 29
51 14 -41 1 48 -13 22 16 11 28 0 -11 73 55 136 102 89 88 108 164 156 106 62 54 -45 42 85 156 220 193 186 145 256 259 360 229 125 131 189 151 174 135 110 93 81 49 -2 37 22
39 -4 -3 -25 22 30 31 4 7 4 2 24 41 55 90 97 78 88 92 115 109 34 28 58 78 100 188 180 290 283 339 345 350 263 207 344 234 178 115 152 156 126 106 78 61 18 24 26 32
37 1 5 18 -8 7 25 8 17 6 -3 8 87 64 67 91 91 98 94 97 85 39 57 84 76 91 200 155 255 405 344 320 276 402 338 381 139 171 97 141 134 103 98 56 45 29 26 29 25
19 19 6 -21 5 16 33 26 18 17 4 14 56 43 70 76 99 111 87 91 85 87 88 88 96 160 171 151 168 437 424 357 412 376 254 122 84 91 40 86 94 71 79 54 17 41 31 28 30
36 42 16 13 -1 -6 -4 19 27 29 20 20 39 42 75 78 117 90 110 105 94 74 117 82 72 70 114 173 280 266 278 548 276 380 150 70 232 100 98 74 88 55 83 43 43 23 24 34 27
63 24 24 -10 48 33 32 -12 10 65 60 26 48 59 70 86 88 100 118 113 133 86 110 87 54 55 108 193 429 341 653 602 375 350 259 141 59 61 67 104 147 157 124 65 31 10 33 36 42
37 33 4 -11 42 35 92 -6 23 63 45 10 41 51 67 67 94 114 121 124 152 138 174 81 36 35 40 83 134 155 192 221 251 236 177 82 3 48 72 60 76 81 91 47 37 18 18 38 38
40 22 5 29 50 92 38 45 -1 56 52 28 15 60 76 66 100 124 116 150 147 190 175 49 38 49 66 38 70 129 180 178 243 152 149 157 22 65 130 117 163 147 88 58 31 27 37 52 40
50 15 34 20 13 88 18 6 7 5 78 41 24 21 78 73 100 158 127 150 165 214 103 29 85 59 56 54 66 110 164 263 347 259 227 281 -63 -40 61 66 99 49 88 64 52 43 57 67 50
25 41 41 24 50 70 5 3 3 5 8 40 29 18 41 78 111 137 140 124 139 119 51 6 47 62 68 40 57 69 136 186 158 126 116 21 -24 14 48 35 40 130 79 45 60 59 80 55 58
31 28 27 27 37 35 2 1 -2 10 -9 34 7 -12 25 102 99 129 133 123 110 63 59 41 62 45 50 29 66 75 93 91 107 117 70 69 48 72 89 61 70 17 39 44 59 61 35 39 54
45 16 25 41 55 22 8 17 -4 12 37 60 63 24 -7 82 79 117 123 127 117 79 72 72 77 33 39 96 79 120 101 134 115 109 70 98 84 79 137 41 28 53 41 25 36 46 28 21 56
25 25 20 24 50 29 14 7 -14 -4 5 36 12 48 21 42 99 103 106 103 122 118 87 92 90 75 75 67 108 119 111 52 155 122 148 106 9 -29 -25 38 105 80 103 71 63 50 42 55 95
27 25 44 57 51 23 5 -4 -2 0 55 48 15 23 46 39 82 85 94 97 91 115 97 103 135 135 148 153 92 90 74 92 149 109 111 111 157 127 92 62 60 72 42 30 41 103 141 77 97
65 58 111 79 70 20 -14 10 -4 26 37 8 17 2 62 56 84 100 105 97 104 109 93 89 141 146 172 183 112 52 62 135 150 175 149 213 153 173 109 60 89 80 107 -9 160 188 144 33 91
69 45 98 87 49 19 1 56 25 30 53 61 10 10 30 67 94 99 102 76 88 104 82 75 92 123 155 179 168 110 66 10 42 57 100 116 164 132 73 86 55 44 81 80 107 174 75 91 103
35 63 32 107 82 133 86 29 49 32 6 -2 3 33 27 46 90 116 118 75 81 96 81 72 61 61 120 111 116 85 74 102 118 106 93 52 97 124 122 141 57 65 95 31 30 11 71 110 90
136 29 39 57 160 173 63 -13 66 42 3 31 -8 46 29 25 63 100 98 87 71 86 81 75 49 44 74 91 87 71 52 89 84 109 164 159 97 72 43 105 112 141 82 -16 -39 -72 11 49 68
144 132 65 58 83 109 99 77 57 51 28 28 60 33 38 32 29 52 71 96 82 93 100 87 68 56 64 81 74 69 65 73 54 53 78 87 153 134 143 154 163 140 113 98 84 73 57 28 59
94 40 35 150 74 59 89 82 54 70 22 35 25 9 30 60 19 21 46 77 84 92 99 100 89 71 76 89 77 78 63 45 72 72 65 70 89 100 112 149 170 178 183 150 127 93 107 108 86

GFSSGP_con_3kmhel_072.txt.gz
Helicity
32 4 12 7 25 39 -16 17 105 140 54 85 83 64 51 53 48 88 76 33 -12 94 103 123 179 170 148 72 82 101 128 141 140 166 140 118 110 99 74 74 89 106 84 87 91 96 102 102 113
16 9 14 13 38 -5 -23 39 76 55 86 105 78 32 17 4 145 80 87 43 14 47 103 108 175 182 158 128 107 87 120 135 153 153 142 134 104 89 64 68 86 101 91 82 82 93 83 82 73
-22 -37 19 43 14 24 -35 48 77 64 86 45 13 -7 33 46 117 77 82 104 49 27 103 133 134 195 153 159 126 86 141 143 156 145 137 124 99 82 75 77 80 84 92 75 86 96 80 76 70
32 27 43 71 7 -72 -55 94 85 67 23 78 -0 11 20 154 117 106 127 63 48 52 61 158 139 168 185 156 162 98 166 171 161 172 140 123 119 116 119 98 86 78 99 93 92 92 84 74 69
24 55 57 29 -13 -10 4 112 92 82 -8 37 27 20 15 134 155 110 102 83 84 61 88 139 122 124 131 117 116 90 103 152 188 201 143 150 156 141 142 100 75 66 110 94 89 79 93 72 54
76 57 62 33 -21 -9 70 124 62 35 28 14 14 67 51 108 95 138 102 103 137 84 109 128 109 95 120 162 210 205 97 148 133 186 174 163 189 163 159 125 104 116 130 99 103 99 98 47 37
38 45 53 11 -29 -23 13 121 105 60 1 -5 92 79 39 216 122 103 130 99 127 73 74 121 120 161 203 263 371 201 133 -65 30 134 199 187 183 175 155 172 157 139 124 100 99 110 71 65 28
52 46 28 12 -14 -18 7 139 121 75 16 62 63 71 74 128 167 129 120 124 124 109 87 69 108 133 232 291 275 241 90 38 181 115 228 192 191 179 172 174 160 122 114 107 95 103 96 43 32
12 61 55 14 -33 -26 39 131 117 69 37 30 19 127 126 186 116 108 116 128 67 99 97 100 95 122 157 206 216 145 66 20 109 214 252 195 179 173 140 138 141 113 108 110 85 111 72 51 24
48 57 39 -8 -13 6 55 29 82 37 40 35 15 65 171 130 95 111 107 154 199 169 160 127 80 90 99 138 151 190 168 -45 56 189 226 184 180 138 120 131 148 116 113 101 106 94 70 76 16
23 50 21 -9 -22 52 71 17 51 33 23 21 14 71 71 113 132 157 106 153 137 226 197 82 40 12 57 87 132 128 169 93 17 124 145 179 158 190 194 160 163 139 120 116 117 81 77 65 48
19 3 27 7 46 48 38 1 46 16 49 57 26 124 117 91 127 111 127 93 127 165 109 46 29 -4 32 148 169 205 189 136 173 166 226 211 259 219 214 139 142 126 123 114 65 27 61 31 74
-2 7 12 12 11 19 37 15 29 7 35 12 12 162 112 102 98 119 148 165 129 150 192 100 62 74 114 129 191 240 253 264 282 308 332 284 318 263 176 134 153 103 116 90 35 26 74 54 68
1 2 9 8 14 32 19 16 26 36 26 10 23 112 102 78 69 128 187 142 131 138 180 143 109 79 120 169 173 248 341 367 508 241 268 366 297 311 141 120 127 107 92 78 54 61 95 57 64
7 37 47 27 29 22 13 -17 31 8 32 40 19 67 112 114 95 126 135 213 170 153 208 132 105 74 120 128 194 253 308 404 461 356 302 315 332 337 102 79 55 68 66 60 54 94 81 76 61
30 27 46 18 20 8 20 -11 -5 11 63 63 53 48 102 107 98 153 177 154 141 184 232 137 147 82 133 84 149 309 481 514 349 315 261 213 208 118 84 -13 24 -15 54 57 112 106 86 68 54
91 60 46 24 5 -0 62 88 18 33 61 30 8 73 111 113 124 128 269 169 137 207 285 201 98 54 83 115 214 240 304 285 281 305 288 206 104 73 7 46 -22 43 72 96 150 101 70 70 64
78 53 34 43 3 37 35 51 38 18 71 47 24 -17 110 178 110 177 269 213 180 226 287 233 52 49 66 86 74 252 275 275 361 270 270 234 155 68 117 -28 38 58 45 163 121 92 67 68 66
81 78 24 -8 -38 -6 90 33 14 14 49 99 48 43 55 171 112 231 321 276 202 240 312 141 44 51 42 72 53 69 104 186 252 313 255 132 141 54 143 103 95 150 155 143 104 110 67 83 84
98 106 131 39 38 23 62 42 20 9 9 38 90 75 26 149 169 267 275 245 183 185 232 72 8 57 37 46 56 39 75 72 194 174 169 148 74 151 48 91 114 183 171 124 108 113 128 120 72
77 70 118 86 53 57 43 22 9 5 8 7 21 61 36 167 208 270 229 186 183 117 148 97 62 81 66 49 70 74 114 196 163 123 109 86 113 198 90 57 75 82 78 86 93 175 154 97 63
78 56 77 34 43 65 3 41 2 41 55 1 -18 95 62 26 191 228 209 186 161 110 128 108 110 95 73 70 146 158 142 203 150 194 90 61 155 185 55 -0 68 47 36 37 106 194 88 68 64
100 73 49 33 40 63 69 45 9 5 -5 49 61 98 116 37 181 204 209 161 150 139 142 129 153 114 72 82 142 140 120 117 110 95 134 171 215 78 28 28 28 59 78 110 156 97 24 16 124
88 71 111 83 40 58 29 38 15 11 16 17 49 56 130 91 196 180 211 151 167 168 122 153 138 161 118 125 138 107 129 108 121 149 141 124 131 101 51 105 12 96 104 150 129 121 -19 93 148
145 46 141 147 141 55 35 47 12 -0 72 108 93 35 72 91 178 193 244 158 170 203 142 131 135 139 167 177 148 120 100 120 137 171 153 135 120 109 128 136 93 122 166 186 140 115 131 135 188
321 107 213 168 123 61 7 68 8 -5 26 67 73 13 57 84 167 228 197 149 154 220 173 133 130 122 154 191 184 137 51 44 109 158 135 156 144 156 147 197 132 128 197 149 149 177 154 196 217
241 83 32 14 191 153 70 -5 76 95 108 100 40 6 -1 66 150 172 171 157 158 186 185 166 161 136 140 154 153 135 98 82 118 131 119 151 93 110 99 81 98 33 112 84 116 136 88 164 169
361 73 94 39 45 223 145 75 8 77 47 21 60 53 57 44 108 129 150 183 143 162 158 171 150 154 183 153 132 103 99 136 134 81 144 158 151 160 142 164 170 228 150 51 39 73 80 112 143
167 126 108 113 73 114 121 71 27 70 39 39 81 69 71 82 49 144 136 176 133 144 170 151 130 110 190 209 172 109 93 104 121 138 139 144 158 146 144 135 186 158 155 139 128 146 200 187 155
76 139 105 161 98 105 184 146 84 35 37 88 89 14 23 33 31 87 86 149 164 143 168 173 140 101 97 228 195 153 108 100 121 157 197 176 163 193 195 154 128 137 105 122 155 171 188 173 127

GFSSGP_con_3kmhel_075.txt.gz
Helicity
41 15 43 47 88 67 38 42 69 50 136 140 165 186 215 122 90 98 32 21 25 34 58 79 119 165 187 216 171 135 126 117 131 113 139 141 142 146 141 133 127 116 103 91 83 82 85 98 116
24 30 69 106 110 77 54 62 7 77 71 138 135 148 123 130 108 95 87 8 37 36 79 111 134 150 186 181 174 133 123 124 126 130 141 140 130 129 115 112 98 93 102 93 73 70 73 80 74
21 21 117 103 95 73 40 -12 125 141 129 76 102 81 48 122 137 96 85 67 77 112 127 119 142 150 185 181 179 167 139 129 125 115 127 137 116 106 110 108 94 87 83 86 79 74 72 74 67
65 96 101 143 29 -2 35 74 127 160 120 118 128 156 55 114 119 72 53 77 100 85 155 142 117 146 146 171 169 189 172 139 136 127 125 123 103 98 110 110 93 84 86 88 78 60 38 36 85
107 129 134 139 65 6 -87 15 153 170 180 154 162 129 152 160 190 123 129 111 101 127 180 179 138 116 125 127 139 173 166 126 155 130 132 150 133 109 116 105 97 75 99 73 68 38 38 78 127
178 131 214 120 22 -8 29 90 181 138 111 114 100 78 197 193 172 160 155 147 155 162 155 183 133 93 88 99 94 127 357 437 367 244 198 142 141 127 122 121 123 126 113 57 57 44 61 101 149
126 125 161 92 32 8 -70 89 170 191 194 149 132 158 133 104 109 114 111 144 165 142 170 147 165 161 147 221 273 304 251 274 48 76 61 60 140 130 113 126 155 137 99 56 56 65 63 102 145
107 110 96 18 -25 -54 44 85 224 221 168 130 142 176 132 115 185 161 166 191 152 142 110 152 158 203 227 248 271 183 158 327 247 83 160 68 142 161 168 167 155 136 89 62 73 62 70 92 141
37 112 160 17 -0 -104 -73 60 133 112 95 168 135 118 171 248 189 107 120 166 161 138 90 98 204 187 199 207 220 161 113 104 127 65 4 89 175 216 197 157 161 119 85 74 70 62 59 84 154
115 114 102 23 -20 -98 -52 11 57 120 78 100 89 191 296 201 115 135 145 158 169 129 126 152 165 213 145 150 169 227 148 105 170 122 148 95 207 203 190 153 137 122 92 78 81 66 61 133 144
70 108 34 5 -36 -15 -27 5 35 50 78 74 119 44 126 150 120 158 211 211 231 214 206 173 130 94 175 107 149 181 158 173 100 73 135 173 274 215 208 173 164 133 98 120 121 98 101 120 118
110 71 45 32 11 34 31 29 57 44 42 70 45 71 115 161 164 211 163 211 197 186 161 168 121 107 66 151 129 144 169 137 10 161 305 306 296 232 219 176 162 134 166 148 108 108 86 99 149
90 52 54 13 12 51 49 66 56 57 52 89 85 170 171 183 187 209 279 282 263 203 206 190 159 120 93 119 148 129 132 114 50 52 236 265 271 234 196 162 158 139 99 94 89 107 87 126 137
49 43 48 5 15 26 44 81 47 65 81 69 64 148 192 191 189 168 275 269 215 229 204 156 138 97 93 87 181 181 182 157 131 240 351 305 239 225 219 242 128 99 76 25 64 119 108 112 108
25 69 50 -6 -13 -6 40 42 44 -40 84 85 108 156 215 175 175 176 221 256 238 256 209 163 134 111 88 104 180 230 259 276 280 246 228 234 181 230 213 219 110 69 16 17 37 96 75 100 67
145 100 116 20 26 19 31 40 17 29 61 57 57 164 206 136 186 228 305 348 299 287 241 169 130 148 88 111 143 231 252 269 272 341 284 244 245 217 224 160 125 96 20 11 57 54 95 114 85
224 219 97 34 61 19 31 -14 10 67 15 13 78 172 145 194 294 273 358 369 289 303 269 209 146 140 81 109 127 137 222 261 314 357 321 301 260 202 258 235 169 70 19 46 48 103 130 99 80
303 194 114 7 -6 18 17 -38 -9 113 105 84 112 116 200 274 285 346 419 407 372 311 267 229 176 64 81 124 81 226 245 250 413 334 344 296 203 174 207 121 145 46 43 27 69 96 123 77 62
169 188 123 59 35 22 4 7 58 86 89 100 110 148 144 346 255 362 464 470 409 314 270 237 139 16 44 97 111 108 142 278 245 245 172 149 158 117 86 68 91 18 41 75 75 94 85 86 100
192 135 20 1 -64 33 24 16 70 97 85 37 115 154 158 284 382 466 498 470 351 274 225 190 81 21 72 29 10 76 104 159 179 151 201 148 150 107 81 103 123 58 70 56 26 135 157 108 104
102 107 45 17 -2 105 56 59 57 56 39 -7 54 166 183 340 473 451 450 406 311 257 176 135 75 45 57 70 67 37 6 96 182 174 168 103 91 113 82 148 114 34 92 2 21 130 100 149 142
52 94 215 56 101 20 57 40 29 48 36 -14 -48 95 151 276 417 454 378 323 258 212 134 119 130 113 79 79 80 104 42 90 35 72 55 87 16 81 85 163 144 102 41 40 156 154 107 176 259
106 85 333 8 -1 16 26 65 -24 -11 -32 56 3 94 196 285 401 420 386 275 211 207 149 118 170 174 132 114 89 128 113 67 64 74 55 -1 -3 -17 70 155 100 89 93 99 117 98 79 116 177
192 206 165 37 5 -66 -10 137 -61 -29 -6 72 74 178 204 260 330 360 333 260 203 190 174 148 152 168 158 184 146 141 107 114 99 65 56 39 42 65 89 62 4 -22 59 49 40 69 82 128 197
211 347 243 117 128 -41 2 79 -32 4 14 6 76 221 204 257 363 342 366 261 225 199 188 167 170 177 183 217 195 160 124 132 123 100 72 110 46 105 119 154 140 145 95 108 103 108 99 172 256
141 252 283 211 118 37 47 76 -9 45 41 14 54 53 191 226 276 313 377 295 247 202 193 162 162 176 206 223 216 171 166 112 84 112 97 118 135 128 135 180 228 166 135 110 135 175 211 286 280
123 170 232 286 185 159 124 61 23 73 5 129 172 152 143 188 226 273 326 300 254 218 184 178 158 160 187 194 222 194 204 196 104 82 66 81 104 99 92 94 131 177 53 76 174 178 210 214 277
175 202 109 81 214 164 143 96 71 29 134 120 100 109 82 149 233 278 272 280 235 217 191 157 172 160 163 161 162 172 193 202 174 126 171 167 136 101 67 98 126 79 68 105 43 44 133 181 207
115 152 146 132 166 191 161 146 152 179 89 135 158 132 138 108 180 224 216 255 251 213 212 183 166 156 148 153 151 141 139 151 154 226 195 184 169 193 222 189 188 197 129 113 154 145 164 110 127
91 103 110 130 129 56 72 191 355 234 209 143 94 105 88 88 114 204 216 247 257 238 212 199 186 167 167 140 150 155 158 141 152 169 222 205 198 205 220 205 217 225 195 180 177 173 186 177 147

GFSSGP_con_3kmhel_078.txt.gz
Helicity
66 57 45 69 75 82 78 42 46 40 41 75 95 121 119 125 121 200 67 47 63 36 2 43 91 105 148 188 235 267 192 152 126 131 142 196 167 173 182 170 150 147 136 137 133 134 117 120 146
65 62 92 103 117 93 75 66 128 30 70 99 124 120 130 178 185 143 96 39 59 21 13 28 101 132 145 196 206 246 220 156 123 132 165 176 149 153 159 142 125 125 134 131 117 108 110 129 157
69 89 129 145 123 102 56 46 102 -22 45 129 140 124 194 156 154 108 73 69 69 30 45 71 128 162 184 183 189 204 219 189 140 123 143 151 129 142 152 162 143 120 105 92 86 98 118 143 151
129 142 147 200 94 29 61 12 21 0 67 138 195 196 216 89 127 39 61 78 53 59 105 117 149 173 184 180 168 168 171 174 184 143 126 150 142 145 152 160 155 114 91 80 91 90 121 129 157
156 188 212 240 81 31 27 52 27 25 145 140 154 100 191 197 157 165 97 96 110 108 106 149 157 172 168 150 159 157 184 154 259 253 109 138 142 146 165 154 140 125 92 76 70 99 150 178 172
213 195 284 211 87 -34 -15 12 45 16 158 127 156 238 216 186 255 128 116 121 175 144 142 162 137 144 148 140 160 229 366 412 422 439 361 137 96 124 139 155 137 138 102 72 85 139 169 181 178
184 243 264 203 103 -27 -41 -6 106 22 162 136 183 268 195 195 123 126 161 187 181 169 190 179 170 130 119 123 166 307 338 391 412 270 199 141 88 53 117 142 141 127 97 71 107 134 168 196 176
177 225 269 236 105 3 -94 18 55 94 160 163 163 218 223 58 137 219 212 152 140 181 196 154 192 197 176 148 221 302 280 256 298 262 83 -95 63 61 89 137 128 99 82 73 105 137 184 189 129
185 254 293 223 83 30 -28 -5 -69 16 115 170 157 187 83 247 226 266 190 198 177 202 156 150 174 193 226 238 257 281 256 198 201 204 183 48 120 24 104 137 117 90 92 80 98 141 206 192 178
223 286 253 201 119 19 -31 -37 -85 -40 22 107 201 189 212 329 275 216 224 231 212 167 115 133 185 252 292 232 197 193 157 151 169 206 278 56 53 40 148 133 108 110 142 69 81 145 199 211 198
209 232 225 154 69 14 -31 -19 -11 -10 57 65 99 108 167 180 157 183 179 192 141 132 162 133 168 219 258 227 224 186 153 185 199 207 121 131 79 161 175 165 146 95 113 98 90 140 212 219 194
169 135 152 91 49 25 -16 64 9 58 73 47 72 104 147 124 130 165 196 211 234 204 188 160 176 203 231 227 196 139 153 158 140 178 142 204 215 214 186 180 168 132 67 93 88 119 198 198 146
164 114 80 77 46 38 42 63 106 100 98 100 95 127 118 96 98 158 220 280 280 276 232 188 156 177 210 224 158 120 160 142 114 89 223 272 287 222 172 152 188 141 146 111 85 102 176 204 136
153 123 85 85 100 71 99 140 141 114 99 45 96 107 114 132 213 272 328 340 301 295 215 165 135 150 183 166 163 151 141 154 111 76 122 147 249 224 176 146 142 141 137 116 105 141 152 203 175
119 125 115 109 106 87 38 80 121 75 74 54 45 128 203 204 324 311 283 314 315 255 228 175 144 137 167 170 132 176 137 175 146 140 202 255 194 187 162 154 125 125 94 115 147 153 176 192 160
182 197 204 166 83 46 55 45 25 65 62 60 53 55 167 301 299 283 270 298 342 311 234 187 178 168 179 153 112 152 208 173 137 183 159 125 179 166 149 147 163 176 109 95 74 142 138 148 172
168 163 188 143 107 74 66 -66 -62 11 9 16 45 59 157 322 339 272 285 339 367 285 251 207 220 190 162 98 115 149 255 187 184 179 235 182 159 111 167 164 174 174 139 73 61 94 132 119 169
182 219 202 172 62 88 69 -31 -53 -30 -23 -8 32 89 168 248 208 407 390 365 375 296 232 238 266 194 80 89 99 107 197 251 220 178 130 197 124 107 161 205 184 165 115 73 79 63 93 103 147
127 118 87 116 58 110 55 83 28 -37 -89 9 29 119 218 214 304 412 434 412 369 326 285 250 270 99 69 94 194 86 109 226 342 204 166 156 170 158 212 173 256 303 187 91 77 122 87 139 137
111 109 55 26 36 65 11 13 -23 8 6 40 41 112 211 376 371 400 460 420 364 318 274 233 180 65 54 89 103 153 85 182 230 244 192 207 208 188 192 220 282 206 140 98 103 101 163 149 107
98 166 132 53 -4 2 16 -83 -24 38 48 47 35 129 241 405 455 405 414 415 343 301 261 207 121 61 69 77 120 122 124 208 231 268 216 276 198 157 171 189 162 151 159 182 96 101 113 137 128
69 131 99 45 76 8 43 -211 -16 7 74 64 21 55 181 313 401 393 421 427 306 250 240 207 143 69 56 82 73 83 83 92 184 141 192 103 134 149 181 132 78 185 123 167 105 86 108 170 113
99 60 46 57 48 -76 -7 -88 -205 12 68 61 11 3 180 266 445 372 408 391 245 236 232 227 153 117 42 39 66 70 53 37 56 120 153 142 157 131 144 105 95 141 126 160 185 104 25 164 165
98 71 18 33 6 -153 -90 -5 -192 -54 -33 -13 -41 -52 124 238 358 342 380 328 238 224 203 215 157 151 120 75 48 79 80 58 74 93 72 132 109 82 140 106 85 142 198 181 93 -47 -70 100 149
140 88 128 81 71 28 -11 -106 -91 26 18 16 62 87 75 272 385 377 362 281 277 214 177 191 142 160 180 142 102 52 59 66 75 79 79 81 44 76 47 98 98 181 142 100 12 -18 43 129 172
123 132 215 122 63 -2 13 -169 -126 -94 -8 40 59 -4 138 349 300 303 260 292 264 180 149 183 139 117 171 189 152 99 69 28 34 68 37 73 51 13 36 44 155 142 131 132 105 90 145 166 163
126 110 82 118 92 45 39 2 -31 -10 37 36 19 113 206 206 211 195 208 263 235 166 157 184 144 114 143 189 169 155 110 95 50 14 33 56 6 3 10 33 98 93 146 123 123 136 138 144 150
32 97 99 109 66 79 38 20 25 135 50 52 84 70 161 156 152 152 206 230 185 146 113 126 140 122 130 162 184 165 146 110 73 51 50 49 38 74 108 48 68 62 102 105 63 -9 12 93 191
49 67 80 86 118 85 63 105 218 255 237 144 166 113 127 152 113 145 178 196 172 131 120 118 129 114 131 138 161 162 151 126 93 101 81 71 70 91 97 81 82 134 131 106 119 126 116 93 77
55 73 88 34 40 23 2 156 369 399 285 234 245 243 119 145 125 139 191 199 152 130 104 108 122 138 147 148 141 151 162 170 163 104 92 99 97 95 118 87 84 93 130 132 129 128 137 145 168

GFSSGP_con_3kmhel_081.txt.gz
Helicity
94 87 89 106 105 98 62 69 79 64 74 27 56 104 101 108 130 87 114 49 34 44 6 -12 22 79 158 203 226 213 249 235 201 211 250 256 238 237 199 182 169 166 177 162 164 164 154 149 175
104 110 145 138 147 102 64 65 131 113 16 51 88 173 137 79 150 173 223 52 62 69 30 -24 6 69 169 197 233 208 198 220 222 208 209 211 252 217 214 186 191 187 167 154 147 156 136 151 185
119 145 187 193 166 99 83 69 94 146 67 50 67 134 141 129 136 152 107 92 77 75 17 -26 39 102 187 216 224 217 199 184 199 210 214 196 211 200 198 181 181 170 148 137 152 162 157 186 210
171 221 228 257 136 43 69 54 80 88 61 18 57 147 145 125 136 99 146 120 120 87 48 68 77 127 181 221 214 204 177 175 173 154 160 151 153 176 179 174 157 146 134 121 145 174 182 201 221
231 244 255 288 115 26 55 46 49 88 26 43 67 160 166 111 141 192 194 130 123 94 87 102 106 133 172 202 201 195 207 211 164 200 119 117 100 119 168 151 132 114 114 142 154 166 200 217 204
275 244 292 277 152 10 10 13 61 79 74 57 56 222 175 112 199 205 168 105 98 127 106 129 131 141 165 164 165 207 307 333 386 460 248 232 129 87 74 99 129 128 130 172 166 166 195 187 168
222 269 263 236 187 13 -19 10 69 90 108 31 149 256 173 170 173 199 184 153 128 147 166 143 149 123 151 149 155 278 394 495 563 540 461 332 289 307 54 66 116 153 174 173 179 174 188 149 137
209 228 250 228 228 36 -38 17 51 101 243 62 124 185 176 105 156 210 206 195 182 162 169 163 182 197 129 142 299 343 430 447 517 509 371 160 233 51 81 28 64 137 183 175 184 185 156 134 120
199 256 294 325 249 165 48 23 -2 -30 68 91 36 92 118 196 244 275 267 241 237 186 169 174 182 180 176 209 276 308 272 304 380 272 231 279 108 75 72 20 65 149 214 181 195 185 123 131 135
215 264 260 273 184 147 48 10 -8 22 70 122 141 58 135 296 294 270 237 226 242 199 176 186 182 184 194 208 270 283 234 265 218 252 269 309 140 105 76 37 77 149 202 177 204 182 102 146 145
205 226 219 215 157 144 34 -6 21 16 103 86 88 88 161 255 250 203 186 220 198 178 195 172 187 195 235 235 261 229 195 242 241 251 256 251 193 224 114 58 127 138 180 187 222 204 173 158 147
164 149 141 137 128 117 84 31 -23 27 40 8 69 58 181 158 172 158 180 183 228 187 160 191 204 196 184 244 255 236 200 259 170 211 227 245 256 185 114 107 134 161 219 247 238 215 178 169 130
121 79 85 94 64 81 65 38 43 6 79 72 76 126 202 156 154 166 199 197 199 221 194 218 227 186 177 233 232 220 165 151 134 145 191 207 234 96 132 128 133 179 200 209 240 201 181 155 128
102 96 19 11 33 81 68 -7 102 -7 104 76 58 115 177 191 174 281 217 223 265 263 246 228 233 190 181 196 216 213 141 160 114 138 149 194 156 129 144 147 120 145 166 187 207 190 176 151 143
74 48 34 20 57 100 96 14 85 32 73 114 127 123 139 157 238 278 278 301 326 271 277 211 253 210 163 174 199 211 173 165 117 128 162 176 242 236 199 134 113 107 127 206 270 224 192 155 138
105 88 81 79 123 127 158 46 11 34 71 109 137 108 145 153 180 248 350 299 343 350 265 239 234 225 217 200 187 193 178 138 116 130 110 191 154 166 160 137 97 111 181 179 217 256 206 149 139
115 93 86 114 66 80 192 86 35 51 71 99 67 89 94 151 127 241 383 368 388 323 278 255 251 244 249 240 185 146 146 180 165 179 147 211 226 276 159 127 121 130 155 129 172 220 244 184 184
103 138 131 138 120 139 207 122 -30 -5 41 16 9 24 63 101 143 291 488 444 371 306 269 270 259 264 265 203 128 99 132 145 161 134 187 175 192 152 135 154 129 193 227 204 234 209 229 178 180
105 88 51 101 100 150 174 96 -47 -12 1 -9 56 23 38 48 93 301 418 394 344 302 297 262 253 247 186 105 92 121 119 143 156 193 142 143 107 126 145 156 180 214 250 148 191 236 250 221 216
115 98 79 45 91 196 170 34 -40 -29 -35 5 18 22 37 155 200 307 362 333 315 295 251 260 248 227 129 128 109 177 93 154 212 209 230 157 182 147 146 115 177 194 181 164 213 271 271 263 182
96 102 83 88 98 143 104 -14 -137 -78 -83 -48 7 -14 -6 141 253 310 347 304 332 289 241 230 232 196 137 157 139 130 113 106 283 219 153 175 177 144 90 100 180 169 158 248 263 252 199 245 151
86 87 74 94 145 153 217 67 -53 -58 -93 -67 -0 10 38 98 198 334 400 300 326 276 212 210 225 195 130 138 104 95 77 140 221 315 261 263 175 167 146 127 119 176 261 224 194 188 163 187 155
79 66 74 167 191 151 142 130 -217 -110 -129 -7 -4 79 61 116 277 338 355 305 319 266 211 199 210 190 115 92 91 84 72 101 187 183 260 278 260 259 230 191 143 194 201 185 151 169 143 151 152
83 65 110 150 198 183 88 17 -242 -40 -25 14 36 62 59 88 192 267 363 310 292 226 211 216 192 161 118 88 65 71 69 103 127 182 259 327 238 259 153 147 153 118 126 152 137 128 156 151 146
73 84 131 185 284 298 106 6 20 58 91 33 71 88 -2 9 183 341 350 290 258 250 223 195 180 158 128 91 80 50 44 64 79 106 180 184 159 159 178 126 118 108 66 158 187 151 176 194 159
63 93 157 148 162 66 -33 -77 -66 -43 -95 50 41 63 -5 -12 208 378 312 300 267 224 195 172 169 160 116 90 72 68 48 28 32 72 124 134 175 183 127 89 91 128 102 131 218 219 216 225 112
42 68 92 203 162 36 23 -23 1 95 70 -12 -73 -26 -19 13 239 257 247 205 273 212 174 154 128 148 133 106 61 87 84 44 14 38 79 72 75 84 88 109 90 53 73 119 292 215 118 141 47
49 109 142 184 129 9 -5 -8 49 122 243 198 -46 22 12 91 171 139 125 178 222 185 143 120 97 120 139 123 86 76 98 94 36 16 42 58 68 55 78 133 130 79 158 148 216 160 37 63 18
71 80 52 69 114 48 21 28 57 90 222 208 169 151 37 129 117 98 84 134 207 161 137 112 74 79 107 108 88 42 42 57 51 32 32 29 23 26 25 51 75 99 136 185 157 187 158 80 34
84 60 2 95 59 81 -56 -11 79 70 338 234 291 219 54 63 81 69 119 183 178 136 125 97 76 89 110 104 95 90 66 52 53 38 31 34 37 36 40 48 54 60 70 86 115 139 185 190 157

GFSSGP_con_3kmhel_084.txt.gz
Helicity
95 99 101 125 125 123 62 63 67 101 73 36 44 64 53 67 86 77 97 124 88 83 70 47 43 89 117 157 211 208 205 244 265 255 229 207 192 188 252 218 223 209 173 155 172 172 161 140 151
112 130 173 158 169 122 45 61 79 104 101 27 17 40 60 46 84 97 172 83 92 90 72 54 39 89 124 176 213 222 189 205 226 237 235 233 231 216 266 212 233 206 178 152 184 180 160 163 183
140 176 195 193 195 103 66 57 55 127 127 32 70 58 58 46 82 104 79 143 120 82 76 57 66 107 124 188 230 225 190 178 188 208 226 218 212 203 187 217 224 197 161 161 164 174 182 219 209
175 242 251 251 194 64 113 124 97 108 86 62 43 94 58 62 85 96 138 185 150 87 77 80 87 115 137 183 229 202 217 205 219 226 218 192 169 202 176 187 184 146 130 129 144 176 211 222 229
242 258 257 269 196 48 60 28 38 62 112 89 24 102 101 69 106 139 184 178 149 100 79 71 90 129 152 166 220 201 211 212 228 205 190 188 118 93 131 125 109 115 121 129 146 203 187 219 228
276 258 258 269 234 59 19 26 50 95 65 69 -7 116 71 75 137 155 189 167 127 136 103 94 102 118 130 154 209 215 225 220 213 238 281 189 271 106 55 61 79 96 98 151 198 201 196 191 205
230 258 205 209 202 73 21 7 39 86 114 68 48 97 69 61 161 196 196 172 132 151 148 129 118 93 117 163 211 279 308 377 374 342 335 323 239 323 67 129 70 47 122 152 182 222 184 184 170
215 208 194 196 228 80 48 60 56 80 79 72 85 209 91 35 181 257 217 194 167 166 155 157 163 142 116 157 279 369 402 424 423 449 477 452 515 314 148 186 58 158 137 180 213 203 160 147 145
217 228 211 254 205 151 74 78 57 80 79 54 85 128 56 9 184 285 228 228 218 164 157 183 198 152 138 224 260 332 345 395 401 448 477 558 280 177 245 167 210 52 104 214 219 187 146 150 144
224 195 173 197 182 151 109 59 39 41 59 35 85 60 70 64 204 164 238 232 207 186 169 186 193 161 158 222 240 306 373 423 439 452 443 403 220 105 64 123 124 55 111 239 232 196 154 158 160
174 166 163 146 113 113 59 49 38 29 79 58 79 116 100 124 166 200 186 226 217 194 211 190 200 163 184 222 219 281 348 356 336 364 386 333 219 184 125 191 213 104 143 258 237 202 179 168 163
129 79 69 86 81 88 89 75 3 58 74 46 60 76 115 146 150 158 147 167 268 259 219 208 210 188 199 210 245 217 284 336 285 293 240 252 200 170 178 153 140 94 179 275 246 219 182 171 168
104 76 49 58 46 57 43 -16 -47 -3 46 33 10 3 65 114 197 161 78 127 262 239 264 239 237 218 222 215 238 220 246 275 259 280 219 207 184 210 228 253 213 186 232 307 268 195 187 170 164
100 99 55 56 42 55 12 -38 55 -7 25 54 48 53 105 139 188 177 152 126 235 274 281 274 244 247 244 231 225 225 240 249 234 222 159 171 205 189 234 338 269 234 216 269 222 202 187 153 149
62 29 25 24 69 70 39 18 9 70 41 27 55 85 98 115 143 185 169 166 278 325 317 305 250 234 238 233 222 218 225 241 206 168 145 132 156 221 261 315 219 192 238 280 236 213 194 217 147
76 54 57 61 79 49 122 32 88 37 66 26 46 66 55 91 151 163 131 166 312 400 351 301 270 226 217 236 242 220 220 224 178 156 151 138 137 148 217 198 178 203 238 284 234 208 173 199 125
126 121 105 88 56 62 111 26 35 40 57 98 38 68 64 82 103 143 141 251 349 402 384 287 263 230 229 240 240 204 176 188 160 161 145 152 151 116 183 186 191 229 261 274 240 231 220 199 158
102 123 87 72 83 111 105 29 52 64 71 106 80 15 43 48 100 133 185 321 408 421 398 297 255 230 224 279 257 199 148 118 134 135 126 99 177 196 278 216 192 222 214 249 254 213 248 201 160
127 82 45 47 35 55 57 20 -10 37 81 117 76 5 4 29 62 72 188 310 378 370 368 300 264 216 229 264 213 171 140 131 134 159 141 150 118 216 351 187 167 186 188 251 299 283 242 258 256
122 94 65 10 17 97 64 48 26 84 77 76 63 5 20 70 38 106 177 223 290 368 358 304 230 197 209 181 155 147 193 148 136 120 219 301 325 372 149 110 120 171 213 218 266 263 347 294 203
112 102 80 57 41 59 78 11 29 103 154 134 63 37 15 23 92 140 120 211 298 330 348 296 211 175 176 163 155 147 208 143 70 104 282 217 224 230 152 134 134 161 184 201 251 259 305 321 212
116 94 85 78 54 -5 87 83 -37 84 113 106 40 22 10 44 101 127 154 208 262 328 330 262 198 172 165 159 142 113 106 82 75 204 242 203 198 160 110 138 156 184 190 164 180 235 303 370 269
91 132 107 81 56 53 111 145 121 117 83 96 62 34 39 60 113 144 125 195 229 323 305 239 198 177 183 144 113 96 107 63 71 208 321 178 169 145 158 160 141 179 182 150 167 220 220 293 295
110 76 68 58 56 64 46 112 126 17 13 99 131 94 70 52 123 165 117 208 247 237 233 224 205 171 170 152 115 86 116 102 101 137 236 205 198 178 141 165 158 154 119 110 167 177 174 221 227
106 76 90 119 88 110 87 62 148 -14 27 209 269 151 84 51 89 139 199 248 268 231 213 208 200 167 156 136 130 91 79 75 81 114 232 223 249 263 187 154 180 143 138 133 187 151 111 124 181
70 59 69 73 61 39 57 42 -6 36 32 67 96 73 71 58 96 83 205 263 289 205 203 194 178 156 132 121 123 87 72 67 80 79 98 237 294 193 212 227 184 132 132 130 86 127 95 146 161
71 62 83 105 71 42 48 51 69 46 132 145 148 159 41 56 38 99 217 240 214 191 188 155 151 147 122 113 128 96 77 56 55 58 79 113 102 237 211 227 292 180 132 83 76 87 124 235 173
72 82 76 65 34 54 55 60 42 -38 29 157 205 192 104 25 -2 126 230 192 149 121 178 103 109 142 118 104 108 75 76 54 41 28 58 57 74 108 173 175 133 119 103 129 32 60 187 255 238
78 68 66 88 94 84 70 55 27 -49 -106 -13 103 240 91 54 58 128 134 135 142 128 146 100 122 131 105 71 78 62 35 52 64 32 8 43 67 75 74 83 112 123 113 98 82 67 108 172 247
54 48 54 72 72 94 121 23 48 -21 -51 -79 -4 291 186 2 63 93 124 121 126 134 121 63 104 111 88 77 65 61 63 46 23 17 25 37 43 65 82 76 43 40 82 81 107 150 148 133 163

GFSSGP_con_3kmhel_087.txt.gz
Helicity
96 90 94 111 79 103 78 63 85 103 105 50 37 73 51 50 51 66 30 57 105 125 66 47 35 38 65 123 154 153 165 180 192 209 231 219 212 228 216 174 178 156 161 130 133 139 157 143 144
134 132 146 137 129 113 54 78 76 96 111 67 41 26 27 29 32 42 103 43 104 116 89 69 49 60 85 132 162 155 157 168 159 163 193 201 208 227 234 214 215 162 151 147 143 170 156 152 150
162 165 158 150 153 105 73 62 42 95 156 89 70 13 16 43 18 45 59 110 136 119 97 72 73 57 93 142 160 145 135 160 154 162 178 193 213 224 227 230 209 145 142 139 156 155 178 187 181
181 216 216 193 148 91 97 100 116 114 107 79 72 107 48 15 24 54 98 132 152 125 93 80 93 83 119 155 177 153 149 161 165 162 185 199 200 204 155 149 165 126 111 116 105 157 184 193 216
253 243 223 196 170 114 70 56 79 71 85 76 53 65 67 44 53 67 114 147 163 127 96 83 106 107 120 147 187 203 177 163 180 181 180 195 211 156 172 116 94 100 98 99 133 178 189 197 206
274 268 197 149 166 118 60 51 70 64 56 94 108 76 37 91 81 82 120 141 149 145 116 89 114 133 130 131 180 237 233 191 173 184 177 154 119 135 174 152 81 92 91 127 162 192 198 193 183
235 266 176 163 146 105 41 28 48 56 81 113 42 115 59 34 61 100 116 142 193 165 151 116 123 112 130 128 176 237 229 221 181 148 150 199 191 166 183 103 168 71 116 137 176 206 210 183 171
222 214 166 170 127 72 50 49 70 57 70 110 73 144 137 78 58 90 151 147 187 183 162 132 139 140 131 119 191 227 244 257 254 288 367 375 335 316 320 234 190 100 117 141 195 207 198 172 173
233 216 139 135 131 110 67 58 76 108 96 110 74 104 81 70 46 97 123 141 160 181 162 161 163 156 156 173 195 251 238 274 282 329 366 373 344 368 419 215 239 124 169 182 171 205 197 169 179
248 207 153 150 94 71 54 34 53 82 59 69 37 33 54 59 72 70 84 91 109 187 178 175 173 180 174 203 225 231 215 238 306 325 303 301 350 368 329 234 217 157 172 229 192 223 203 119 108
217 174 165 155 60 93 47 28 59 30 14 58 77 45 7 60 95 104 60 69 121 146 183 178 177 190 213 220 247 248 277 302 330 377 363 323 328 305 266 192 304 188 153 210 166 171 128 103 93
183 144 100 91 87 64 44 40 -18 6 32 44 31 18 27 56 95 126 77 64 91 120 135 163 186 230 234 239 256 301 322 340 385 391 386 362 351 401 181 98 95 210 244 212 123 138 132 109 85
120 113 105 75 43 37 31 4 -2 -52 26 29 38 44 37 69 58 79 105 24 90 109 139 164 198 229 240 259 247 283 272 301 343 383 358 357 252 318 154 92 135 309 283 224 151 143 137 104 94
108 74 77 61 36 27 20 7 -11 -83 -4 26 29 36 53 70 48 23 79 79 94 112 157 188 213 234 235 255 260 279 255 265 295 322 337 284 224 230 131 115 166 181 240 175 143 145 120 88 92
96 70 60 29 32 44 38 -40 -27 14 9 -8 2 30 41 19 12 33 56 85 79 152 186 226 252 233 225 239 259 271 242 265 310 275 259 260 173 146 156 178 243 269 245 154 130 113 105 109 110
92 63 47 65 63 38 51 47 68 44 16 28 27 44 45 22 33 57 48 60 24 80 204 271 275 242 235 221 253 252 245 262 275 239 210 138 117 140 195 198 234 352 282 179 172 123 120 112 81
117 88 70 112 88 101 67 48 143 151 104 35 53 92 78 68 56 54 48 55 66 111 182 273 282 277 275 212 224 229 233 241 231 207 163 102 167 120 179 222 304 419 305 160 155 108 113 133 98
98 107 78 68 99 142 92 4 45 12 7 20 47 63 63 68 51 15 36 22 61 125 173 251 321 289 257 224 211 216 212 193 186 146 112 92 153 138 186 247 373 300 229 184 163 157 129 123 113
102 101 80 84 45 35 35 -20 27 38 36 23 42 45 28 55 46 -28 3 -7 71 143 197 263 348 326 307 253 234 206 180 151 150 132 111 86 174 182 261 208 208 205 173 184 207 200 147 145 133
81 79 70 46 13 73 59 0 35 51 52 61 64 62 63 26 3 -13 -3 40 72 115 160 260 287 289 245 212 234 227 163 124 141 139 114 165 147 185 221 260 243 212 181 217 233 205 182 162 138
93 79 78 61 72 38 28 -21 -47 25 3 10 35 53 48 32 -17 -10 45 66 76 101 164 228 269 258 210 206 245 200 155 131 177 140 132 177 149 164 309 274 211 161 204 201 222 227 213 235 146
77 59 51 62 71 51 89 -23 -20 -25 2 17 34 73 55 11 -29 44 52 80 82 69 147 183 225 227 195 185 198 139 114 132 130 138 132 299 216 272 280 272 321 158 158 164 237 258 250 235 192
93 93 74 65 55 41 33 42 4 -55 3 78 197 109 41 -10 -24 48 72 86 35 92 185 172 209 202 176 200 152 122 84 96 91 62 180 293 232 301 409 283 186 153 164 171 233 257 239 217 214
92 97 87 71 61 42 5 17 -10 -3 52 36 85 164 70 29 74 47 65 63 48 88 169 180 211 171 163 157 129 96 72 83 91 97 198 314 229 214 176 170 146 141 179 194 232 254 250 247 204
108 101 85 48 43 51 47 -14 -12 30 49 69 76 81 110 153 93 55 46 55 34 100 148 194 188 173 148 132 123 94 78 63 58 114 160 241 211 206 120 158 133 156 167 220 206 199 207 235 179
71 73 86 65 55 59 75 17 15 46 -18 25 39 24 88 122 155 95 90 81 43 98 150 155 184 166 134 121 111 85 74 60 43 64 100 181 211 157 190 163 158 199 213 250 202 142 155 193 158
104 78 95 87 62 51 39 46 47 61 38 19 -19 61 105 143 165 130 93 62 79 111 134 126 154 153 122 108 112 91 85 67 45 46 68 164 160 160 164 157 177 99 149 174 143 163 196 227 172
96 82 82 88 76 48 50 36 32 44 65 64 35 95 12 152 181 90 54 51 95 88 142 138 120 117 106 93 97 73 63 62 33 28 32 50 165 210 238 183 159 172 179 146 149 139 128 101 19
95 93 82 98 85 68 35 48 34 62 38 73 71 70 45 149 150 46 18 60 89 116 131 129 117 105 100 62 74 75 54 40 33 1 -6 35 55 75 87 149 198 189 214 134 152 139 76 42 37
73 72 61 90 106 88 59 55 109 99 10 -72 -9 -50 2 61 229 61 25 36 110 130 146 115 114 85 64 62 56 56 59 49 17 -11 -19 -7 4 5 32 72 75 119 159 134 142 71 41 50 65

GFSSGP_con_3kmhel_090.txt.gz
Helicity
79 67 68 62 72 95 52 64 117 86 89 88 94 63 45 76 51 81 28 54 51 90 81 64 25 29 51 75 94 103 120 141 159 158 159 182 184 175 178 171 142 125 131 84 103 103 110 112 112
84 99 96 124 120 103 65 61 41 82 132 68 57 54 63 24 50 38 45 42 50 92 61 45 58 74 78 85 81 96 110 120 143 140 145 174 192 188 182 166 131 106 123 100 95 115 107 121 140
91 83 111 127 100 103 38 57 65 118 125 77 89 69 95 100 33 42 64 82 86 98 78 73 80 75 87 108 98 103 115 119 131 125 143 177 185 192 194 174 138 123 112 118 102 113 125 138 156
127 141 171 137 103 87 25 92 84 100 123 109 147 102 84 67 52 28 75 107 112 115 92 132 91 83 108 112 119 105 118 128 124 130 150 181 188 194 193 181 170 134 102 108 104 117 151 167 175
131 161 128 100 76 91 78 74 74 91 126 121 106 90 80 48 38 41 71 116 117 119 107 106 91 98 106 125 128 120 128 138 126 129 156 180 186 191 192 179 157 129 92 96 130 155 175 196 181
160 192 146 110 75 106 46 61 74 73 66 89 64 87 56 71 49 58 77 92 102 117 133 117 105 104 112 128 123 118 127 131 140 139 170 182 166 143 147 118 126 99 106 116 147 166 191 191 184
117 155 109 81 110 125 46 48 73 51 69 63 109 97 125 115 67 69 77 85 110 123 140 140 111 105 107 122 142 129 114 105 105 136 130 117 100 150 154 125 114 101 140 185 163 173 183 189 173
144 171 92 102 134 87 32 81 50 54 57 171 95 119 127 157 132 137 89 75 112 132 131 147 136 125 115 104 145 148 117 106 77 65 88 133 161 188 197 168 140 148 152 209 178 172 188 189 177
158 180 125 115 111 111 68 75 43 91 81 67 116 109 122 111 134 112 44 61 99 96 119 136 156 145 126 111 114 171 147 128 129 123 163 197 140 145 169 203 183 156 122 157 181 192 214 190 175
209 178 99 109 187 53 47 48 76 40 55 75 63 49 79 70 95 98 43 18 58 73 125 128 129 141 142 123 118 130 123 112 100 105 141 146 169 214 263 318 305 320 182 121 190 184 206 112 103
164 118 113 133 93 37 55 71 43 72 80 90 63 64 79 62 93 84 58 10 7 35 95 148 133 126 128 170 152 139 121 119 119 102 138 222 252 264 305 324 226 225 204 284 226 200 100 89 87
131 124 113 129 53 53 43 45 65 73 53 65 47 60 82 82 86 72 69 31 3 19 33 118 150 142 139 160 182 160 189 150 214 158 194 266 293 301 309 295 261 254 294 292 240 162 79 81 75
68 72 78 60 60 46 48 39 48 59 50 29 40 50 61 83 72 45 57 51 15 27 37 73 165 170 177 180 204 202 182 212 191 198 169 229 298 227 285 262 288 130 193 188 143 134 118 100 73
120 73 73 59 37 33 39 33 38 38 26 20 34 53 56 51 38 44 41 24 22 18 14 59 126 191 205 196 190 219 218 200 220 200 256 190 259 287 257 252 173 156 155 157 142 148 66 82 82
72 75 57 43 33 35 20 32 39 17 21 23 34 46 46 33 26 31 46 12 17 -8 -6 60 128 236 239 206 204 221 210 220 240 249 244 135 306 273 269 191 174 203 152 263 194 121 76 73 84
43 58 62 43 29 40 56 37 42 103 83 79 72 61 62 64 60 48 46 30 9 7 1 46 138 225 260 246 257 241 237 253 281 295 254 222 231 294 134 176 145 184 185 196 185 101 84 75 82
43 79 44 65 16 85 31 84 94 101 81 73 95 56 48 70 80 94 84 73 27 6 5 48 114 181 282 274 272 225 212 243 311 329 258 210 186 206 133 115 176 221 238 198 134 142 80 73 86
37 18 50 44 49 56 56 51 53 29 56 51 59 41 16 27 37 87 124 106 55 8 -3 29 78 155 266 324 253 214 219 234 295 293 234 176 162 111 131 124 240 345 277 258 152 69 80 60 82
82 70 59 69 48 68 62 44 44 51 36 31 33 23 22 41 48 56 110 123 77 7 -2 37 87 195 322 348 280 237 220 215 271 214 182 150 122 127 132 236 307 313 270 267 163 90 72 63 91
45 46 51 53 41 42 35 35 49 21 19 10 15 26 36 45 33 52 54 104 56 13 -2 47 80 196 259 209 188 185 206 204 191 177 165 144 97 103 154 278 258 320 285 321 142 73 99 93 102
38 28 48 50 72 54 38 22 -20 11 3 28 50 72 82 61 25 49 42 58 44 27 38 44 90 158 169 172 178 184 191 243 178 160 178 171 140 129 205 277 244 262 387 374 137 97 86 158 110
52 31 45 38 47 54 32 7 107 14 20 58 114 111 111 96 70 62 24 24 35 36 81 66 92 121 132 168 167 152 163 201 162 163 183 162 172 151 295 290 237 199 181 202 133 122 143 189 138
40 79 30 42 53 63 47 24 18 -11 16 89 92 90 84 107 131 55 11 -7 -0 45 56 67 90 96 136 136 137 136 155 114 102 104 126 77 113 135 197 214 223 235 250 159 91 85 134 137 111
109 55 42 41 51 50 34 39 61 89 83 61 102 110 81 105 130 92 -5 -27 13 50 53 59 81 95 125 118 131 129 139 117 90 99 100 125 172 223 205 194 247 266 207 131 137 153 176 144 127
43 48 48 34 68 61 68 43 97 82 42 53 125 162 126 87 82 47 17 18 23 30 46 87 79 116 116 119 127 141 102 83 64 101 144 180 248 293 325 383 445 298 247 164 157 166 162 150 157
22 49 118 74 48 50 61 33 55 51 10 38 95 142 113 87 27 3 49 19 11 43 64 107 85 117 100 111 122 112 88 71 76 101 142 180 247 179 275 316 336 289 241 166 150 144 159 166 182
79 82 102 104 79 59 49 16 24 13 58 65 82 125 140 127 44 50 59 67 62 64 57 78 80 103 90 114 129 86 76 86 77 78 134 142 216 223 260 141 165 154 141 159 149 154 174 185 155
97 90 100 96 57 32 31 42 91 102 97 96 83 83 124 188 117 23 67 51 78 64 59 75 86 93 90 110 110 79 82 79 79 63 80 129 159 167 122 111 127 91 125 147 163 189 202 199 164
108 80 88 93 93 111 84 86 77 87 67 33 33 65 88 206 160 71 60 74 40 62 77 81 102 98 104 106 90 78 89 72 70 51 36 79 80 92 86 93 85 124 132 114 130 142 158 146 134
74 64 47 85 68 93 102 88 33 53 71 46 2 29 36 114 115 133 159 162 54 92 105 109 110 101 90 100 78 60 67 56 55 44 25 28 60 90 70 139 45 106 78 53 79 113 130 134 106

GFSSGP_con_3kmhel_093.txt.gz
Helicity
68 35 21 47 70 84 53 17 54 85 89 57 115 64 53 26 30 68 60 63 65 75 82 75 76 56 41 54 81 102 112 117 114 107 112 122 118 116 107 112 103 103 101 80 91 70 64 70 88
29 36 54 78 107 83 55 3 87 52 64 135 61 70 50 50 58 82 61 38 52 68 76 58 51 65 75 83 81 74 90 107 119 114 115 122 122 120 112 117 115 112 114 89 83 77 77 88 104
-7 33 78 100 95 90 51 3 109 32 155 56 45 56 28 38 108 53 96 39 49 69 72 78 87 75 76 59 80 82 86 93 116 115 102 130 126 125 120 112 110 106 110 92 87 87 108 112 118
71 82 114 129 75 50 16 -1 66 41 111 60 54 87 84 94 105 43 102 41 54 66 79 130 111 84 92 74 80 96 96 98 111 109 117 133 131 135 130 102 110 111 111 74 86 96 127 140 124
42 94 113 103 74 51 28 54 110 60 46 60 86 49 48 63 98 104 72 51 56 78 116 91 118 93 101 100 95 86 82 95 109 118 131 117 137 92 81 105 113 129 110 89 97 130 150 151 127
108 80 120 104 60 28 17 57 76 86 62 28 60 52 59 109 69 67 79 68 73 93 115 97 105 100 95 101 109 89 78 88 96 104 129 135 117 96 119 135 120 132 118 107 143 147 164 158 124
92 111 97 71 54 27 34 79 51 54 36 39 20 58 31 84 179 130 70 64 89 94 108 102 89 86 99 99 115 86 91 80 71 81 112 132 93 108 138 126 95 99 132 142 165 187 169 144 115
92 93 68 72 81 59 40 109 26 62 66 33 106 114 33 188 126 79 93 79 101 93 105 104 87 86 87 91 111 102 93 86 54 49 57 49 73 97 97 112 108 125 150 145 157 147 192 157 115
48 126 85 68 52 41 86 127 32 55 55 43 69 65 98 144 84 54 77 116 132 104 90 99 98 88 78 78 97 109 100 90 68 54 34 61 77 95 97 94 131 124 122 91 121 135 146 176 132
120 143 65 45 30 41 94 15 20 68 93 81 51 80 89 109 110 79 59 59 128 55 75 91 107 96 86 76 94 71 85 84 78 66 69 56 82 95 105 138 195 241 256 226 133 126 114 115 101
105 92 70 28 21 71 64 50 36 44 85 40 44 49 41 46 104 86 77 79 69 35 49 77 108 105 95 89 87 70 87 66 87 80 75 78 106 118 125 195 279 320 237 262 219 239 67 77 104
67 57 69 58 46 54 64 59 69 90 56 51 49 50 46 74 104 121 69 78 50 33 37 53 72 99 96 99 99 72 74 89 94 96 84 99 160 151 210 238 271 276 319 290 279 205 103 40 64
90 66 61 74 60 111 64 62 55 67 46 26 32 43 67 90 79 107 70 53 34 24 47 68 56 89 89 127 107 97 88 102 115 131 132 130 148 185 196 209 201 267 285 314 305 327 188 90 64
71 71 58 75 89 34 60 39 35 46 43 59 58 46 62 66 59 63 84 34 24 37 40 102 62 74 102 116 151 125 130 143 123 140 154 125 154 168 243 239 199 199 240 279 228 142 68 109 38
69 93 118 88 63 100 32 41 30 12 13 32 37 50 51 53 59 75 56 61 19 55 55 132 104 112 118 121 185 157 135 150 160 144 144 157 146 166 196 225 188 251 185 165 147 85 276 118 26
129 76 72 62 24 20 23 67 26 -4 12 23 17 37 37 46 65 66 65 55 16 44 53 98 133 148 104 135 171 199 153 162 162 194 205 220 195 207 174 270 291 229 252 158 151 106 129 61 8
104 98 77 73 -12 62 58 57 14 71 99 80 69 48 51 49 40 60 65 28 33 35 63 84 104 107 136 142 175 229 210 206 197 168 222 267 262 197 201 144 206 247 240 189 162 164 148 78 73
118 103 89 26 57 24 26 63 56 45 31 44 34 31 27 45 41 39 44 30 24 22 53 86 69 122 135 167 214 264 265 219 257 243 259 295 259 189 111 141 192 248 244 197 181 176 138 98 69
96 130 118 104 23 114 120 69 57 32 27 15 25 23 24 27 36 49 35 25 16 37 61 104 81 124 152 240 272 307 355 288 241 267 246 316 253 219 120 103 106 187 234 158 149 162 154 83 106
126 81 76 77 67 76 52 52 31 30 19 -1 24 35 38 49 54 49 46 58 65 72 125 148 42 59 168 205 225 209 237 183 200 235 263 287 236 217 154 123 161 179 169 196 190 183 134 145 156
135 101 45 71 70 54 23 79 26 -29 -12 -28 16 43 74 78 80 84 75 74 76 112 113 110 45 53 153 114 136 191 244 247 241 229 242 214 190 198 177 108 176 240 284 266 227 184 185 136 106
57 63 29 61 72 67 16 86 119 12 -7 18 69 102 123 125 111 96 86 90 73 54 111 79 48 87 124 55 110 192 260 200 206 198 197 190 196 191 167 203 241 318 267 244 216 196 168 117 155
32 35 62 30 48 38 83 35 73 12 12 28 83 93 69 79 69 98 99 89 48 44 135 82 70 89 78 48 118 179 102 111 135 153 171 162 200 196 190 232 270 264 182 253 183 236 170 127 159
39 68 42 61 56 95 62 65 18 30 111 151 101 73 55 67 56 56 54 43 41 15 148 71 80 77 83 86 58 111 99 132 158 168 149 141 227 177 211 258 289 276 227 237 205 195 109 131 134
58 66 99 66 76 63 32 52 26 76 121 86 76 110 82 75 90 82 67 23 -4 69 112 73 51 68 80 66 63 101 102 110 156 141 153 167 178 194 167 262 310 234 248 210 162 122 127 150 165
54 51 92 62 44 23 52 55 47 148 69 69 77 66 71 120 154 123 90 58 74 94 119 57 30 49 79 41 77 104 133 143 134 174 128 106 141 104 175 129 181 213 226 233 207 160 119 153 133
55 58 12 50 94 108 46 2 49 43 148 82 77 72 112 130 176 182 119 43 18 123 73 53 58 66 39 55 93 117 138 139 163 142 112 132 154 189 231 291 189 181 195 240 172 166 140 155 152
37 39 67 82 95 105 75 -0 155 219 118 98 68 67 89 97 129 241 210 53 46 56 61 65 71 61 41 70 96 118 141 163 169 136 117 146 156 175 179 236 340 365 404 374 235 151 172 168 158
74 51 76 83 91 90 53 89 122 86 95 84 72 51 75 108 120 210 226 177 43 3 44 52 58 58 102 104 118 119 139 168 146 121 108 126 183 206 141 132 164 256 320 286 330 221 186 154 142
37 46 25 71 38 87 94 47 -6 99 89 78 78 53 48 85 95 167 205 222 160 55 44 59 104 132 135 135 113 105 120 154 132 114 94 107 140 119 88 54 89 134 130 134 158 162 166 162 150

GFSSGP_con_3kmhel_096.txt.gz
Helicity
59 29 29 59 73 84 53 36 -33 -43 80 88 121 155 74 69 123 165 164 146 150 104 62 48 63 72 70 89 100 94 92 88 86 89 94 83 77 67 59 59 70 76 77 71 60 71 73 75 79
31 14 42 82 105 90 64 -16 -43 -27 139 211 202 111 130 65 35 41 127 114 107 72 46 31 43 51 56 80 93 87 85 85 82 85 91 91 83 63 58 70 68 70 74 66 58 62 71 83 94
0 -11 75 120 108 95 69 -22 -57 60 145 168 134 44 61 62 36 52 155 104 108 73 32 40 54 54 60 71 81 87 82 88 93 91 81 78 71 70 72 71 75 80 81 70 64 78 78 92 92
61 102 113 133 78 59 10 -30 -1 27 106 127 133 78 55 97 128 96 118 121 66 69 50 81 67 72 72 81 82 87 85 88 90 95 76 75 77 78 81 79 86 91 77 72 93 88 98 90 83
33 110 146 114 63 34 34 11 26 73 76 63 27 137 23 60 167 145 100 99 74 119 133 81 85 75 72 81 89 84 93 86 68 79 79 74 76 84 60 71 86 80 74 91 97 104 104 93 76
158 116 152 138 73 32 5 9 21 39 84 50 96 92 43 155 131 145 97 96 98 198 101 85 91 80 75 73 84 88 90 85 79 74 74 65 75 66 62 94 86 102 90 101 91 113 100 96 75
111 141 144 87 67 61 9 0 56 51 73 58 44 57 44 34 216 212 143 141 167 205 103 78 88 83 89 74 75 87 85 84 90 71 64 55 57 57 76 94 81 77 87 120 123 112 109 89 74
78 105 94 101 87 58 40 33 36 103 93 70 36 41 44 208 199 214 178 164 188 211 168 73 99 91 93 83 83 77 74 75 90 85 62 55 43 63 74 74 70 74 111 93 96 67 106 59 51
35 136 155 105 90 72 15 35 32 81 121 64 66 52 92 163 115 105 118 170 208 189 163 124 108 100 92 92 93 90 71 75 96 97 62 24 39 59 71 69 79 79 91 60 120 134 119 67 33
68 130 103 64 59 50 22 20 51 94 106 110 44 62 77 69 79 102 118 108 201 188 175 197 124 112 94 86 126 92 82 84 86 93 87 40 50 85 88 120 115 191 170 207 207 232 87 45 67
53 75 40 41 23 19 65 68 43 73 44 87 63 30 82 94 126 114 130 104 65 145 179 206 136 132 117 93 149 87 88 88 90 87 99 102 87 107 91 220 217 263 268 309 353 161 207 89 89
54 51 30 37 24 68 80 47 82 53 83 68 94 75 71 89 40 97 103 129 120 134 184 197 140 116 128 128 145 86 86 80 88 99 98 113 129 153 152 217 268 384 373 331 274 143 37 163 86
53 38 22 26 34 42 74 132 131 123 79 76 82 68 77 90 82 79 93 89 83 106 208 272 198 126 122 141 127 126 93 98 83 114 115 140 154 207 185 227 270 337 314 308 303 271 194 136 95
53 44 42 36 45 39 59 122 168 118 64 87 89 86 58 100 99 85 112 95 70 85 108 408 230 151 178 153 181 159 144 137 126 137 148 171 189 205 223 267 265 262 306 280 291 233 253 183 138
72 110 117 102 84 79 41 68 106 73 45 38 27 57 72 82 80 94 105 109 75 69 88 311 307 203 180 154 184 186 158 181 220 214 199 188 205 218 241 287 301 291 219 276 273 265 256 208 108
120 152 172 129 81 58 5 72 39 48 -8 85 60 10 45 72 71 76 89 115 87 67 102 207 322 266 177 166 248 182 163 170 194 229 223 194 216 242 288 302 276 258 291 210 211 181 137 179 99
147 169 108 57 43 47 29 43 3 4 45 37 28 52 38 36 59 64 61 89 116 45 89 188 298 277 240 250 272 211 157 194 200 214 225 241 239 268 314 354 300 282 237 212 191 147 99 348 189
151 81 53 47 28 9 107 89 18 30 29 29 94 141 97 73 50 57 53 36 67 89 67 185 357 374 277 255 238 172 167 178 202 254 228 199 252 254 336 330 316 287 255 212 193 144 158 178 119
75 67 75 69 18 21 45 50 33 20 70 67 59 63 43 29 36 42 46 83 71 70 77 173 359 409 397 239 256 210 234 238 250 313 293 236 257 206 278 316 280 251 224 264 181 189 170 158 145
62 67 62 56 43 83 128 105 61 55 23 30 9 18 25 19 15 9 29 104 100 90 69 140 242 360 366 237 168 225 244 250 283 300 251 282 251 251 275 300 277 244 191 394 234 218 159 179 152
75 65 63 74 41 42 37 48 54 8 39 10 -25 14 33 21 27 55 71 95 130 134 112 175 219 244 302 216 184 187 162 174 237 310 262 222 246 269 282 241 257 251 235 213 209 202 160 212 148
56 21 59 41 74 51 23 8 51 20 -20 -57 60 66 28 100 122 151 155 137 91 154 207 223 223 213 335 274 161 94 153 249 311 282 218 199 200 224 243 212 252 273 274 266 189 191 168 188 233
76 23 64 48 30 59 65 88 110 46 47 61 104 102 93 81 92 84 104 110 93 115 206 261 232 202 379 290 118 51 139 249 243 190 189 212 203 238 210 200 243 249 242 210 191 249 231 214 205
83 41 58 6 63 36 44 73 95 121 13 138 189 135 106 122 148 74 54 60 90 105 134 279 272 224 369 211 55 75 225 197 136 163 197 216 221 211 178 217 243 246 235 238 254 204 221 185 197
95 97 76 74 77 50 14 13 62 23 173 161 149 119 144 145 173 213 47 44 36 65 106 305 280 227 247 127 66 133 171 124 137 228 189 228 219 197 194 203 229 242 294 282 234 177 185 238 185
-21 57 101 80 41 -13 -9 31 2 51 96 130 205 179 176 127 108 135 298 244 48 30 249 258 231 151 192 116 91 163 195 152 179 254 264 270 229 194 198 200 194 214 293 220 187 186 209 295 201
58 32 26 95 93 -14 44 1 130 131 66 122 171 223 176 122 61 98 192 426 80 140 269 301 188 56 138 169 177 133 143 208 203 251 257 198 173 164 193 177 158 252 266 202 160 198 239 248 101
28 58 65 63 58 33 72 65 57 286 174 165 205 150 106 60 101 126 149 470 383 114 98 84 70 117 211 236 171 156 220 198 215 228 175 155 171 167 182 131 173 210 239 199 175 170 225 150 123
91 62 93 62 62 74 98 39 178 110 104 95 106 88 40 69 103 143 170 410 619 74 57 47 184 280 259 248 162 190 194 181 194 140 139 141 169 166 156 164 163 178 185 275 199 244 268 156 151
3 26 52 69 96 54 43 97 146 95 19 112 160 96 13 72 102 135 167 262 430 312 5 98 208 288 143 187 200 187 170 136 143 147 114 146 127 128 132 150 168 226 260 184 186 322 199 285 177

GFSSGP_con_3kmhel_102.txt.gz
Helicity
48 77 110 156 176 222 164 103 80 30 76 24 18 13 56 149 144 186 55 77 117 72 8 8 32 75 103 160 170 161 139 125 120 118 121 119 103 80 66 66 65 67 76 71 73 77 66 67 77
79 90 143 205 255 265 152 117 -10 63 143 112 9 38 111 148 114 126 83 40 116 86 54 17 24 55 82 134 148 144 123 109 95 92 97 96 92 76 63 51 53 60 66 70 78 73 64 64 73
95 115 183 206 265 264 209 166 34 56 11 47 18 51 65 80 100 58 20 71 177 123 74 41 34 46 69 93 112 108 103 98 85 80 82 82 76 66 58 53 58 58 61 63 69 66 64 72 64
147 190 192 249 252 92 167 93 82 35 36 93 10 42 98 71 58 40 122 141 173 122 82 65 68 61 61 65 91 89 93 101 84 73 73 72 68 59 56 56 57 54 51 63 72 69 67 69 63
225 251 206 271 176 129 99 47 25 23 99 117 66 83 120 59 106 184 166 170 163 128 125 112 100 88 68 62 63 80 75 98 90 74 72 71 67 55 58 56 57 55 48 60 74 71 72 69 68
212 245 302 256 189 152 72 31 29 15 99 127 63 125 178 188 251 182 158 166 203 223 166 142 105 114 91 63 54 65 73 79 90 80 73 73 66 54 50 39 68 61 50 52 79 79 76 67 80
191 255 276 241 230 159 82 44 48 81 86 39 66 188 224 204 144 166 167 232 211 227 210 179 145 122 118 88 70 53 88 72 82 89 77 80 65 53 48 38 69 67 47 82 93 84 85 59 94
196 243 234 185 164 104 51 38 -3 60 54 -4 -4 58 192 89 134 269 257 238 257 259 218 214 197 162 133 97 81 60 76 76 73 99 98 82 72 62 45 38 51 51 64 87 65 68 77 74 135
170 273 262 219 150 179 93 58 15 12 12 -24 53 44 71 130 241 366 357 379 324 265 208 232 245 199 156 126 100 75 63 89 68 95 111 102 78 71 64 47 52 57 80 69 122 111 104 132 176
225 267 239 214 142 65 63 41 43 37 33 7 23 199 107 138 250 318 295 278 293 263 177 209 224 218 189 158 145 121 92 103 78 91 93 104 94 86 76 68 84 99 106 138 153 148 142 190 185
185 151 161 155 124 88 85 66 37 54 61 14 19 57 162 64 153 232 269 272 227 196 242 190 202 228 222 194 165 161 139 112 99 87 104 98 100 110 108 105 124 198 220 225 221 229 207 206 190
112 55 96 90 72 86 62 70 72 55 64 23 1 -17 51 141 84 79 182 210 202 258 206 212 213 244 225 254 189 161 139 126 141 77 127 113 110 135 137 157 186 263 258 270 296 277 208 199 189
90 30 52 60 70 68 70 83 125 66 65 21 -29 -44 8 12 58 116 46 127 202 211 189 207 273 249 256 244 255 197 156 129 126 126 117 127 121 138 161 189 236 282 301 317 308 232 190 178 183
95 60 23 24 51 79 101 35 122 68 55 17 0 6 -30 55 48 67 86 105 133 206 202 229 289 271 271 235 245 233 201 160 142 146 100 133 132 154 192 229 235 286 328 332 305 246 208 222 180
97 60 24 -19 27 40 130 51 68 90 72 42 -9 14 -2 -50 -15 67 105 125 141 170 211 269 285 326 318 254 243 244 227 216 161 141 117 134 166 183 227 255 246 257 302 352 348 308 261 229 173
88 101 135 78 141 115 157 130 -3 50 82 84 83 30 56 110 13 28 70 90 97 180 249 264 284 353 348 281 285 264 243 219 203 172 137 149 171 226 248 265 260 266 297 336 365 327 289 241 205
159 143 143 25 111 109 129 161 82 92 73 88 80 63 74 128 159 148 114 117 144 144 268 260 273 304 312 323 321 299 255 239 234 217 183 185 210 260 282 277 281 280 285 292 329 331 296 253 209
190 168 153 147 52 105 159 173 102 102 70 91 129 95 68 113 154 109 218 128 170 190 248 307 313 277 291 387 339 391 317 286 248 238 223 264 259 275 317 323 300 290 280 278 296 314 275 272 223
155 181 200 124 69 135 152 139 136 152 118 111 106 74 71 75 86 55 79 115 124 100 79 243 326 303 354 391 322 290 267 318 317 291 285 280 302 303 335 339 322 297 283 274 281 272 246 236 174
181 207 206 189 153 178 171 213 102 70 117 65 65 54 11 13 84 25 -7 95 86 96 124 179 275 348 367 411 323 331 333 380 345 359 309 284 282 291 326 327 321 307 312 279 305 316 263 227 201
173 180 167 164 126 158 182 176 140 111 62 28 -2 30 56 69 65 14 5 46 47 49 122 185 222 315 374 377 384 439 478 376 418 318 296 302 284 299 323 332 340 306 303 303 324 332 287 260 190
172 103 131 170 134 179 54 183 82 79 34 -14 -123 -47 -8 -10 -26 70 13 29 72 106 72 103 212 298 353 393 413 434 433 384 347 348 307 294 258 277 304 327 316 289 303 311 321 320 276 247 290
165 102 87 67 154 120 -50 87 -73 45 22 -1 -18 3 -64 -35 122 230 298 369 241 201 244 100 132 225 344 391 433 489 422 325 354 380 332 265 254 266 265 276 291 274 316 317 326 300 265 265 293
108 48 66 46 77 50 -82 71 147 24 31 22 95 123 262 368 419 408 333 320 320 259 182 81 167 216 287 372 390 351 342 357 355 312 258 233 260 239 233 249 255 266 289 299 297 272 232 242 255
131 70 118 76 65 -80 -38 -42 167 -20 -33 33 98 185 220 302 532 480 478 416 377 375 373 122 118 199 252 321 313 294 324 323 314 227 225 187 194 214 225 215 220 270 318 293 267 239 239 282 274
12 50 75 52 -57 -105 -105 -6 55 83 66 204 227 187 122 347 321 381 387 391 398 414 484 430 189 177 277 250 270 295 290 293 243 206 164 162 153 177 188 169 198 217 220 229 216 238 254 269 265
-66 12 23 -50 -100 -127 -57 -22 81 97 108 227 241 83 55 375 292 238 321 395 370 434 457 516 494 349 210 209 260 290 238 229 171 138 129 182 189 186 156 176 181 179 210 221 225 199 202 206 205
-6 -57 4 3 -105 -54 45 -9 -2 343 172 93 182 358 312 473 361 270 316 432 410 378 429 463 525 481 198 185 177 203 195 207 203 198 155 176 184 183 153 152 131 167 192 188 160 156 190 190 236
-1 0 3 -52 -118 -59 -68 36 -65 91 204 291 297 222 100 277 260 274 295 338 322 342 357 391 432 481 462 144 147 197 251 236 221 193 163 142 164 166 157 169 175 162 167 170 160 174 155 179 194
49 -10 -38 -114 -102 -58 -138 -72 44 132 80 34 170 251 68 103 183 244 241 284 313 358 377 296 345 354 410 349 181 243 284 247 238 175 125 121 108 122 130 139 141 129 122 119 122 125 307 254 302

GFSSGP_con_3kmhel_105.txt.gz
Helicity
65 98 117 150 167 235 175 130 100 80 76 46 104 84 89 3 43 68 73 118 170 146 79 18 3 58 99 133 177 234 249 242 201 172 151 156 166 148 113 94 87 81 76 80 74 66 68 64 69
97 113 176 180 241 302 140 94 43 38 30 69 114 136 82 40 48 74 120 45 78 128 46 5 32 81 100 107 143 205 238 248 212 169 149 141 135 120 92 83 86 85 82 81 77 71 70 73 85
143 168 196 197 231 256 118 47 36 41 28 58 84 52 54 54 68 36 69 120 148 116 47 18 66 80 94 92 112 164 185 197 191 163 142 128 116 91 80 77 76 74 74 76 67 68 72 74 89
160 217 249 266 228 116 147 94 58 29 36 62 103 173 58 35 57 63 139 203 187 92 40 45 78 80 97 76 84 121 148 161 156 155 143 124 109 84 78 73 71 64 70 71 74 74 70 77 89
218 257 288 311 226 154 148 58 47 12 28 100 158 136 167 30 142 153 185 174 156 107 57 73 93 92 108 65 76 94 112 134 140 140 151 130 102 81 72 67 77 58 65 82 86 74 75 94 97
264 263 349 292 281 184 108 41 18 20 -7 44 98 170 159 96 134 143 223 165 157 166 140 140 127 114 85 76 63 80 81 113 119 131 157 134 110 77 64 65 83 67 58 81 93 79 90 93 101
221 280 289 267 225 175 116 65 68 35 14 91 110 178 118 96 147 208 218 224 223 201 228 200 163 129 89 82 47 72 62 96 103 105 146 137 115 84 61 69 79 62 68 94 82 92 101 90 104
192 229 269 213 184 130 78 87 81 87 60 71 31 199 195 15 198 317 248 226 194 193 228 218 173 138 102 89 72 63 59 72 96 84 116 130 119 100 72 69 58 50 67 82 93 99 111 108 110
153 260 272 223 170 198 122 97 35 5 11 31 18 55 -38 40 182 314 268 262 230 211 221 228 201 176 130 139 92 83 70 60 89 82 84 117 122 112 93 83 60 74 78 90 110 99 119 136 147
219 255 192 189 146 101 79 75 53 46 39 -5 36 75 63 66 177 175 197 188 204 205 214 228 214 197 198 196 163 118 82 89 82 98 65 98 118 125 117 94 81 98 104 117 125 140 165 177 151
203 220 138 121 96 72 63 80 61 61 69 39 97 49 119 148 106 106 90 132 168 185 237 198 211 216 211 230 229 190 162 135 97 87 115 90 115 133 136 130 120 134 148 156 180 209 200 190 180
159 110 100 91 74 62 54 56 41 65 65 39 102 85 51 73 121 106 44 44 86 188 141 178 188 205 218 258 242 229 210 178 133 103 82 105 93 124 144 161 174 191 188 206 232 246 210 219 213
118 84 65 64 68 56 38 24 32 38 39 58 98 118 42 40 56 64 77 76 62 84 77 179 235 222 232 255 257 248 234 206 156 109 87 114 70 102 146 162 198 209 230 246 258 260 217 221 225
103 67 41 6 28 23 20 -29 44 29 8 0 22 47 67 42 14 45 65 76 91 91 68 102 206 227 272 270 271 276 263 213 199 155 112 84 122 93 141 167 185 201 226 253 276 272 215 200 224
59 26 3 -6 0 26 25 39 98 47 29 34 2 15 42 65 25 13 29 71 117 137 124 152 138 257 286 259 264 298 271 248 215 183 151 106 116 140 144 177 187 192 222 260 274 269 241 234 246
66 50 96 100 127 116 56 60 59 12 8 7 41 19 14 17 55 77 75 64 103 151 126 173 192 201 286 294 287 282 299 255 212 198 197 138 125 180 169 190 195 217 233 258 264 280 249 253 258
127 120 80 48 -47 103 129 75 34 91 56 33 26 18 49 8 10 39 76 172 192 171 190 164 219 265 277 316 318 313 284 283 235 225 214 181 180 208 186 201 216 213 223 250 268 262 257 283 274
108 130 109 72 99 99 66 125 41 47 95 93 78 74 112 91 56 56 95 149 199 200 211 226 232 283 315 358 371 325 297 255 258 236 208 204 214 233 227 237 251 251 224 259 258 268 281 275 292
129 134 104 77 85 110 125 149 153 133 171 136 113 182 218 184 128 46 28 51 81 95 153 257 242 276 337 366 423 358 341 291 268 234 218 225 221 238 251 254 255 254 254 248 274 284 259 262 294
157 138 132 75 67 118 126 139 150 177 197 182 136 170 205 133 70 59 62 43 43 31 41 231 257 282 329 358 365 392 346 283 275 300 246 265 265 273 265 270 274 256 249 266 296 307 279 260 307
145 186 166 146 77 103 169 176 195 133 125 186 155 139 82 75 -1 -24 22 26 4 22 2 64 178 228 276 308 355 473 399 350 328 298 262 244 271 292 329 284 269 268 285 292 292 293 287 287 298
148 169 167 163 174 181 121 261 210 138 87 55 81 112 43 46 53 29 42 85 53 76 52 48 106 192 237 290 365 385 391 342 304 274 319 260 292 306 343 295 262 269 289 294 305 287 268 300 319
168 161 174 164 195 206 264 306 155 74 58 22 94 68 64 79 124 160 211 185 195 210 220 146 63 123 202 278 315 373 375 320 367 338 340 356 349 342 355 294 275 265 297 296 283 289 298 305 307
124 175 169 166 203 368 177 177 21 30 44 15 165 135 109 139 241 340 420 376 342 364 385 351 91 95 170 248 263 286 341 377 400 355 339 338 347 365 321 284 258 265 262 288 288 290 291 319 290
273 355 379 412 314 235 70 87 68 29 19 76 155 251 229 200 232 420 459 476 490 498 506 534 366 162 186 212 240 252 255 347 394 323 321 304 342 346 282 290 283 266 266 258 266 292 304 320 277
233 216 350 267 207 87 30 -33 37 100 164 222 195 181 200 259 321 365 408 411 452 468 524 510 429 314 128 119 137 204 281 269 267 253 264 268 262 202 238 237 210 223 233 232 257 281 313 307 246
133 173 107 91 -2 -39 16 -56 5 76 172 354 346 451 278 266 -87 379 363 245 409 445 404 413 360 346 366 114 147 193 266 256 251 235 194 201 205 214 146 125 168 175 177 210 256 278 275 247 225
84 62 17 72 -99 -165 -94 -65 -54 31 111 321 293 462 431 306 277 572 413 271 293 366 373 410 394 382 409 354 196 198 215 209 211 226 228 200 181 137 160 168 150 145 149 178 216 210 217 225 237
21 11 14 -39 -6 -32 -111 -173 -20 -27 -6 172 353 173 212 378 331 305 265 261 321 371 343 380 366 335 380 366 361 251 191 190 202 196 208 186 166 142 131 154 134 123 125 165 184 180 175 192 177
-41 -60 -24 -15 22 -31 -39 4 -4 14 15 29 98 98 142 178 181 325 287 323 323 351 356 381 373 375 375 361 355 153 172 194 199 201 182 157 139 109 120 121 126 141 148 143 152 146 159 179 170

GFSSGP_con_3kmhel_108.txt.gz
Helicity
91 97 104 150 182 214 126 69 52 52 28 42 67 113 136 86 110 127 19 114 94 237 194 112 94 78 71 121 155 172 206 235 246 249 232 208 189 170 142 115 93 91 90 76 71 67 61 67 75
91 115 172 197 253 258 129 97 60 57 31 15 45 51 92 82 52 46 68 84 114 184 148 114 86 77 71 133 163 157 182 221 241 253 239 222 190 164 143 119 97 95 84 76 67 64 66 77 85
120 135 195 210 265 267 168 123 61 40 39 39 23 27 64 103 38 30 56 89 98 198 137 111 97 66 72 142 170 147 159 198 229 226 208 188 176 155 144 116 98 93 81 78 67 74 76 92 98
152 194 245 317 308 148 126 113 89 8 70 65 70 118 80 38 30 11 115 142 157 170 146 117 93 47 78 143 161 148 152 173 196 195 182 167 156 159 139 107 88 84 73 72 68 71 88 95 106
205 230 293 329 265 176 105 56 65 47 -16 19 57 23 131 62 57 81 103 179 201 188 147 105 78 52 81 136 147 127 134 151 169 173 164 147 146 149 137 102 81 70 74 76 70 78 93 95 108
255 246 320 298 253 142 70 45 53 44 11 -13 63 84 87 81 35 30 123 198 212 212 159 88 74 86 110 131 139 114 110 119 143 164 155 139 132 135 129 107 76 68 92 92 80 93 94 105 107
234 275 245 239 211 133 57 42 47 44 45 17 33 92 101 101 48 -17 111 230 274 229 159 110 102 106 111 122 118 105 103 101 110 141 139 130 125 122 133 107 83 72 100 87 97 105 105 116 104
229 255 264 225 179 103 51 44 63 81 25 44 34 114 176 92 26 37 142 155 247 240 175 124 108 111 124 118 114 115 96 83 87 113 123 105 115 108 123 112 99 97 104 105 111 113 120 134 110
192 283 279 246 161 121 87 89 51 43 58 26 9 71 84 66 -44 67 134 111 182 182 149 159 140 131 143 116 81 88 89 83 87 90 116 97 95 98 108 115 115 125 120 124 118 124 136 140 119
215 270 156 143 145 116 112 95 53 43 90 88 47 64 77 56 16 60 82 87 69 89 148 173 169 164 160 123 103 76 65 84 90 88 105 127 82 88 102 95 114 119 141 142 123 142 144 160 127
194 233 147 143 105 90 79 95 59 49 55 86 87 77 141 95 113 44 29 25 31 52 76 96 182 196 181 167 165 134 94 94 114 102 119 115 114 75 98 102 118 122 151 157 155 177 174 167 166
203 136 122 75 58 81 79 85 74 85 41 57 71 99 149 161 159 136 61 -11 49 40 41 85 132 147 171 192 195 161 155 121 133 129 134 140 128 108 71 105 137 153 152 192 198 189 178 172 175
150 114 134 117 78 55 33 57 61 22 39 36 25 42 90 155 169 141 94 60 -5 12 79 94 133 125 140 205 228 213 183 181 177 161 151 168 163 119 108 84 130 148 168 201 209 210 206 202 192
148 114 80 34 43 67 79 44 50 58 50 25 25 29 42 58 106 125 84 82 82 71 59 71 140 160 169 176 225 230 217 227 254 219 176 179 149 140 107 117 109 134 149 185 210 225 221 202 212
94 96 78 65 65 14 51 40 -12 72 102 66 74 58 32 75 103 108 86 74 46 64 72 126 124 190 227 193 181 210 252 298 296 262 203 172 134 157 134 127 117 121 148 187 203 220 219 234 214
110 91 148 141 157 82 30 68 105 27 99 80 28 20 31 15 25 87 104 123 103 97 98 111 158 165 232 267 236 214 251 266 240 231 225 155 126 201 174 138 168 146 169 184 190 223 231 199 202
127 129 95 77 32 72 75 43 34 76 -31 11 29 21 27 33 46 31 87 130 137 148 144 157 180 213 210 245 305 288 260 256 231 204 208 187 160 209 212 183 194 196 178 187 198 215 227 229 222
106 111 94 116 54 67 68 37 -56 -19 -2 6 1 20 29 42 50 98 96 153 122 113 193 190 208 204 211 254 295 323 292 228 251 230 190 208 207 212 218 266 222 228 190 210 225 206 201 220 227
156 156 109 86 54 52 21 38 4 -33 -27 7 35 67 62 58 81 106 120 169 177 107 85 126 163 193 231 270 317 301 298 308 284 243 204 207 241 218 232 270 278 229 226 212 222 213 237 259 266
140 110 91 4 -34 2 18 37 44 0 -20 3 38 47 76 108 137 130 168 175 168 114 67 93 114 123 226 226 313 314 309 322 304 296 224 220 217 243 232 267 269 258 268 230 213 252 269 251 280
123 103 73 54 12 10 45 9 54 68 -3 33 48 141 221 203 198 167 193 169 135 109 106 81 79 86 142 181 252 319 308 363 321 269 246 235 212 224 215 251 265 265 267 255 253 247 284 287 276
102 55 68 70 50 18 153 79 -124 -51 26 71 207 165 287 273 206 184 181 172 117 65 83 103 84 68 120 196 253 265 313 398 343 278 261 273 228 224 243 258 298 293 256 247 256 266 271 296 282
67 53 76 108 125 131 109 202 192 77 168 232 6 156 190 181 155 120 111 130 141 151 94 122 113 52 82 184 226 279 271 268 270 304 245 276 260 224 259 262 277 284 274 238 244 262 282 290 284
61 86 112 157 218 235 174 176 202 135 192 93 67 164 199 185 173 159 132 124 176 265 257 200 173 79 96 164 205 235 226 279 323 271 286 279 288 274 220 253 271 315 303 238 244 248 260 280 265
175 171 94 124 161 148 163 265 203 139 65 85 128 224 170 206 209 171 156 194 211 315 359 355 322 291 126 126 149 180 204 253 284 324 255 279 308 273 259 257 266 312 355 267 237 253 248 274 277
175 167 206 160 282 287 121 246 159 55 96 97 145 175 175 237 214 172 133 213 265 319 357 423 410 353 343 147 92 145 172 214 227 278 265 216 251 250 253 258 271 304 274 219 206 234 245 254 269
136 145 144 317 146 231 126 123 133 80 54 35 56 137 245 265 323 259 198 186 274 313 305 352 374 384 344 297 173 190 181 197 204 211 234 234 208 208 213 225 223 277 224 189 200 203 222 232 242
105 63 167 90 126 135 46 62 8 -23 -32 -7 30 53 211 234 451 368 341 405 291 295 294 295 297 309 339 338 286 141 167 197 233 241 231 208 180 201 192 180 212 207 164 160 165 166 179 215 254
38 19 22 36 53 81 0 -19 -14 -8 -6 -20 7 43 53 80 280 252 357 653 379 338 330 232 306 331 332 345 301 168 142 191 236 241 213 191 183 147 175 194 184 162 144 150 132 139 168 186 192
-6 -36 -17 -20 33 40 42 15 5 -9 -9 3 11 28 44 67 154 133 169 356 377 358 343 340 291 322 355 387 414 213 208 282 247 188 197 188 180 203 216 161 152 121 101 114 112 126 154 177 180

GFSSGP_con_3kmhel_111.txt.gz
Helicity
83 85 81 108 113 150 102 40 75 63 33 21 48 46 78 51 64 100 10 36 68 152 191 157 156 121 108 90 94 139 154 162 202 216 215 197 174 156 149 135 107 79 71 64 65 65 63 58 54
96 112 133 149 172 189 129 88 62 35 48 47 41 41 22 43 3 52 40 35 42 167 204 150 159 136 125 114 111 133 154 157 180 214 226 215 187 165 152 143 103 76 69 64 64 67 73 76 80
116 129 153 179 205 163 86 81 53 53 61 47 51 64 59 70 100 73 0 52 30 126 152 139 167 148 144 127 128 124 153 157 160 185 209 208 186 166 152 134 103 77 71 66 64 74 85 97 88
143 171 210 221 214 117 64 66 65 63 46 70 53 83 101 61 84 34 -7 17 33 112 139 153 162 150 152 146 127 121 145 155 155 171 185 181 169 163 147 121 101 88 72 67 61 75 89 98 96
184 198 239 249 202 136 73 51 43 30 45 15 11 30 83 58 52 17 16 -9 26 55 140 157 131 151 155 146 134 127 141 137 148 164 162 155 154 146 134 116 100 88 81 65 82 80 95 99 100
217 211 240 214 169 115 49 24 26 32 19 11 8 22 28 67 95 69 41 15 36 52 128 164 130 133 160 143 145 131 130 130 131 135 140 143 139 132 127 105 96 95 98 79 77 87 103 101 100
214 227 218 210 195 135 78 60 40 45 53 43 65 65 57 115 82 65 62 31 84 92 109 164 133 124 136 118 128 124 127 120 120 115 118 131 129 125 113 92 84 95 108 105 91 90 104 101 103
209 220 231 185 165 114 74 65 56 59 57 90 64 68 96 146 22 51 85 52 95 136 101 110 138 133 109 81 110 117 114 110 106 101 95 121 121 114 105 84 84 105 117 107 104 104 110 104 106
182 234 242 194 161 127 113 116 72 75 81 88 53 82 86 99 25 37 104 21 78 128 138 94 115 121 113 111 96 97 92 95 99 90 79 100 106 96 90 83 86 103 111 115 118 120 114 117 100
199 225 149 156 145 145 151 107 82 75 100 85 73 60 90 122 109 120 160 85 42 71 141 125 113 124 110 97 93 87 88 67 68 71 67 63 90 111 81 74 88 104 117 111 119 123 126 113 88
193 228 144 152 88 107 92 69 73 68 55 52 69 73 103 145 176 141 115 142 34 33 74 100 117 143 133 111 93 104 109 103 94 75 81 67 68 94 98 82 80 91 97 93 112 121 125 108 98
185 134 144 139 121 113 94 76 60 55 46 22 23 56 40 112 156 188 162 131 90 11 31 48 75 110 151 137 104 101 111 127 117 103 105 118 104 96 118 104 99 99 113 98 121 119 108 98 92
144 130 132 113 77 66 53 68 77 56 53 53 54 73 64 80 132 187 165 159 124 84 44 34 68 101 127 153 135 117 125 134 140 120 125 160 145 119 118 135 105 89 96 103 114 112 101 102 96
136 125 97 72 62 63 68 69 93 65 102 108 98 104 100 93 132 142 184 188 168 163 93 48 49 78 150 190 164 146 158 154 160 137 136 154 168 157 146 138 139 90 84 102 100 107 106 99 107
135 118 108 82 118 127 94 58 80 164 176 197 134 90 64 68 85 92 118 140 147 182 158 88 58 66 71 129 209 168 159 178 169 163 172 170 164 159 170 166 140 139 101 95 94 87 93 85 104
138 117 141 124 185 131 108 125 46 94 186 89 32 23 45 64 39 66 83 96 110 105 143 113 81 94 102 113 154 222 226 201 161 126 175 179 170 166 182 172 143 148 175 126 110 108 111 87 105
195 189 159 155 160 105 110 114 34 111 25 3 26 8 -3 14 41 38 51 76 105 128 119 123 83 71 82 99 187 192 211 255 207 166 178 197 193 210 177 203 183 179 172 202 155 127 118 108 118
178 160 146 134 94 109 84 48 35 -9 11 7 -32 -43 -20 9 19 24 45 51 89 122 141 155 154 115 98 125 163 189 214 217 210 207 196 190 201 219 163 202 226 218 227 204 228 193 140 117 108
149 137 104 72 60 55 28 34 35 -15 -25 -41 -38 -8 -6 -2 25 44 82 106 86 120 170 184 186 189 163 140 159 186 189 224 235 229 200 199 195 211 207 203 257 238 233 230 254 244 198 201 193
138 126 108 60 64 47 38 20 13 -56 -49 -16 -21 10 53 77 93 94 136 156 152 188 210 221 218 199 182 179 171 161 188 202 225 272 256 214 207 194 257 237 272 282 268 268 264 263 281 218 246
116 119 83 77 55 17 9 -20 -37 19 -11 33 130 143 195 225 233 243 247 244 258 235 241 213 196 185 132 134 119 145 157 118 215 242 244 267 222 216 265 266 231 253 293 285 278 263 267 254 265
150 74 65 61 58 -1 53 9 -90 -83 65 128 151 213 232 243 261 263 198 143 194 146 107 162 147 121 139 116 110 118 205 226 271 302 252 274 298 233 252 288 219 238 284 287 279 279 248 254 242
118 68 58 42 8 28 -25 41 53 102 40 75 182 257 204 120 87 98 116 92 55 60 75 51 88 113 122 94 95 129 163 221 229 235 234 248 280 217 264 287 259 217 252 267 280 288 243 233 256
115 97 67 18 23 91 46 63 88 47 15 114 165 124 56 60 105 95 70 43 56 94 91 75 77 104 134 118 58 92 126 175 214 216 255 259 250 294 274 249 253 221 213 202 266 272 242 242 224
168 158 69 44 113 113 242 240 166 163 195 137 63 -9 25 29 45 37 73 84 102 85 115 135 130 121 187 163 93 88 95 116 137 140 194 204 239 277 251 275 254 246 225 208 256 260 260 214 206
202 142 107 122 143 152 242 142 232 193 114 68 73 39 22 58 37 64 85 64 62 110 101 162 183 123 225 233 228 65 84 102 96 59 110 165 181 211 250 249 235 218 223 228 249 222 249 215 183
121 69 164 96 90 117 94 145 120 153 83 58 55 12 -3 35 36 65 124 110 106 150 120 174 161 174 220 255 252 171 97 102 98 83 122 148 141 208 207 199 208 191 224 241 232 245 235 206 178
39 149 207 153 153 148 128 80 125 68 16 28 1 21 3 46 29 55 149 243 236 240 232 199 189 175 243 324 303 226 98 123 123 129 106 120 146 177 195 190 170 238 229 215 234 228 184 168 163
121 71 13 36 -2 99 123 96 71 22 -18 -10 21 11 1 34 53 36 112 213 350 316 425 296 221 233 260 349 389 311 105 120 118 121 103 134 196 204 199 164 162 195 202 211 265 189 170 131 141
11 41 29 24 17 22 26 117 63 3 -1 12 26 -2 1 13 54 63 100 226 401 374 320 463 351 277 279 301 418 385 311 126 146 183 198 227 233 192 195 187 188 175 168 208 202 145 126 114 94

GFSSGP_con_3kmhel_117.txt.gz
Helicity
16 12 4 20 30 38 -9 10 46 75 42 113 137 86 114 117 107 70 52 37 15 7 117 127 125 116 100 78 78 87 106 113 112 112 112 108 106 101 89 75 66 53 45 40 36 42 42 38 44
7 8 13 30 40 1 -0 27 76 31 126 86 45 46 15 53 107 111 119 33 21 -4 52 44 90 122 119 94 94 100 106 114 114 117 121 118 111 106 93 78 64 51 43 35 38 49 44 36 48
-11 -6 25 58 37 -1 -9 79 118 130 137 77 76 65 75 86 148 111 86 30 23 -6 23 29 68 109 120 108 104 107 117 112 115 119 119 118 113 110 98 84 60 47 44 41 44 45 55 56 58
23 43 62 47 3 14 27 65 114 74 53 48 82 51 58 125 127 104 87 24 16 6 14 104 78 64 105 119 124 122 122 112 113 117 118 115 111 106 103 86 62 46 42 40 42 46 63 73 68
18 46 48 41 16 9 19 37 98 65 97 90 65 51 49 102 84 77 79 24 28 14 61 58 81 47 74 103 125 122 122 115 112 120 119 113 117 110 106 83 61 46 41 41 49 41 62 76 69
44 71 58 52 20 14 45 54 87 76 64 64 78 41 35 105 128 72 59 24 14 29 42 15 53 65 63 77 100 106 114 107 101 111 110 112 112 108 104 81 55 48 51 57 55 52 59 64 65
31 62 52 65 67 59 90 69 136 95 74 43 112 150 78 68 153 81 89 43 12 41 19 40 43 65 79 84 79 78 102 101 91 100 107 112 106 95 90 79 56 49 58 63 57 54 58 56 55
44 67 49 55 68 75 37 65 74 73 80 153 130 104 65 157 158 89 72 55 28 28 42 35 45 74 75 64 81 70 80 94 89 86 101 100 86 78 77 71 52 41 50 62 64 59 56 58 51
59 81 68 48 66 42 37 96 62 87 111 98 101 96 102 119 108 96 90 66 18 12 78 108 50 85 76 78 78 79 78 86 87 80 85 91 46 45 53 33 73 43 51 59 61 64 61 59 60
90 81 37 54 159 147 149 94 67 79 79 62 83 39 68 98 106 107 99 116 112 36 29 95 91 115 102 80 78 68 84 73 74 69 64 45 37 50 34 55 60 61 56 60 55 61 74 56 48
51 60 50 80 101 85 86 82 66 82 83 63 93 142 99 135 101 77 83 89 92 115 27 41 90 118 159 130 90 79 94 87 81 67 64 43 42 64 22 49 53 35 59 58 62 70 52 40 30
89 58 63 88 95 89 76 95 112 67 93 65 86 80 116 56 74 91 101 89 117 117 102 50 70 89 97 133 154 103 79 98 94 75 74 69 44 73 33 53 40 53 61 42 63 58 42 37 13
89 55 76 84 65 71 70 76 52 61 26 40 62 106 54 89 76 74 104 95 53 111 116 159 62 106 106 88 119 125 139 131 99 89 80 57 61 86 31 48 71 62 45 50 63 63 37 37 37
90 136 91 104 71 70 64 60 55 40 76 76 74 63 79 66 65 70 58 78 155 116 116 105 130 115 116 109 102 76 89 107 111 106 96 66 69 94 47 30 15 66 61 56 60 66 79 65 54
110 66 58 57 52 84 146 72 21 14 72 70 81 46 72 57 49 42 60 85 85 96 91 63 86 109 138 101 89 104 84 80 111 79 126 108 92 94 109 58 24 42 61 75 79 61 80 69 44
51 52 65 22 303 128 128 124 92 136 113 90 85 94 72 50 60 73 75 83 84 92 155 156 151 132 124 119 137 116 102 109 115 116 97 110 107 103 140 132 73 74 42 101 101 84 80 93 72
61 85 65 101 72 103 111 131 177 106 115 104 66 52 50 72 79 70 83 110 102 170 221 235 220 198 152 139 103 96 105 109 115 148 112 108 111 119 149 131 134 111 100 122 95 102 129 94 80
122 179 109 113 57 57 47 91 74 68 63 138 55 48 65 59 100 271 317 269 280 189 185 183 160 241 248 202 171 120 93 105 134 134 160 97 135 129 147 162 145 149 165 166 122 106 115 94 118
150 145 120 137 85 113 153 130 88 65 58 59 53 38 35 189 294 244 189 154 158 139 144 163 210 177 197 264 231 176 150 136 141 138 141 142 136 135 135 144 151 177 199 229 187 139 137 147 157
165 124 114 111 61 167 138 113 81 48 30 44 142 161 368 286 151 147 123 114 128 139 158 161 178 194 209 252 315 323 264 144 152 152 141 156 148 174 178 153 179 216 192 219 183 168 187 180 200
94 111 125 150 223 150 111 51 20 23 105 128 341 351 230 205 140 89 101 118 119 132 129 135 179 197 197 218 244 316 354 321 270 215 182 175 173 205 194 186 224 241 256 235 236 215 241 243 239
134 79 184 238 121 148 149 177 124 40 13 228 257 380 208 130 145 124 101 114 119 96 107 96 157 196 194 196 201 238 309 357 255 231 197 213 198 224 219 206 224 262 303 233 241 255 285 289 298
145 146 194 140 157 152 86 113 60 3 76 234 421 241 174 155 141 123 101 97 107 101 118 103 130 175 193 207 200 201 252 308 363 446 198 172 228 201 229 229 261 286 298 231 227 244 289 348 301
87 132 79 73 70 101 46 19 66 121 267 344 270 206 149 180 122 92 79 55 85 91 105 117 155 166 186 178 166 138 191 234 291 374 421 226 215 238 208 237 258 310 292 241 230 246 245 312 312
74 91 120 120 162 102 19 88 72 129 218 206 155 161 140 86 58 60 55 49 59 87 101 102 148 167 162 166 182 159 107 141 180 210 267 211 209 202 200 236 294 325 315 266 251 264 260 251 304
86 115 149 132 154 160 58 183 148 262 182 161 115 71 64 45 46 48 47 41 35 43 46 71 122 111 96 117 147 149 146 107 120 134 149 298 141 165 168 190 249 279 265 293 295 278 263 250 278
101 137 102 157 118 119 93 47 105 262 223 121 72 51 44 54 44 42 52 47 19 9 8 34 117 133 123 90 65 106 161 169 135 114 130 90 132 152 126 133 164 234 287 262 304 329 258 252 256
108 116 177 137 121 78 64 26 227 277 160 80 33 35 36 32 31 36 33 16 4 3 33 63 102 137 150 96 89 67 100 121 114 136 75 82 99 92 122 86 164 210 254 284 273 263 253 251 228
103 88 98 110 134 143 123 122 109 107 38 8 60 61 17 16 5 -13 4 18 13 8 47 64 136 167 194 178 147 150 60 67 72 91 46 74 76 110 107 102 158 181 193 221 222 239 281 251 229
51 32 75 104 70 39 -5 49 67 16 25 17 33 26 12 11 15 6 29 52 71 73 61 130 210 297 292 208 262 144 120 175 149 184 54 52 72 89 85 79 81 98 171 199 196 236 247 258 210

GFSSGP_con_3kmhel_120.txt.gz
Helicity
-19 -10 9 32 21 23 -19 -31 -11 102 55 193 247 197 135 119 104 85 61 77 26 52 127 103 117 92 80 72 71 84 84 96 100 98 88 83 81 74 66 53 36 23 24 22 26 26 24 24 29
-16 -23 0 22 16 -1 -16 25 82 211 197 175 104 35 34 48 147 128 147 74 25 33 124 101 97 77 75 67 70 86 86 90 93 87 89 88 81 76 67 52 35 28 35 21 15 25 27 22 27
-40 -44 23 31 18 -15 -43 29 108 131 120 152 127 73 86 123 168 132 100 74 46 14 87 68 89 70 62 55 62 79 82 87 95 94 89 83 77 77 68 56 38 34 34 22 17 19 24 22 29
7 22 35 64 -12 -50 -11 29 69 60 31 24 135 77 54 146 152 153 93 64 41 40 83 110 93 59 61 51 55 65 77 77 82 82 89 86 77 78 69 55 41 37 33 27 24 31 28 27 30
2 26 24 27 8 -9 11 21 74 57 51 81 68 66 48 156 200 152 70 53 35 64 129 98 105 79 66 62 58 55 71 74 82 81 84 85 77 75 68 50 37 37 33 33 43 34 32 31 28
25 25 42 36 26 -29 0 78 119 78 73 30 23 67 34 109 195 156 74 19 18 62 65 75 94 107 78 67 57 58 66 71 73 77 81 86 84 82 70 52 35 29 32 40 42 43 41 29 26
7 39 25 23 34 50 49 42 58 164 104 57 149 175 57 173 148 139 92 59 15 40 82 22 38 86 111 76 68 59 69 66 70 75 82 87 88 83 69 50 36 34 38 44 43 46 48 42 27
27 50 18 10 32 50 32 81 125 131 96 81 58 127 86 108 49 81 106 48 29 -26 50 22 33 76 119 97 95 82 67 68 65 70 80 85 86 77 65 49 27 21 33 46 45 44 51 50 39
47 83 44 11 11 65 102 138 93 63 107 91 122 76 97 58 73 97 150 91 69 25 -17 90 60 75 104 105 110 109 87 76 77 80 85 90 69 67 64 44 48 21 36 39 41 44 49 51 49
81 78 34 27 45 117 104 185 210 193 133 104 100 62 37 117 104 119 144 141 120 80 17 58 64 99 99 103 133 119 110 107 101 92 95 85 54 63 50 40 47 55 45 48 41 44 50 54 56
53 51 45 68 82 120 154 115 108 135 130 102 133 135 145 144 203 99 62 77 94 90 88 10 63 89 78 93 191 155 137 121 116 125 131 98 68 58 40 64 75 60 64 51 66 63 59 51 40
60 37 37 37 59 112 150 115 105 113 100 82 68 90 126 192 82 78 71 68 106 143 143 69 6 61 83 114 165 148 131 141 134 127 138 132 110 70 91 76 117 104 97 73 71 74 55 39 -16
65 61 65 57 60 104 65 87 81 71 39 65 54 46 148 67 101 47 50 92 84 38 77 84 23 46 77 105 112 105 77 114 121 124 116 123 98 109 146 64 122 98 82 84 84 71 61 27 34
63 107 113 93 73 55 77 82 96 42 44 35 126 107 81 99 51 75 66 40 75 96 101 44 51 39 59 86 103 128 125 152 104 102 121 113 102 79 146 80 109 137 97 119 97 74 83 53 51
94 73 66 53 16 19 42 97 60 20 33 51 72 81 52 57 67 45 26 67 90 115 59 47 35 59 57 61 92 129 120 121 154 134 142 111 83 89 128 88 92 138 76 160 149 83 101 57 86
68 52 40 -2 -23 165 213 179 16 91 148 161 103 43 90 110 49 38 100 188 233 169 188 228 241 252 231 185 95 106 113 125 144 130 131 139 141 92 142 127 98 82 140 233 180 139 128 102 96
30 49 12 13 100 98 118 95 50 68 71 84 69 87 59 60 38 210 303 344 410 381 340 291 351 358 250 190 184 139 85 106 126 144 138 169 140 101 153 136 106 87 148 197 225 207 150 151 113
76 133 145 169 35 37 36 51 9 21 45 75 59 82 106 52 179 292 291 340 402 354 258 186 202 249 232 216 206 151 161 125 125 123 132 189 194 138 145 184 168 102 160 206 243 259 206 183 149
86 130 155 131 110 119 172 142 83 90 86 45 80 58 94 123 328 303 289 264 237 177 155 147 134 157 146 167 231 300 260 126 136 126 132 127 181 174 154 197 242 179 169 219 278 312 261 200 152
135 171 162 121 61 43 102 178 154 66 31 16 18 95 357 344 375 376 311 270 146 112 115 120 112 110 106 148 192 231 262 297 302 135 126 131 180 191 197 190 251 249 241 201 309 314 320 258 190
104 128 90 84 99 80 141 145 96 28 15 29 268 388 401 425 416 320 265 174 116 115 99 112 124 126 128 142 128 143 175 210 239 254 260 178 151 188 218 215 221 262 255 265 266 361 372 322 262
128 56 108 174 251 193 139 213 136 67 63 52 454 382 489 431 347 216 150 105 85 106 109 116 121 114 95 133 149 177 156 203 244 331 295 176 175 176 212 239 213 204 267 248 264 285 298 345 305
152 105 227 243 195 147 82 115 107 54 56 275 429 422 484 404 299 214 142 137 131 106 80 86 95 88 121 159 168 157 160 151 189 229 327 360 254 185 163 212 219 188 290 239 287 281 285 262 269
129 251 159 97 90 122 69 51 68 121 338 452 419 349 235 211 164 136 139 130 110 70 45 36 55 71 93 118 154 163 149 150 158 176 190 245 407 332 188 182 225 202 238 249 251 260 269 273 243
103 120 132 134 132 128 34 33 212 242 265 276 238 177 105 53 69 118 111 68 56 40 25 11 28 54 69 101 135 145 155 135 130 139 164 170 149 311 228 189 240 262 284 333 324 319 291 264 264
108 81 176 116 86 79 136 222 80 203 375 206 135 102 118 133 67 50 62 34 17 13 17 15 26 39 61 102 143 146 135 110 115 96 99 113 170 128 155 143 138 215 244 306 350 363 320 264 250
135 155 76 122 168 166 132 38 294 494 413 236 166 127 71 40 31 21 22 9 10 6 -4 12 36 38 75 113 127 145 118 94 88 90 103 89 74 132 155 123 117 121 260 295 318 326 328 292 253
169 116 192 250 184 107 67 37 179 238 232 192 127 40 31 39 32 24 23 34 13 9 17 13 9 37 86 145 131 136 136 127 104 74 58 77 77 75 159 119 116 114 160 251 262 278 289 296 290
111 112 112 94 138 151 83 125 45 102 60 56 22 13 3 40 18 19 18 43 45 67 63 26 29 72 120 153 157 189 142 107 76 60 46 98 94 57 140 123 178 244 98 111 170 229 292 271 262
38 65 58 184 106 78 104 99 142 62 56 32 16 12 63 46 38 26 40 86 112 143 99 56 85 115 175 182 115 125 134 147 172 195 171 169 84 61 114 94 160 136 47 107 153 192 264 272 234

GFSSGP_con_3kmhel_123.txt.gz
Helicity
1 15 53 48 50 38 9 21 24 135 122 106 110 123 67 162 142 165 12 54 7 32 129 113 88 79 82 70 63 69 71 79 71 83 83 72 64 60 55 48 36 27 21 21 20 13 7 13 14
0 21 77 67 52 26 37 45 47 59 86 128 140 136 146 136 103 133 111 109 29 28 99 133 107 89 80 80 67 60 66 76 70 76 81 71 65 61 50 36 24 17 24 28 24 15 12 9 5
14 33 74 61 40 30 46 -3 -18 48 75 55 91 100 97 148 131 91 88 99 100 55 78 116 122 82 78 81 68 56 61 72 77 81 80 70 63 54 48 37 25 22 19 12 15 23 28 11 7
71 63 51 58 -7 -33 33 24 76 65 50 41 84 125 68 140 155 107 75 57 79 20 61 99 114 80 74 82 67 54 56 61 67 77 80 74 66 60 50 37 24 18 17 15 10 28 25 20 15
82 83 73 61 18 61 34 62 52 69 86 106 89 94 45 180 179 102 50 42 60 89 73 51 76 97 80 81 69 56 53 56 63 63 74 80 70 59 48 38 29 18 13 17 25 28 24 25 23
106 100 88 57 68 82 -30 -14 -15 90 173 219 186 112 170 191 204 146 61 30 19 24 75 71 78 99 86 82 80 65 56 52 59 55 61 71 73 68 53 41 29 22 17 20 21 25 25 16 10
47 73 33 22 15 4 47 -4 13 22 129 136 140 217 145 100 16 56 60 34 5 15 31 38 62 82 88 94 86 81 65 58 59 63 64 71 75 73 64 45 27 19 22 28 19 19 19 17 10
72 115 23 7 20 34 37 32 198 183 77 160 185 269 215 -69 15 90 140 89 83 24 28 17 60 76 119 115 101 91 84 71 59 75 73 85 84 82 75 59 33 20 21 42 40 32 23 11 9
54 90 43 36 79 30 17 29 100 184 255 250 184 173 135 -12 57 135 139 136 98 60 31 23 39 61 90 125 120 109 98 82 70 74 85 106 104 90 92 76 42 25 23 52 47 42 39 21 1
99 87 44 77 83 60 40 82 92 146 209 185 165 147 175 160 93 122 136 99 106 123 94 66 36 13 45 108 142 133 118 119 113 105 95 109 115 108 92 86 64 51 37 49 52 44 45 50 30
21 92 78 10 48 65 98 88 105 107 132 200 183 142 155 127 157 167 110 48 97 95 41 44 44 36 67 82 148 150 148 143 140 126 115 97 98 99 99 88 94 86 81 76 75 63 63 50 41
59 39 68 66 54 28 60 83 73 71 54 80 100 109 104 145 115 81 68 124 131 126 54 9 -15 49 35 102 128 161 165 161 160 150 141 113 101 101 88 103 122 128 134 120 105 85 65 64 36
17 36 60 64 83 82 78 93 78 75 61 77 68 78 100 123 138 86 101 76 82 112 157 5 2 -28 8 20 93 123 149 176 172 169 165 157 106 95 107 105 128 131 154 128 127 117 84 54 62
69 35 31 39 46 80 83 69 118 105 122 122 86 76 113 93 76 59 71 75 205 296 322 345 341 238 116 66 60 86 119 148 173 174 157 174 149 119 100 133 137 140 144 133 138 130 115 68 88
73 57 63 37 16 83 95 131 115 59 79 134 75 82 70 42 51 240 296 347 344 275 252 387 435 371 305 296 257 127 93 76 142 154 139 160 179 127 125 139 166 140 140 121 134 128 116 87 57
92 90 98 61 52 78 158 160 141 36 99 94 101 91 68 68 164 243 321 351 389 397 335 334 373 410 373 283 250 251 198 161 88 86 128 145 150 152 151 143 131 165 150 163 147 144 142 119 99
103 105 109 156 67 120 166 155 75 25 62 102 86 75 81 141 280 342 367 339 342 354 365 273 239 292 259 193 187 167 182 183 167 126 95 87 123 125 177 148 127 185 153 202 182 169 180 159 145
108 145 147 144 56 103 135 163 93 59 56 47 62 85 108 446 438 449 507 431 403 361 356 288 153 95 126 72 56 38 68 139 192 185 146 95 109 130 102 174 162 152 206 181 204 248 226 217 187
167 198 153 115 93 84 85 103 94 46 101 109 115 78 201 418 521 584 566 443 366 321 259 236 172 109 22 -52 -88 -25 -37 39 116 178 232 100 138 140 149 171 156 161 131 198 236 286 302 249 240
141 160 131 85 89 101 120 112 71 112 114 65 31 245 473 613 552 493 538 469 317 263 195 174 134 99 60 40 -4 -23 1 -10 45 119 189 225 139 144 140 198 86 140 153 150 262 292 361 338 296
139 142 110 95 97 126 191 171 175 133 125 113 317 460 552 601 667 543 395 304 208 149 112 92 92 54 15 40 16 -4 -10 8 5 24 104 228 294 181 115 184 176 185 191 202 212 316 367 430 352
154 147 181 191 198 153 233 243 130 74 100 286 375 447 494 440 379 252 195 133 61 38 13 27 4 31 64 68 34 58 30 5 44 45 24 116 224 317 231 93 155 197 182 209 262 315 385 412 377
173 172 236 230 271 274 136 222 140 102 195 308 416 425 353 213 184 135 64 13 2 2 -4 19 52 70 63 44 38 19 43 47 11 38 58 10 90 202 285 230 89 133 215 236 290 305 396 438 375
245 241 223 181 189 257 144 154 187 146 278 403 347 255 198 149 151 119 96 47 38 59 83 90 75 50 41 35 32 54 56 59 37 36 63 51 -6 30 164 250 229 116 132 181 206 263 365 409 308
166 194 199 178 224 208 100 119 123 252 346 288 153 128 94 44 0 -20 8 28 40 41 49 29 42 40 24 32 64 64 65 59 41 31 37 85 67 34 52 142 183 215 145 131 151 208 299 350 349
244 249 263 280 309 156 54 152 288 433 410 330 215 149 129 100 52 31 -11 -1 19 58 58 50 17 11 38 50 43 48 80 67 55 43 28 48 71 67 63 85 172 161 177 122 129 136 241 395 219
304 282 210 292 174 170 182 284 392 391 277 216 181 119 70 2 -25 14 9 33 32 73 95 71 36 43 67 60 40 88 97 99 71 72 52 42 31 30 30 41 141 184 181 94 101 133 145 253 290
244 220 259 290 266 188 200 191 184 156 166 144 68 39 26 -11 -18 17 47 63 107 137 122 47 47 49 67 86 93 121 131 127 98 98 88 43 35 27 44 46 39 135 184 128 100 111 131 154 253
192 260 231 196 225 219 230 182 82 68 80 80 101 65 11 -11 8 22 43 97 109 110 105 55 79 86 89 93 83 70 89 84 74 85 86 80 52 48 93 75 70 78 157 160 152 139 138 143 218
144 147 149 266 218 181 142 119 183 70 58 90 51 26 42 29 -2 16 47 43 100 123 150 87 100 105 111 102 116 107 116 131 96 99 140 187 237 231 151 141 140 146 133 166 162 183 206 119 105